Time,TemperatureF,DewpointF,PressureIn,WindDirection,WindDirectionDegrees,WindSpeedMPH,WindSpeedGustMPH,Humidity,HourlyPrecipIn,Conditions,Clouds,dailyrainin,SoftwareType,DateUTC
2013-09-27 00:00:00,67.8,67.8,29.56,NW,326,3.0,4.0,100,0.00,,CLR,0.00,VWS V14.01,2013-09-27 04:00:00,
2013-09-27 00:01:00,67.8,67.8,29.56,NNW,331,2.0,4.0,100,0.00,,CLR,0.00,VWS V14.01,2013-09-27 04:01:00,
2013-09-27 00:02:00,67.8,67.8,29.56,NNW,334,3.0,4.0,100,0.00,,CLR,0.00,VWS V14.01,2013-09-27 04:02:00,
2013-09-27 00:03:00,67.8,67.8,29.56,NNW,332,3.0,6.0,100,0.00,,CLR,0.00,VWS V14.01,2013-09-27 04:03:00,
2013-09-27 00:04:00,67.8,67.8,29.56,NNW,332,4.0,4.0,100,0.00,,CLR,0.00,VWS V14.01,2013-09-27 04:04:00,
2013-09-27 00:05:00,67.8,67.8,29.56,NNW,332,4.0,4.0,100,0.00,,CLR,0.00,VWS V14.01,2013-09-27 04:05:00,
2013-09-27 00:06:00,67.8,67.8,29.59,NNW,332,3.0,3.0,100,0.00,,CLR,0.00,VWS V14.01,2013-09-27 04:06:00,
2013-09-27 00:07:00,67.8,67.8,29.59,NNW,332,2.0,3.0,100,0.00,,CLR,0.00,VWS V14.01,2013-09-27 04:07:00,
2013-09-27 00:08:00,67.8,67.8,29.59,NNW,332,1.0,3.0,100,0.00,,CLR,0.00,VWS V14.01,2013-09-27 04:08:00,
2013-09-27 00:09:00,67.8,67.8,29.58,NNW,328,3.0,5.0,100,0.00,,CLR,0.00,VWS V14.01,2013-09-27 04:09:00,
2013-09-27 00:10:00,67.8,67.8,29.58,NW,325,2.0,4.0,100,0.00,,CLR,0.00,VWS V14.01,2013-09-27 04:10:00,
2013-09-27 00:11:00,67.8,67.8,29.56,NW,324,4.0,4.0,100,0.00,,CLR,0.00,VWS V14.01,2013-09-27 04:11:00,
2013-09-27 00:12:00,67.8,67.8,29.58,NW,325,3.0,3.0,100,0.00,,CLR,0.00,VWS V14.01,2013-09-27 04:12:00,
2013-09-27 00:13:00,67.8,67.8,29.56,NW,324,2.0,4.0,100,0.00,,CLR,0.00,VWS V14.01,2013-09-27 04:13:00,
2013-09-27 00:14:00,67.8,67.8,29.56,NW,322,4.0,4.0,100,0.00,,CLR,0.00,VWS V14.01,2013-09-27 04:14:00,
2013-09-27 00:15:00,67.8,67.8,29.56,NW,322,4.0,4.0,100,0.00,,CLR,0.00,VWS V14.01,2013-09-27 04:15:00,
2013-09-27 00:16:00,67.8,67.8,29.56,NNW,330,4.0,4.0,100,0.00,,CLR,0.00,VWS V14.01,2013-09-27 04:16:00,
2013-09-27 00:17:00,67.8,67.8,29.56,NW,323,3.0,4.0,100,0.00,,CLR,0.00,VWS V14.01,2013-09-27 04:17:00,
2013-09-27 00:18:00,67.8,67.8,29.56,NNW,331,4.0,4.0,100,0.00,,CLR,0.00,VWS V14.01,2013-09-27 04:18:00,
2013-09-27 00:19:00,67.8,67.8,29.56,NNW,330,2.0,5.0,100,0.00,,CLR,0.00,VWS V14.01,2013-09-27 04:19:00,
2013-09-27 00:20:00,67.8,67.8,29.56,NNW,336,3.0,5.0,100,0.00,,CLR,0.00,VWS V14.01,2013-09-27 04:20:00,
2013-09-27 00:21:00,67.8,67.8,29.56,NNW,336,1.0,1.0,100,0.00,,CLR,0.00,VWS V14.01,2013-09-27 04:21:00,
2013-09-27 00:22:00,67.8,67.8,29.56,NNW,336,1.0,3.0,100,0.00,,CLR,0.00,VWS V14.01,2013-09-27 04:22:00,
2013-09-27 00:23:00,67.8,67.8,29.56,NNW,336,2.0,3.0,100,0.00,,CLR,0.00,VWS V14.01,2013-09-27 04:23:00,
2013-09-27 00:24:00,67.6,67.6,29.56,NNW,336,2.0,3.0,100,0.00,,CLR,0.00,VWS V14.01,2013-09-27 04:24:00,
2013-09-27 00:25:00,67.6,67.6,29.56,NNW,336,2.0,2.0,100,0.00,,CLR,0.00,VWS V14.01,2013-09-27 04:25:00,
2013-09-27 00:26:00,67.6,67.6,29.56,NNW,348,2.0,3.0,100,0.00,,CLR,0.00,VWS V14.01,2013-09-27 04:26:00,
2013-09-27 00:27:00,67.6,67.6,29.56,North,355,3.0,3.0,100,0.00,,CLR,0.00,VWS V14.01,2013-09-27 04:27:00,
2013-09-27 00:28:00,67.6,67.6,29.56,NNW,348,3.0,3.0,100,0.00,,CLR,0.00,VWS V14.01,2013-09-27 04:28:00,
2013-09-27 00:29:00,67.6,67.6,29.56,NW,323,1.0,4.0,100,0.00,,CLR,0.00,VWS V14.01,2013-09-27 04:29:00,
2013-09-27 00:30:00,67.6,67.6,29.58,North,355,3.0,3.0,100,0.00,,CLR,0.00,VWS V14.01,2013-09-27 04:30:00,
2013-09-27 00:31:00,67.6,67.6,29.54,North,355,3.0,3.0,100,0.00,,CLR,0.00,VWS V14.01,2013-09-27 04:31:00,
2013-09-27 00:32:00,67.6,67.6,29.58,North,355,3.0,3.0,100,0.00,,CLR,0.00,VWS V14.01,2013-09-27 04:32:00,
2013-09-27 00:33:00,67.6,67.6,29.54,North,350,3.0,3.0,100,0.00,,CLR,0.00,VWS V14.01,2013-09-27 04:33:00,
2013-09-27 00:34:00,67.6,67.6,29.54,NNW,327,2.0,5.0,100,0.00,,CLR,0.00,VWS V14.01,2013-09-27 04:34:00,
2013-09-27 00:35:00,67.6,67.6,29.54,NNW,328,2.0,3.0,100,0.00,,CLR,0.00,VWS V14.01,2013-09-27 04:35:00,
2013-09-27 00:36:00,67.6,67.6,29.55,NNW,339,2.0,3.0,100,0.00,,CLR,0.00,VWS V14.01,2013-09-27 04:36:00,
2013-09-27 00:37:00,67.6,67.6,29.55,NNW,339,2.0,4.0,100,0.00,,CLR,0.00,VWS V14.01,2013-09-27 04:37:00,
2013-09-27 00:38:00,67.6,67.6,29.55,NNE,16,4.0,4.0,100,0.00,,CLR,0.00,VWS V14.01,2013-09-27 04:38:00,
2013-09-27 00:39:00,67.6,67.6,29.55,NNE,16,4.0,4.0,100,0.00,,CLR,0.00,VWS V14.01,2013-09-27 04:39:00,
2013-09-27 00:40:00,67.6,67.6,29.55,NNE,13,2.0,4.0,100,0.00,,CLR,0.00,VWS V14.01,2013-09-27 04:40:00,
2013-09-27 00:41:00,67.6,67.6,29.55,NW,316,3.0,3.0,100,0.00,,CLR,0.00,VWS V14.01,2013-09-27 04:41:00,
2013-09-27 00:42:00,67.6,67.6,29.55,North,5,1.0,4.0,100,0.00,,CLR,0.00,VWS V14.01,2013-09-27 04:42:00,
2013-09-27 00:43:00,67.6,67.6,29.55,NW,317,3.0,3.0,100,0.00,,CLR,0.00,VWS V14.01,2013-09-27 04:43:00,
2013-09-27 00:44:00,67.6,67.6,29.55,NW,316,2.0,3.0,100,0.00,,CLR,0.00,VWS V14.01,2013-09-27 04:44:00,
2013-09-27 00:45:00,67.6,67.6,29.56,NNW,348,2.0,3.0,100,0.00,,CLR,0.00,VWS V14.01,2013-09-27 04:45:00,
2013-09-27 00:46:00,67.4,67.4,29.57,NNW,340,1.0,2.0,100,0.00,,CLR,0.00,VWS V14.01,2013-09-27 04:46:00,
2013-09-27 00:47:00,67.4,67.4,29.56,NNW,340,0.0,4.0,100,0.00,,CLR,0.00,VWS V14.01,2013-09-27 04:47:00,
2013-09-27 00:48:00,67.4,67.4,29.57,NNW,340,3.0,3.0,100,0.00,,CLR,0.00,VWS V14.01,2013-09-27 04:48:00,
2013-09-27 00:49:00,67.4,67.4,29.56,North,5,2.0,3.0,100,0.00,,CLR,0.00,VWS V14.01,2013-09-27 04:49:00,
2013-09-27 00:50:00,67.4,67.4,29.56,North,5,2.0,2.0,100,0.00,,CLR,0.00,VWS V14.01,2013-09-27 04:50:00,
2013-09-27 00:51:00,67.4,67.4,29.57,North,5,1.0,4.0,100,0.00,,CLR,0.00,VWS V14.01,2013-09-27 04:51:00,
2013-09-27 00:52:00,67.4,67.4,29.57,North,5,3.0,3.0,100,0.00,,CLR,0.00,VWS V14.01,2013-09-27 04:52:00,
2013-09-27 00:53:00,67.4,67.4,29.57,North,5,1.0,4.0,100,0.00,,CLR,0.00,VWS V14.01,2013-09-27 04:53:00,
2013-09-27 00:54:00,67.3,67.3,29.57,North,5,2.0,4.0,100,0.00,,CLR,0.00,VWS V14.01,2013-09-27 04:54:00,
2013-09-27 00:55:00,67.3,67.3,29.61,NE,38,1.0,5.0,100,0.00,,CLR,0.00,VWS V14.01,2013-09-27 04:55:00,
2013-09-27 00:56:00,67.3,67.3,29.64,North,355,4.0,4.0,100,0.00,,CLR,0.00,VWS V14.01,2013-09-27 04:56:00,
2013-09-27 00:57:00,67.3,67.3,29.64,North,5,4.0,4.0,100,0.00,,CLR,0.00,VWS V14.01,2013-09-27 04:57:00,
2013-09-27 00:58:00,67.3,67.3,29.64,North,355,2.0,4.0,100,0.00,,CLR,0.00,VWS V14.01,2013-09-27 04:58:00,
2013-09-27 00:59:00,67.1,67.1,29.64,NNE,30,1.0,5.0,100,0.00,,CLR,0.00,VWS V14.01,2013-09-27 04:59:00,
2013-09-27 01:00:00,67.1,67.1,29.64,NNE,24,2.0,3.0,100,0.00,,CLR,0.00,VWS V14.01,2013-09-27 05:00:00,
2013-09-27 01:01:00,67.1,67.1,29.49,North,9,3.0,4.0,100,0.00,,CLR,0.00,VWS V14.01,2013-09-27 05:01:00,
2013-09-27 01:02:00,67.1,67.1,29.49,NNE,25,1.0,2.0,100,0.00,,CLR,0.00,VWS V14.01,2013-09-27 05:02:00,
2013-09-27 01:03:00,67.1,67.1,29.49,NNE,27,4.0,4.0,100,0.00,,CLR,0.00,VWS V14.01,2013-09-27 05:03:00,
2013-09-27 01:04:00,67.1,67.1,29.49,North,5,3.0,4.0,100,0.00,,CLR,0.00,VWS V14.01,2013-09-27 05:04:00,
2013-09-27 01:05:00,66.9,66.9,29.49,North,349,5.0,5.0,100,0.00,,CLR,0.00,VWS V14.01,2013-09-27 05:05:00,
2013-09-27 01:06:00,66.9,66.9,29.49,NNW,346,2.0,2.0,100,0.00,,CLR,0.00,VWS V14.01,2013-09-27 05:06:00,
2013-09-27 01:07:00,66.9,66.9,29.49,NNW,347,2.0,4.0,100,0.00,,CLR,0.00,VWS V14.01,2013-09-27 05:07:00,
2013-09-27 01:08:00,66.9,66.9,29.49,North,5,4.0,4.0,100,0.00,,CLR,0.00,VWS V14.01,2013-09-27 05:08:00,
2013-09-27 01:11:00,66.8,66.8,29.49,NNE,23,3.0,3.0,100,0.00,,CLR,0.00,VWS V14.01,2013-09-27 05:11:00,
2013-09-27 01:12:00,66.8,66.8,29.49,NNE,12,2.0,4.0,100,0.00,,CLR,0.00,VWS V14.01,2013-09-27 05:12:00,
2013-09-27 01:13:00,66.8,66.8,29.49,NNE,23,3.0,3.0,100,0.00,,CLR,0.00,VWS V14.01,2013-09-27 05:13:00,
2013-09-27 01:16:00,66.8,66.8,29.56,NE,56,2.0,3.0,100,0.00,,CLR,0.00,VWS V14.01,2013-09-27 05:16:00,
2013-09-27 01:17:00,66.8,66.8,29.56,ENE,57,1.0,5.0,100,0.00,,CLR,0.00,VWS V14.01,2013-09-27 05:17:00,
2013-09-27 01:19:00,66.8,66.8,29.56,North,5,2.0,3.0,100,0.00,,CLR,0.00,VWS V14.01,2013-09-27 05:19:00,
2013-09-27 01:21:00,66.8,66.8,29.57,North,11,2.0,3.0,100,0.00,,CLR,0.00,VWS V14.01,2013-09-27 05:21:00,
2013-09-27 01:22:00,66.8,66.8,29.57,NNE,12,1.0,3.0,100,0.00,,CLR,0.00,VWS V14.01,2013-09-27 05:22:00,
2013-09-27 01:23:00,66.8,66.8,29.57,North,350,3.0,5.0,100,0.00,,CLR,0.00,VWS V14.01,2013-09-27 05:23:00,
2013-09-27 01:24:00,66.8,66.8,29.57,North,5,2.0,3.0,100,0.00,,CLR,0.00,VWS V14.01,2013-09-27 05:24:00,
2013-09-27 01:26:00,66.8,66.8,29.79,NE,35,2.0,4.0,100,0.00,,CLR,0.00,VWS V14.01,2013-09-27 05:26:00,
2013-09-27 01:27:00,66.8,66.8,29.57,NNE,25,4.0,4.0,100,0.00,,CLR,0.00,VWS V14.01,2013-09-27 05:27:00,
2013-09-27 01:28:00,66.8,66.8,29.79,NE,35,0.0,4.0,100,0.00,,CLR,0.00,VWS V14.01,2013-09-27 05:28:00,
2013-09-27 01:29:00,66.8,66.8,29.79,NNE,32,4.0,4.0,100,0.00,,CLR,0.00,VWS V14.01,2013-09-27 05:29:00,
2013-09-27 01:30:00,66.8,66.8,29.88,NNE,32,3.0,4.0,100,0.00,,CLR,0.00,VWS V14.01,2013-09-27 05:30:00,
2013-09-27 01:31:00,66.8,66.8,29.82,North,5,1.0,4.0,100,0.00,,CLR,0.00,VWS V14.01,2013-09-27 05:31:00,
2013-09-27 01:33:00,66.8,66.8,29.82,North,5,0.0,4.0,100,0.00,,CLR,0.00,VWS V14.01,2013-09-27 05:33:00,
2013-09-27 01:34:00,66.8,66.8,29.82,North,5,3.0,3.0,100,0.00,,CLR,0.00,VWS V14.01,2013-09-27 05:34:00,
2013-09-27 01:36:00,66.8,66.8,29.79,NNE,26,2.0,3.0,100,0.00,,CLR,0.00,VWS V14.01,2013-09-27 05:36:00,
2013-09-27 01:38:00,66.8,66.8,29.79,NW,324,3.0,4.0,100,0.00,,CLR,0.00,VWS V14.01,2013-09-27 05:38:00,
2013-09-27 01:39:00,66.8,66.8,29.79,NNE,30,1.0,4.0,100,0.00,,CLR,0.00,VWS V14.01,2013-09-27 05:39:00,
2013-09-27 01:41:00,66.6,66.6,29.79,NE,53,2.0,2.0,100,0.00,,CLR,0.00,VWS V14.01,2013-09-27 05:41:00,
2013-09-27 01:43:00,66.6,66.6,29.79,NNE,33,3.0,3.0,100,0.00,,CLR,0.00,VWS V14.01,2013-09-27 05:43:00,
2013-09-27 01:44:00,66.6,66.6,29.79,NNE,12,6.0,6.0,100,0.00,,CLR,0.00,VWS V14.01,2013-09-27 05:44:00,
2013-09-27 01:46:00,66.4,66.4,29.88,NNE,12,2.0,3.0,100,0.00,,CLR,0.00,VWS V14.01,2013-09-27 05:46:00,
2013-09-27 01:48:00,66.4,66.4,29.88,North,11,3.0,3.0,100,0.00,,CLR,0.00,VWS V14.01,2013-09-27 05:48:00,
2013-09-27 01:50:00,66.4,66.4,29.88,NW,321,5.0,5.0,100,0.00,,CLR,0.00,VWS V14.01,2013-09-27 05:50:00,
2013-09-27 01:51:00,66.4,66.4,29.88,North,5,3.0,3.0,100,0.00,,CLR,0.00,VWS V14.01,2013-09-27 05:51:00,
2013-09-27 01:52:00,66.4,66.4,29.88,North,355,3.0,7.0,100,0.00,,CLR,0.00,VWS V14.01,2013-09-27 05:52:00,
2013-09-27 01:53:00,66.4,66.4,29.88,North,349,4.0,4.0,100,0.00,,CLR,0.00,VWS V14.01,2013-09-27 05:53:00,
2013-09-27 01:56:00,66.4,66.4,29.83,NNE,13,3.0,4.0,100,0.00,,CLR,0.00,VWS V14.01,2013-09-27 05:56:00,
2013-09-27 01:57:00,66.4,66.4,29.88,NNE,12,4.0,5.0,100,0.00,,CLR,0.00,VWS V14.01,2013-09-27 05:57:00,
2013-09-27 01:59:00,66.4,66.4,29.83,NNE,15,4.0,4.0,100,0.00,,CLR,0.00,VWS V14.01,2013-09-27 05:59:00,
2013-09-27 02:00:00,66.4,66.4,29.83,ENE,58,3.0,4.0,100,0.00,,CLR,0.00,VWS V14.01,2013-09-27 06:00:00,
2013-09-27 02:01:00,66.4,66.4,29.83,NE,40,3.0,3.0,100,0.00,,CLR,0.00,VWS V14.01,2013-09-27 06:01:00,
2013-09-27 02:02:00,66.4,66.4,29.83,NE,40,3.0,4.0,100,0.00,,CLR,0.00,VWS V14.01,2013-09-27 06:02:00,
2013-09-27 02:04:00,66.4,66.4,29.63,ENE,59,1.0,2.0,100,0.00,,CLR,0.00,VWS V14.01,2013-09-27 06:04:00,
2013-09-27 02:05:00,66.4,66.4,29.63,ENE,59,3.0,3.0,100,0.00,,CLR,0.00,VWS V14.01,2013-09-27 06:05:00,
2013-09-27 02:06:00,66.4,66.4,29.63,NNE,32,2.0,3.0,100,0.00,,CLR,0.00,VWS V14.01,2013-09-27 06:06:00,
2013-09-27 02:08:00,66.4,66.4,29.63,NNE,32,0.0,3.0,100,0.00,,CLR,0.00,VWS V14.01,2013-09-27 06:08:00,
2013-09-27 02:10:00,66.4,66.4,29.62,NNE,30,1.0,5.0,100,0.00,,CLR,0.00,VWS V14.01,2013-09-27 06:10:00,
2013-09-27 02:11:00,66.4,66.4,29.62,NNE,13,3.0,4.0,100,0.00,,CLR,0.00,VWS V14.01,2013-09-27 06:11:00,
2013-09-27 02:12:00,66.4,66.4,29.62,NNW,331,2.0,4.0,100,0.00,,CLR,0.00,VWS V14.01,2013-09-27 06:12:00,
2013-09-27 02:14:00,66.4,66.4,29.62,NE,34,1.0,5.0,100,0.00,,CLR,0.00,VWS V14.01,2013-09-27 06:14:00,
2013-09-27 02:15:00,66.4,66.4,29.62,NNE,15,2.0,4.0,100,0.00,,CLR,0.00,VWS V14.01,2013-09-27 06:15:00,
2013-09-27 02:16:00,66.4,66.4,29.62,NNE,21,3.0,3.0,100,0.00,,CLR,0.00,VWS V14.01,2013-09-27 06:16:00,
2013-09-27 02:17:00,66.4,66.4,29.62,North,360,3.0,3.0,100,0.00,,CLR,0.00,VWS V14.01,2013-09-27 06:17:00,
2013-09-27 02:18:00,66.4,66.4,29.62,NNE,25,3.0,3.0,100,0.00,,CLR,0.00,VWS V14.01,2013-09-27 06:18:00,
2013-09-27 02:19:00,66.4,66.4,29.62,North,355,2.0,4.0,100,0.00,,CLR,0.00,VWS V14.01,2013-09-27 06:19:00,
2013-09-27 02:20:00,66.4,66.4,29.62,NNE,17,5.0,5.0,100,0.00,,CLR,0.00,VWS V14.01,2013-09-27 06:20:00,
2013-09-27 02:21:00,66.3,66.3,29.62,NE,41,3.0,3.0,100,0.00,,CLR,0.00,VWS V14.01,2013-09-27 06:21:00,
2013-09-27 02:23:00,66.3,66.3,29.62,North,5,3.0,5.0,100,0.00,,CLR,0.00,VWS V14.01,2013-09-27 06:23:00,
2013-09-27 02:26:00,66.3,66.3,29.76,NNW,327,3.0,3.0,100,0.00,,CLR,0.00,VWS V14.01,2013-09-27 06:26:00,
2013-09-27 02:28:00,66.3,66.3,29.76,NNE,16,3.0,4.0,100,0.00,,CLR,0.00,VWS V14.01,2013-09-27 06:28:00,
2013-09-27 02:29:00,66.3,66.3,29.76,NNE,19,1.0,5.0,100,0.00,,CLR,0.00,VWS V14.01,2013-09-27 06:29:00,
2013-09-27 02:30:00,66.3,66.3,29.76,NNE,31,3.0,3.0,100,0.00,,CLR,0.00,VWS V14.01,2013-09-27 06:30:00,
2013-09-27 02:31:00,66.3,66.3,29.83,NE,38,4.0,4.0,100,0.00,,CLR,0.00,VWS V14.01,2013-09-27 06:31:00,
2013-09-27 02:33:00,66.3,66.3,29.83,NE,35,3.0,4.0,100,0.00,,CLR,0.00,VWS V14.01,2013-09-27 06:33:00,
2013-09-27 02:36:00,66.3,66.3,29.84,North,355,5.0,5.0,100,0.00,,CLR,0.00,VWS V14.01,2013-09-27 06:36:00,
2013-09-27 02:37:00,66.3,66.3,29.84,NNE,15,3.0,5.0,100,0.00,,CLR,0.00,VWS V14.01,2013-09-27 06:37:00,
2013-09-27 02:38:00,66.3,66.3,29.84,NE,41,1.0,5.0,100,0.00,,CLR,0.00,VWS V14.01,2013-09-27 06:38:00,
2013-09-27 02:39:00,66.3,66.3,29.84,NE,48,4.0,6.0,100,0.00,,CLR,0.00,VWS V14.01,2013-09-27 06:39:00,
2013-09-27 02:40:00,66.3,66.3,29.87,NE,34,4.0,4.0,100,0.00,,CLR,0.00,VWS V14.01,2013-09-27 06:40:00,
2013-09-27 02:41:00,66.3,66.3,29.83,North,350,1.0,2.0,100,0.00,,CLR,0.00,VWS V14.01,2013-09-27 06:41:00,
2013-09-27 02:42:00,66.3,66.3,29.87,North,350,2.0,4.0,100,0.00,,CLR,0.00,VWS V14.01,2013-09-27 06:42:00,
2013-09-27 02:43:00,66.3,66.3,29.83,NE,38,2.0,4.0,100,0.00,,CLR,0.00,VWS V14.01,2013-09-27 06:43:00,
2013-09-27 02:44:00,66.3,66.3,29.83,NNE,32,2.0,4.0,100,0.00,,CLR,0.00,VWS V14.01,2013-09-27 06:44:00,
2013-09-27 02:45:00,66.4,66.4,29.92,North,355,1.0,3.0,100,0.00,,CLR,0.00,VWS V14.01,2013-09-27 06:45:00,
2013-09-27 02:46:00,66.4,66.4,29.87,North,355,2.0,2.0,100,0.00,,CLR,0.00,VWS V14.01,2013-09-27 06:46:00,
2013-09-27 02:47:00,66.4,66.4,29.87,North,355,1.0,3.0,100,0.00,,CLR,0.00,VWS V14.01,2013-09-27 06:47:00,
2013-09-27 02:48:00,66.4,66.4,29.87,North,355,1.0,2.0,100,0.00,,CLR,0.00,VWS V14.01,2013-09-27 06:48:00,
2013-09-27 02:49:00,66.4,66.4,29.87,North,349,4.0,4.0,100,0.00,,CLR,0.00,VWS V14.01,2013-09-27 06:49:00,
2013-09-27 02:50:00,66.4,66.4,29.87,NNE,32,5.0,5.0,100,0.00,,CLR,0.00,VWS V14.01,2013-09-27 06:50:00,
2013-09-27 02:51:00,66.4,66.4,29.87,North,355,4.0,6.0,100,0.00,,CLR,0.00,VWS V14.01,2013-09-27 06:51:00,
2013-09-27 02:52:00,66.4,66.4,29.87,NNW,332,6.0,6.0,100,0.00,,CLR,0.00,VWS V14.01,2013-09-27 06:52:00,
2013-09-27 02:53:00,66.4,66.4,29.87,NE,38,5.0,6.0,100,0.00,,CLR,0.00,VWS V14.01,2013-09-27 06:53:00,
2013-09-27 02:54:00,66.4,66.4,29.87,NNW,337,3.0,5.0,100,0.00,,CLR,0.00,VWS V14.01,2013-09-27 06:54:00,
2013-09-27 02:55:00,66.4,66.4,29.87,NE,36,4.0,6.0,100,0.00,,CLR,0.00,VWS V14.01,2013-09-27 06:55:00,
2013-09-27 02:56:00,66.4,66.4,29.87,NNW,330,1.0,1.0,100,0.00,,CLR,0.00,VWS V14.01,2013-09-27 06:56:00,
2013-09-27 02:57:00,66.4,66.4,29.87,NNW,330,1.0,2.0,100,0.00,,CLR,0.00,VWS V14.01,2013-09-27 06:57:00,
2013-09-27 02:58:00,66.4,66.4,29.87,NE,54,3.0,3.0,100,0.00,,CLR,0.00,VWS V14.01,2013-09-27 06:58:00,
2013-09-27 02:59:00,66.4,66.4,29.87,NNW,333,4.0,7.0,100,0.00,,CLR,0.00,VWS V14.01,2013-09-27 06:59:00,
2013-09-27 03:00:00,66.4,66.4,29.87,ENE,62,2.0,6.0,100,0.00,,CLR,0.00,VWS V14.01,2013-09-27 07:00:00,
2013-09-27 03:01:00,66.4,66.1,29.91,NNE,28,2.0,3.0,99,0.00,,CLR,0.00,VWS V14.01,2013-09-27 07:01:00,
2013-09-27 03:02:00,66.4,66.1,29.87,NE,34,3.0,4.0,99,0.00,,CLR,0.00,VWS V14.01,2013-09-27 07:02:00,
2013-09-27 03:03:00,66.4,66.1,29.91,North,360,3.0,3.0,99,0.00,,CLR,0.00,VWS V14.01,2013-09-27 07:03:00,
2013-09-27 03:04:00,66.4,66.1,29.91,NNE,22,2.0,4.0,99,0.00,,CLR,0.00,VWS V14.01,2013-09-27 07:04:00,
2013-09-27 03:05:00,66.4,66.1,29.91,NNE,20,4.0,6.0,99,0.00,,CLR,0.00,VWS V14.01,2013-09-27 07:05:00,
2013-09-27 03:06:00,66.4,66.1,29.91,NNE,26,5.0,5.0,99,0.00,,CLR,0.00,VWS V14.01,2013-09-27 07:06:00,
2013-09-27 03:07:00,66.4,66.1,29.91,NE,51,2.0,9.0,99,0.00,,CLR,0.00,VWS V14.01,2013-09-27 07:07:00,
2013-09-27 03:08:00,66.4,66.1,29.91,NNE,19,3.0,5.0,99,0.00,,CLR,0.00,VWS V14.01,2013-09-27 07:08:00,
2013-09-27 03:09:00,66.4,66.1,29.91,North,5,1.0,5.0,99,0.00,,CLR,0.00,VWS V14.01,2013-09-27 07:09:00,
2013-09-27 03:10:00,66.6,66.3,29.87,NNE,23,2.0,4.0,99,0.00,,CLR,0.00,VWS V14.01,2013-09-27 07:10:00,
2013-09-27 03:11:00,66.6,66.3,29.87,NE,35,2.0,3.0,99,0.00,,CLR,0.00,VWS V14.01,2013-09-27 07:11:00,
2013-09-27 03:12:00,66.6,66.3,29.87,NE,37,3.0,5.0,99,0.00,,CLR,0.00,VWS V14.01,2013-09-27 07:12:00,
2013-09-27 03:13:00,66.6,66.3,29.87,NE,34,5.0,5.0,99,0.00,,CLR,0.00,VWS V14.01,2013-09-27 07:13:00,
2013-09-27 03:14:00,66.6,66.3,29.87,NNE,32,3.0,5.0,99,0.00,,CLR,0.00,VWS V14.01,2013-09-27 07:14:00,
2013-09-27 03:15:00,66.6,66.3,29.87,NNW,341,4.0,7.0,99,0.00,,CLR,0.00,VWS V14.01,2013-09-27 07:15:00,
2013-09-27 03:16:00,66.8,66.2,29.83,North,5,3.0,5.0,98,0.00,,CLR,0.00,VWS V14.01,2013-09-27 07:16:00,
2013-09-27 03:17:00,66.8,66.2,29.83,North,5,5.0,9.0,98,0.00,,CLR,0.00,VWS V14.01,2013-09-27 07:17:00,
2013-09-27 03:18:00,66.8,66.2,29.83,NNW,339,2.0,5.0,98,0.00,,CLR,0.00,VWS V14.01,2013-09-27 07:18:00,
2013-09-27 03:19:00,66.8,66.2,29.83,NNW,347,2.0,4.0,98,0.00,,CLR,0.00,VWS V14.01,2013-09-27 07:19:00,
2013-09-27 03:20:00,66.8,66.2,29.83,NNE,32,5.0,6.0,98,0.00,,CLR,0.00,VWS V14.01,2013-09-27 07:20:00,
2013-09-27 03:21:00,66.9,66.3,29.83,NNW,338,4.0,5.0,98,0.00,,CLR,0.00,VWS V14.01,2013-09-27 07:21:00,
2013-09-27 03:22:00,66.9,66.3,29.83,NNW,338,5.0,6.0,98,0.00,,CLR,0.00,VWS V14.01,2013-09-27 07:22:00,
2013-09-27 03:23:00,66.9,66.3,29.83,NE,34,3.0,5.0,98,0.00,,CLR,0.00,VWS V14.01,2013-09-27 07:23:00,
2013-09-27 03:24:00,66.9,66.3,29.75,NNW,328,6.0,6.0,98,0.00,,CLR,0.00,VWS V14.01,2013-09-27 07:24:00,
2013-09-27 03:25:00,66.9,66.3,29.75,NE,53,5.0,6.0,98,0.00,,CLR,0.00,VWS V14.01,2013-09-27 07:25:00,
2013-09-27 03:26:00,66.9,66.3,29.65,North,360,3.0,3.0,98,0.00,,CLR,0.00,VWS V14.01,2013-09-27 07:26:00,
2013-09-27 03:27:00,66.9,66.3,29.65,North,360,3.0,5.0,98,0.00,,CLR,0.00,VWS V14.01,2013-09-27 07:27:00,
2013-09-27 03:28:00,66.9,66.3,29.65,North,355,2.0,4.0,98,0.00,,CLR,0.00,VWS V14.01,2013-09-27 07:28:00,
2013-09-27 03:29:00,66.9,66.3,29.65,North,360,4.0,4.0,98,0.00,,CLR,0.00,VWS V14.01,2013-09-27 07:29:00,
2013-09-27 03:30:00,66.9,66.3,29.78,NNW,329,3.0,4.0,98,0.00,,CLR,0.00,VWS V14.01,2013-09-27 07:30:00,
2013-09-27 03:31:00,66.9,66.3,29.78,North,5,3.0,3.0,98,0.00,,CLR,0.00,VWS V14.01,2013-09-27 07:31:00,
2013-09-27 03:32:00,66.9,66.3,29.78,North,360,3.0,6.0,98,0.00,,CLR,0.00,VWS V14.01,2013-09-27 07:32:00,
2013-09-27 03:33:00,66.9,66.3,29.78,NNW,341,3.0,3.0,98,0.00,,CLR,0.00,VWS V14.01,2013-09-27 07:33:00,
2013-09-27 03:34:00,66.8,66.2,29.83,East,84,3.0,6.0,98,0.00,,CLR,0.00,VWS V14.01,2013-09-27 07:34:00,
2013-09-27 03:35:00,66.8,66.2,29.83,North,349,5.0,5.0,98,0.00,,CLR,0.00,VWS V14.01,2013-09-27 07:35:00,
2013-09-27 03:36:00,66.8,66.2,29.83,North,5,3.0,6.0,98,0.00,,CLR,0.00,VWS V14.01,2013-09-27 07:36:00,
2013-09-27 03:37:00,66.8,66.2,29.83,NW,317,6.0,6.0,98,0.00,,CLR,0.00,VWS V14.01,2013-09-27 07:37:00,
2013-09-27 03:38:00,66.8,66.2,29.83,North,5,2.0,6.0,98,0.00,,CLR,0.00,VWS V14.01,2013-09-27 07:38:00,
2013-09-27 03:39:00,66.8,66.2,29.83,NNW,340,3.0,7.0,98,0.00,,CLR,0.00,VWS V14.01,2013-09-27 07:39:00,
2013-09-27 03:40:00,66.6,66.0,29.83,NNW,330,2.0,3.0,98,0.00,,CLR,0.00,VWS V14.01,2013-09-27 07:40:00,
2013-09-27 03:41:00,66.6,66.0,29.57,North,5,4.0,4.0,98,0.00,,CLR,0.00,VWS V14.01,2013-09-27 07:41:00,
2013-09-27 03:42:00,66.6,66.0,29.57,North,5,2.0,3.0,98,0.00,,CLR,0.00,VWS V14.01,2013-09-27 07:42:00,
2013-09-27 03:43:00,66.6,66.0,29.57,North,360,5.0,5.0,98,0.00,,CLR,0.00,VWS V14.01,2013-09-27 07:43:00,
2013-09-27 03:44:00,66.6,66.0,29.57,North,360,2.0,5.0,98,0.00,,CLR,0.00,VWS V14.01,2013-09-27 07:44:00,
2013-09-27 03:45:00,66.6,66.0,29.56,North,360,4.0,4.0,98,0.00,,CLR,0.00,VWS V14.01,2013-09-27 07:45:00,
2013-09-27 03:46:00,66.4,65.8,29.56,NE,41,4.0,4.0,98,0.00,,CLR,0.00,VWS V14.01,2013-09-27 07:46:00,
2013-09-27 03:47:00,66.4,65.8,29.56,North,349,2.0,6.0,98,0.00,,CLR,0.00,VWS V14.01,2013-09-27 07:47:00,
2013-09-27 03:48:00,66.4,65.8,29.56,NNW,344,3.0,8.0,98,0.00,,CLR,0.00,VWS V14.01,2013-09-27 07:48:00,
2013-09-27 03:49:00,66.4,65.8,29.56,NNE,32,4.0,6.0,98,0.00,,CLR,0.00,VWS V14.01,2013-09-27 07:49:00,
2013-09-27 03:50:00,66.4,65.8,29.56,North,360,5.0,6.0,98,0.00,,CLR,0.00,VWS V14.01,2013-09-27 07:50:00,
2013-09-27 03:51:00,66.4,65.8,29.61,NNE,18,4.0,5.0,98,0.00,,CLR,0.00,VWS V14.01,2013-09-27 07:51:00,
2013-09-27 03:52:00,66.4,65.8,29.61,NNE,13,2.0,6.0,98,0.00,,CLR,0.00,VWS V14.01,2013-09-27 07:52:00,
2013-09-27 03:53:00,66.4,65.8,29.61,NE,38,4.0,4.0,98,0.00,,CLR,0.00,VWS V14.01,2013-09-27 07:53:00,
2013-09-27 03:54:00,66.4,65.8,29.61,NNW,348,3.0,4.0,98,0.00,,CLR,0.00,VWS V14.01,2013-09-27 07:54:00,
2013-09-27 03:55:00,66.4,65.8,29.61,NNW,348,1.0,4.0,98,0.00,,CLR,0.00,VWS V14.01,2013-09-27 07:55:00,
2013-09-27 03:56:00,66.4,66.1,29.61,NNW,346,4.0,4.0,99,0.00,,CLR,0.00,VWS V14.01,2013-09-27 07:56:00,
2013-09-27 03:57:00,66.4,66.1,29.61,NNE,31,3.0,4.0,99,0.00,,CLR,0.00,VWS V14.01,2013-09-27 07:57:00,
2013-09-27 03:58:00,66.4,66.1,29.57,North,355,2.0,5.0,99,0.00,,CLR,0.00,VWS V14.01,2013-09-27 07:58:00,
2013-09-27 03:59:00,66.4,66.1,29.57,NE,34,2.0,5.0,99,0.00,,CLR,0.00,VWS V14.01,2013-09-27 07:59:00,
2013-09-27 04:00:00,66.4,66.1,29.57,NE,34,2.0,5.0,99,0.00,,CLR,0.00,VWS V14.01,2013-09-27 08:00:00,
2013-09-27 04:01:00,66.4,66.1,29.57,NW,311,4.0,4.0,99,0.00,,CLR,0.00,VWS V14.01,2013-09-27 08:01:00,
2013-09-27 04:02:00,66.4,66.1,29.57,NNW,337,4.0,5.0,99,0.00,,CLR,0.00,VWS V14.01,2013-09-27 08:02:00,
2013-09-27 04:03:00,66.4,66.1,29.57,North,9,3.0,5.0,99,0.00,,CLR,0.00,VWS V14.01,2013-09-27 08:03:00,
2013-09-27 04:04:00,66.4,66.1,29.61,NNW,344,1.0,6.0,99,0.00,,CLR,0.00,VWS V14.01,2013-09-27 08:04:00,
2013-09-27 04:05:00,66.4,66.1,29.61,NNW,344,1.0,6.0,99,0.00,,CLR,0.00,VWS V14.01,2013-09-27 08:05:00,
2013-09-27 04:06:00,66.4,66.1,29.61,NNW,340,4.0,5.0,99,0.00,,CLR,0.00,VWS V14.01,2013-09-27 08:06:00,
2013-09-27 04:07:00,66.4,66.1,29.57,NNE,12,2.0,5.0,99,0.00,,CLR,0.00,VWS V14.01,2013-09-27 08:07:00,
2013-09-27 04:08:00,66.4,66.1,29.56,North,355,1.0,4.0,99,0.00,,CLR,0.00,VWS V14.01,2013-09-27 08:08:00,
2013-09-27 04:09:00,66.4,66.1,29.57,North,5,2.0,7.0,99,0.00,,CLR,0.00,VWS V14.01,2013-09-27 08:09:00,
2013-09-27 04:10:00,66.4,66.1,29.57,North,5,2.0,7.0,99,0.00,,CLR,0.00,VWS V14.01,2013-09-27 08:10:00,
2013-09-27 04:11:00,66.4,66.1,29.57,NNE,18,5.0,9.0,99,0.00,,CLR,0.00,VWS V14.01,2013-09-27 08:11:00,
2013-09-27 04:12:00,66.4,66.1,29.57,North,350,2.0,6.0,99,0.00,,CLR,0.00,VWS V14.01,2013-09-27 08:12:00,
2013-09-27 04:13:00,66.3,66.0,29.57,North,355,3.0,7.0,99,0.00,,CLR,0.00,VWS V14.01,2013-09-27 08:13:00,
2013-09-27 04:14:00,66.3,66.0,29.57,North,5,1.0,2.0,99,0.00,,CLR,0.00,VWS V14.01,2013-09-27 08:14:00,
2013-09-27 04:15:00,66.3,66.0,29.57,North,5,2.0,2.0,99,0.00,,CLR,0.00,VWS V14.01,2013-09-27 08:15:00,
2013-09-27 04:16:00,66.3,66.0,29.57,North,355,4.0,5.0,99,0.00,,CLR,0.00,VWS V14.01,2013-09-27 08:16:00,
2013-09-27 04:17:00,66.3,66.0,29.57,North,360,8.0,8.0,99,0.00,,CLR,0.00,VWS V14.01,2013-09-27 08:17:00,
2013-09-27 04:18:00,66.3,66.0,29.57,NNE,19,3.0,8.0,99,0.00,,CLR,0.00,VWS V14.01,2013-09-27 08:18:00,
2013-09-27 04:19:00,66.3,66.0,29.57,NW,311,2.0,6.0,99,0.00,,CLR,0.00,VWS V14.01,2013-09-27 08:19:00,
2013-09-27 04:20:00,66.3,66.0,29.57,North,349,4.0,6.0,99,0.00,,CLR,0.00,VWS V14.01,2013-09-27 08:20:00,
2013-09-27 04:21:00,66.3,66.0,29.57,NE,38,3.0,6.0,99,0.00,,CLR,0.00,VWS V14.01,2013-09-27 08:21:00,
2013-09-27 04:22:00,66.3,66.0,29.57,NNE,28,3.0,5.0,99,0.00,,CLR,0.00,VWS V14.01,2013-09-27 08:22:00,
2013-09-27 04:23:00,66.3,66.0,29.57,North,9,3.0,4.0,99,0.00,,CLR,0.00,VWS V14.01,2013-09-27 08:23:00,
2013-09-27 04:24:00,66.3,66.0,29.57,NE,39,3.0,3.0,99,0.00,,CLR,0.00,VWS V14.01,2013-09-27 08:24:00,
2013-09-27 04:25:00,66.3,66.0,29.57,NNE,23,4.0,4.0,99,0.00,,CLR,0.00,VWS V14.01,2013-09-27 08:25:00,
2013-09-27 04:26:00,66.3,66.0,29.57,NNE,24,3.0,5.0,99,0.00,,CLR,0.00,VWS V14.01,2013-09-27 08:26:00,
2013-09-27 04:27:00,66.1,65.8,29.57,NE,42,1.0,7.0,99,0.00,,CLR,0.00,VWS V14.01,2013-09-27 08:27:00,
2013-09-27 04:28:00,66.1,65.8,29.57,NNE,32,2.0,4.0,99,0.00,,CLR,0.00,VWS V14.01,2013-09-27 08:28:00,
2013-09-27 04:29:00,66.1,65.8,29.57,North,355,3.0,4.0,99,0.00,,CLR,0.00,VWS V14.01,2013-09-27 08:29:00,
2013-09-27 04:30:00,66.1,65.8,29.57,North,355,1.0,4.0,99,0.00,,CLR,0.00,VWS V14.01,2013-09-27 08:30:00,
2013-09-27 04:31:00,66.1,65.8,29.57,North,5,4.0,4.0,99,0.00,,CLR,0.00,VWS V14.01,2013-09-27 08:31:00,
2013-09-27 04:32:00,66.1,65.8,29.57,NE,34,3.0,6.0,99,0.00,,CLR,0.00,VWS V14.01,2013-09-27 08:32:00,
2013-09-27 04:33:00,66.1,65.8,29.57,NW,317,4.0,5.0,99,0.00,,CLR,0.00,VWS V14.01,2013-09-27 08:33:00,
2013-09-27 04:34:00,66.1,65.8,29.57,North,5,4.0,4.0,99,0.00,,CLR,0.00,VWS V14.01,2013-09-27 08:34:00,
2013-09-27 04:35:00,66.1,65.8,29.57,NNW,336,3.0,4.0,99,0.00,,CLR,0.00,VWS V14.01,2013-09-27 08:35:00,
2013-09-27 04:36:00,66.1,65.8,29.57,North,5,5.0,7.0,99,0.00,,CLR,0.00,VWS V14.01,2013-09-27 08:36:00,
2013-09-27 04:37:00,66.1,65.8,29.57,NNW,346,6.0,6.0,99,0.00,,CLR,0.00,VWS V14.01,2013-09-27 08:37:00,
2013-09-27 04:38:00,66.1,66.1,29.57,North,350,3.0,6.0,100,0.00,,CLR,0.00,VWS V14.01,2013-09-27 08:38:00,
2013-09-27 04:39:00,66.1,66.1,29.57,NNW,346,3.0,4.0,100,0.00,,CLR,0.00,VWS V14.01,2013-09-27 08:39:00,
2013-09-27 04:40:00,66.1,66.1,29.57,NNE,22,2.0,4.0,100,0.00,,CLR,0.00,VWS V14.01,2013-09-27 08:40:00,
2013-09-27 04:41:00,66.1,66.1,29.57,NW,321,6.0,6.0,100,0.00,,CLR,0.00,VWS V14.01,2013-09-27 08:41:00,
2013-09-27 04:42:00,66.1,66.1,29.57,NNW,343,4.0,6.0,100,0.00,,CLR,0.00,VWS V14.01,2013-09-27 08:42:00,
2013-09-27 04:43:00,66.1,66.1,29.56,North,5,5.0,5.0,100,0.00,,CLR,0.00,VWS V14.01,2013-09-27 08:43:00,
2013-09-27 04:44:00,66.0,66.0,29.57,NE,35,4.0,5.0,100,0.00,,CLR,0.00,VWS V14.01,2013-09-27 08:44:00,
2013-09-27 04:45:00,66.0,66.0,29.57,NE,35,4.0,5.0,100,0.00,,CLR,0.00,VWS V14.01,2013-09-27 08:45:00,
2013-09-27 04:46:00,66.0,66.0,29.56,North,5,4.0,4.0,100,0.00,,CLR,0.00,VWS V14.01,2013-09-27 08:46:00,
2013-09-27 04:47:00,66.0,66.0,29.57,North,9,2.0,4.0,100,0.00,,CLR,0.00,VWS V14.01,2013-09-27 08:47:00,
2013-09-27 04:48:00,66.0,66.0,29.57,North,350,5.0,9.0,100,0.00,,CLR,0.00,VWS V14.01,2013-09-27 08:48:00,
2013-09-27 04:49:00,66.0,66.0,29.61,NNE,33,4.0,6.0,100,0.00,,CLR,0.00,VWS V14.01,2013-09-27 08:49:00,
2013-09-27 04:50:00,66.0,66.0,29.61,North,355,4.0,6.0,100,0.00,,CLR,0.00,VWS V14.01,2013-09-27 08:50:00,
2013-09-27 04:51:00,66.0,66.0,29.61,North,355,4.0,4.0,100,0.00,,CLR,0.00,VWS V14.01,2013-09-27 08:51:00,
2013-09-27 04:52:00,66.0,66.0,29.61,NW,313,3.0,4.0,100,0.00,,CLR,0.00,VWS V14.01,2013-09-27 08:52:00,
2013-09-27 04:53:00,66.0,66.0,29.61,North,11,5.0,5.0,100,0.00,,CLR,0.00,VWS V14.01,2013-09-27 08:53:00,
2013-09-27 04:54:00,66.0,66.0,29.66,North,10,2.0,3.0,100,0.00,,CLR,0.00,VWS V14.01,2013-09-27 08:54:00,
2013-09-27 04:55:00,66.0,66.0,29.66,NNW,345,4.0,4.0,100,0.00,,CLR,0.00,VWS V14.01,2013-09-27 08:55:00,
2013-09-27 04:56:00,66.0,66.0,29.70,North,355,3.0,5.0,100,0.00,,CLR,0.00,VWS V14.01,2013-09-27 08:56:00,
2013-09-27 04:57:00,66.0,66.0,29.70,NNE,13,3.0,4.0,100,0.00,,CLR,0.00,VWS V14.01,2013-09-27 08:57:00,
2013-09-27 04:58:00,66.0,66.0,29.70,NNW,344,5.0,5.0,100,0.00,,CLR,0.00,VWS V14.01,2013-09-27 08:58:00,
2013-09-27 04:59:00,66.0,66.0,29.83,NNW,344,4.0,5.0,100,0.00,,CLR,0.00,VWS V14.01,2013-09-27 08:59:00,
2013-09-27 05:00:00,66.0,66.0,29.83,NE,46,3.0,5.0,100,0.00,,CLR,0.00,VWS V14.01,2013-09-27 09:00:00,
2013-09-27 05:01:00,66.0,66.0,29.83,North,5,3.0,6.0,100,0.00,,CLR,0.00,VWS V14.01,2013-09-27 09:01:00,
2013-09-27 05:02:00,66.0,66.0,29.92,NE,34,3.0,5.0,100,0.00,,CLR,0.00,VWS V14.01,2013-09-27 09:02:00,
2013-09-27 05:03:00,66.0,66.0,29.92,North,355,5.0,6.0,100,0.00,,CLR,0.00,VWS V14.01,2013-09-27 09:03:00,
2013-09-27 05:04:00,66.0,66.0,29.92,NNW,333,3.0,6.0,100,0.00,,CLR,0.00,VWS V14.01,2013-09-27 09:04:00,
2013-09-27 05:05:00,66.0,66.0,29.92,NNW,335,2.0,6.0,100,0.00,,CLR,0.00,VWS V14.01,2013-09-27 09:05:00,
2013-09-27 05:06:00,66.0,66.0,29.92,NNE,20,2.0,3.0,100,0.00,,CLR,0.00,VWS V14.01,2013-09-27 09:06:00,
2013-09-27 05:07:00,66.0,66.0,29.92,NNE,14,4.0,6.0,100,0.00,,CLR,0.00,VWS V14.01,2013-09-27 09:07:00,
2013-09-27 05:08:00,66.0,66.0,29.92,North,355,5.0,5.0,100,0.00,,CLR,0.00,VWS V14.01,2013-09-27 09:08:00,
2013-09-27 05:09:00,66.0,66.0,29.91,North,355,3.0,3.0,100,0.00,,CLR,0.00,VWS V14.01,2013-09-27 09:09:00,
2013-09-27 05:10:00,66.0,66.0,29.91,North,355,2.0,3.0,100,0.00,,CLR,0.00,VWS V14.01,2013-09-27 09:10:00,
2013-09-27 05:11:00,66.0,66.0,29.92,North,355,2.0,3.0,100,0.00,,CLR,0.00,VWS V14.01,2013-09-27 09:11:00,
2013-09-27 05:12:00,65.8,65.8,29.92,NE,36,2.0,4.0,100,0.00,,CLR,0.00,VWS V14.01,2013-09-27 09:12:00,
2013-09-27 05:13:00,65.8,65.8,29.92,NNW,338,5.0,5.0,100,0.00,,CLR,0.00,VWS V14.01,2013-09-27 09:13:00,
2013-09-27 05:14:00,65.8,65.8,29.92,NNE,13,4.0,5.0,100,0.00,,CLR,0.00,VWS V14.01,2013-09-27 09:14:00,
2013-09-27 05:15:00,65.8,65.8,29.92,North,5,3.0,5.0,100,0.00,,CLR,0.00,VWS V14.01,2013-09-27 09:15:00,
2013-09-27 05:16:00,65.8,65.8,29.92,North,5,0.0,3.0,100,0.00,,CLR,0.00,VWS V14.01,2013-09-27 09:16:00,
2013-09-27 05:17:00,65.8,65.8,29.92,North,355,3.0,5.0,100,0.00,,CLR,0.00,VWS V14.01,2013-09-27 09:17:00,
2013-09-27 05:18:00,65.8,65.8,29.92,NNE,13,5.0,5.0,100,0.00,,CLR,0.00,VWS V14.01,2013-09-27 09:18:00,
2013-09-27 05:19:00,65.8,65.8,29.92,North,5,4.0,5.0,100,0.00,,CLR,0.00,VWS V14.01,2013-09-27 09:19:00,
2013-09-27 05:20:00,65.8,65.8,29.92,North,5,2.0,5.0,100,0.00,,CLR,0.00,VWS V14.01,2013-09-27 09:20:00,
2013-09-27 05:21:00,65.8,65.8,29.92,ENE,63,3.0,4.0,100,0.00,,CLR,0.00,VWS V14.01,2013-09-27 09:21:00,
2013-09-27 05:22:00,65.8,65.8,29.92,NE,37,3.0,5.0,100,0.00,,CLR,0.00,VWS V14.01,2013-09-27 09:22:00,
2013-09-27 05:23:00,65.6,65.6,29.92,North,5,3.0,4.0,100,0.00,,CLR,0.00,VWS V14.01,2013-09-27 09:23:00,
2013-09-27 05:24:00,65.6,65.6,29.92,North,360,2.0,4.0,100,0.00,,CLR,0.00,VWS V14.01,2013-09-27 09:24:00,
2013-09-27 05:25:00,65.6,65.6,29.92,NNW,346,3.0,4.0,100,0.00,,CLR,0.00,VWS V14.01,2013-09-27 09:25:00,
2013-09-27 05:26:00,65.6,65.6,29.92,NNE,15,3.0,3.0,100,0.00,,CLR,0.00,VWS V14.01,2013-09-27 09:26:00,
2013-09-27 05:27:00,65.6,65.6,29.92,North,5,2.0,7.0,100,0.00,,CLR,0.00,VWS V14.01,2013-09-27 09:27:00,
2013-09-27 05:28:00,65.6,65.6,29.92,NNW,342,3.0,5.0,100,0.00,,CLR,0.00,VWS V14.01,2013-09-27 09:28:00,
2013-09-27 05:29:00,65.6,65.6,29.92,NE,44,4.0,4.0,100,0.00,,CLR,0.00,VWS V14.01,2013-09-27 09:29:00,
2013-09-27 05:30:00,65.6,65.6,29.92,NE,44,3.0,4.0,100,0.00,,CLR,0.00,VWS V14.01,2013-09-27 09:30:00,
2013-09-27 05:31:00,65.6,65.6,29.92,North,355,2.0,4.0,100,0.00,,CLR,0.00,VWS V14.01,2013-09-27 09:31:00,
2013-09-27 05:32:00,65.6,65.6,29.92,North,355,5.0,5.0,100,0.00,,CLR,0.00,VWS V14.01,2013-09-27 09:32:00,
2013-09-27 05:33:00,65.6,65.6,29.92,ENE,57,3.0,5.0,100,0.00,,CLR,0.00,VWS V14.01,2013-09-27 09:33:00,
2013-09-27 05:34:00,65.6,65.6,29.88,NNE,26,4.0,7.0,100,0.00,,CLR,0.00,VWS V14.01,2013-09-27 09:34:00,
2013-09-27 05:35:00,65.6,65.6,29.88,NNE,26,3.0,7.0,100,0.00,,CLR,0.00,VWS V14.01,2013-09-27 09:35:00,
2013-09-27 05:36:00,65.6,65.6,29.88,North,5,3.0,4.0,100,0.00,,CLR,0.00,VWS V14.01,2013-09-27 09:36:00,
2013-09-27 05:37:00,65.6,65.6,29.93,North,355,1.0,3.0,100,0.00,,CLR,0.00,VWS V14.01,2013-09-27 09:37:00,
2013-09-27 05:38:00,65.6,65.6,29.93,North,5,2.0,5.0,100,0.00,,CLR,0.00,VWS V14.01,2013-09-27 09:38:00,
2013-09-27 05:39:00,65.6,65.6,29.93,North,11,5.0,5.0,100,0.00,,CLR,0.00,VWS V14.01,2013-09-27 09:39:00,
2013-09-27 05:40:00,65.6,65.6,29.93,NNE,17,3.0,5.0,100,0.00,,CLR,0.00,VWS V14.01,2013-09-27 09:40:00,
2013-09-27 05:41:00,65.6,65.6,29.93,NNE,17,4.0,5.0,100,0.00,,CLR,0.00,VWS V14.01,2013-09-27 09:41:00,
2013-09-27 05:42:00,65.6,65.6,29.74,NE,40,3.0,10.0,100,0.00,,CLR,0.00,VWS V14.01,2013-09-27 09:42:00,
2013-09-27 05:43:00,65.6,65.6,29.74,NE,38,4.0,5.0,100,0.00,,CLR,0.00,VWS V14.01,2013-09-27 09:43:00,
2013-09-27 05:44:00,65.6,65.6,29.74,North,355,6.0,6.0,100,0.00,,CLR,0.00,VWS V14.01,2013-09-27 09:44:00,
2013-09-27 05:45:00,65.6,65.6,29.74,North,355,4.0,6.0,100,0.00,,CLR,0.00,VWS V14.01,2013-09-27 09:45:00,
2013-09-27 05:46:00,65.6,65.6,29.74,North,9,2.0,4.0,100,0.00,,CLR,0.00,VWS V14.01,2013-09-27 09:46:00,
2013-09-27 05:47:00,65.6,65.6,29.74,NNW,339,3.0,4.0,100,0.00,,CLR,0.00,VWS V14.01,2013-09-27 09:47:00,
2013-09-27 05:48:00,65.6,65.6,29.74,North,360,4.0,4.0,100,0.00,,CLR,0.00,VWS V14.01,2013-09-27 09:48:00,
2013-09-27 05:49:00,65.6,65.6,29.74,NW,323,5.0,6.0,100,0.00,,CLR,0.00,VWS V14.01,2013-09-27 09:49:00,
2013-09-27 05:50:00,65.6,65.6,29.74,NNW,331,5.0,6.0,100,0.00,,CLR,0.00,VWS V14.01,2013-09-27 09:50:00,
2013-09-27 05:51:00,65.6,65.6,29.74,NNE,30,6.0,7.0,100,0.00,,CLR,0.00,VWS V14.01,2013-09-27 09:51:00,
2013-09-27 05:52:00,65.6,65.6,29.58,NNW,341,4.0,9.0,100,0.00,,CLR,0.00,VWS V14.01,2013-09-27 09:52:00,
2013-09-27 05:53:00,65.6,65.6,29.58,North,5,4.0,7.0,100,0.00,,CLR,0.00,VWS V14.01,2013-09-27 09:53:00,
2013-09-27 05:54:00,65.6,65.6,29.58,NE,39,5.0,7.0,100,0.00,,CLR,0.00,VWS V14.01,2013-09-27 09:54:00,
2013-09-27 05:55:00,65.6,65.6,29.58,North,360,4.0,7.0,100,0.00,,CLR,0.00,VWS V14.01,2013-09-27 09:55:00,
2013-09-27 05:56:00,65.6,65.6,29.58,North,355,4.0,4.0,100,0.00,,CLR,0.00,VWS V14.01,2013-09-27 09:56:00,
2013-09-27 05:57:00,65.6,65.6,29.67,NE,47,3.0,6.0,100,0.00,,CLR,0.00,VWS V14.01,2013-09-27 09:57:00,
2013-09-27 05:58:00,65.6,65.6,29.67,NE,53,2.0,3.0,100,0.00,,CLR,0.00,VWS V14.01,2013-09-27 09:58:00,
2013-09-27 05:59:00,65.6,65.6,29.67,NE,56,3.0,6.0,100,0.00,,CLR,0.00,VWS V14.01,2013-09-27 09:59:00,
2013-09-27 06:00:00,65.6,65.6,29.67,NE,36,2.0,3.0,100,0.00,,CLR,0.00,VWS V14.01,2013-09-27 10:00:00,
2013-09-27 06:01:00,65.6,65.6,29.67,NNW,339,6.0,6.0,100,0.00,,CLR,0.00,VWS V14.01,2013-09-27 10:01:00,
2013-09-27 06:02:00,65.6,65.6,29.72,NE,36,3.0,6.0,100,0.00,,CLR,0.00,VWS V14.01,2013-09-27 10:02:00,
2013-09-27 06:03:00,65.6,65.6,29.72,NNE,19,6.0,6.0,100,0.00,,CLR,0.00,VWS V14.01,2013-09-27 10:03:00,
2013-09-27 06:04:00,65.6,65.6,29.72,NNE,24,4.0,4.0,100,0.00,,CLR,0.00,VWS V14.01,2013-09-27 10:04:00,
2013-09-27 06:05:00,65.6,65.6,29.72,NNE,25,1.0,6.0,100,0.00,,CLR,0.00,VWS V14.01,2013-09-27 10:05:00,
2013-09-27 06:06:00,65.5,65.5,29.72,NW,320,6.0,7.0,100,0.00,,CLR,0.00,VWS V14.01,2013-09-27 10:06:00,
2013-09-27 06:07:00,65.5,65.5,29.72,NNW,343,5.0,6.0,100,0.00,,CLR,0.00,VWS V14.01,2013-09-27 10:07:00,
2013-09-27 06:08:00,65.5,65.5,29.68,NNW,340,5.0,6.0,100,0.00,,CLR,0.00,VWS V14.01,2013-09-27 10:08:00,
2013-09-27 06:09:00,65.5,65.5,29.68,NNW,342,6.0,6.0,100,0.00,,CLR,0.00,VWS V14.01,2013-09-27 10:09:00,
2013-09-27 06:10:00,65.5,65.5,29.68,NNW,342,2.0,6.0,100,0.00,,CLR,0.00,VWS V14.01,2013-09-27 10:10:00,
2013-09-27 06:11:00,65.5,65.5,29.68,North,9,3.0,5.0,100,0.00,,CLR,0.00,VWS V14.01,2013-09-27 10:11:00,
2013-09-27 06:12:00,65.5,65.5,29.72,NNW,347,6.0,6.0,100,0.00,,CLR,0.00,VWS V14.01,2013-09-27 10:12:00,
2013-09-27 06:13:00,65.5,65.5,29.72,NNE,29,4.0,5.0,100,0.00,,CLR,0.00,VWS V14.01,2013-09-27 10:13:00,
2013-09-27 06:14:00,65.5,65.5,29.72,NNE,29,4.0,4.0,100,0.00,,CLR,0.00,VWS V14.01,2013-09-27 10:14:00,
2013-09-27 06:15:00,65.5,65.5,29.72,North,360,9.0,9.0,100,0.00,,CLR,0.00,VWS V14.01,2013-09-27 10:15:00,
2013-09-27 06:16:00,65.5,65.5,29.72,NE,50,5.0,9.0,100,0.00,,CLR,0.00,VWS V14.01,2013-09-27 10:16:00,
2013-09-27 06:17:00,65.5,65.5,29.72,NW,319,5.0,5.0,100,0.00,,CLR,0.00,VWS V14.01,2013-09-27 10:17:00,
2013-09-27 06:18:00,65.5,65.5,29.59,NNW,344,5.0,6.0,100,0.00,,CLR,0.00,VWS V14.01,2013-09-27 10:18:00,
2013-09-27 06:19:00,65.5,65.5,29.59,North,350,3.0,6.0,100,0.00,,CLR,0.00,VWS V14.01,2013-09-27 10:19:00,
2013-09-27 06:20:00,65.5,65.5,29.59,NNW,330,6.0,6.0,100,0.00,,CLR,0.00,VWS V14.01,2013-09-27 10:20:00,
2013-09-27 06:21:00,65.5,65.5,29.59,NNW,336,6.0,6.0,100,0.00,,CLR,0.00,VWS V14.01,2013-09-27 10:21:00,
2013-09-27 06:22:00,65.5,65.5,29.70,NNW,344,5.0,9.0,100,0.00,,CLR,0.00,VWS V14.01,2013-09-27 10:22:00,
2013-09-27 06:23:00,65.3,65.3,29.82,North,5,5.0,5.0,100,0.00,,CLR,0.00,VWS V14.01,2013-09-27 10:23:00,
2013-09-27 06:24:00,65.3,65.3,29.70,NNW,330,3.0,6.0,100,0.00,,CLR,0.00,VWS V14.01,2013-09-27 10:24:00,
2013-09-27 06:25:00,65.3,65.3,29.82,NNW,334,6.0,6.0,100,0.00,,CLR,0.00,VWS V14.01,2013-09-27 10:25:00,
2013-09-27 06:26:00,65.3,65.3,29.82,NNW,329,9.0,9.0,100,0.00,,CLR,0.00,VWS V14.01,2013-09-27 10:26:00,
2013-09-27 06:27:00,65.3,65.3,29.82,NNW,338,3.0,9.0,100,0.00,,CLR,0.00,VWS V14.01,2013-09-27 10:27:00,
2013-09-27 06:28:00,65.2,65.2,29.82,NNE,22,2.0,3.0,100,0.00,,CLR,0.00,VWS V14.01,2013-09-27 10:28:00,
2013-09-27 06:29:00,65.2,65.2,29.82,NNW,331,3.0,9.0,100,0.00,,CLR,0.00,VWS V14.01,2013-09-27 10:29:00,
2013-09-27 06:30:00,65.2,65.2,29.82,North,5,4.0,4.0,100,0.00,,CLR,0.00,VWS V14.01,2013-09-27 10:30:00,
2013-09-27 06:31:00,65.2,65.2,29.82,NE,42,5.0,7.0,100,0.00,,CLR,0.00,VWS V14.01,2013-09-27 10:31:00,
2013-09-27 06:32:00,65.2,65.2,29.82,NNE,13,6.0,9.0,100,0.00,,CLR,0.00,VWS V14.01,2013-09-27 10:32:00,
2013-09-27 06:33:00,65.0,65.0,29.68,NNE,29,3.0,8.0,100,0.00,,CLR,0.00,VWS V14.01,2013-09-27 10:33:00,
2013-09-27 06:34:00,65.0,65.0,29.68,NNE,24,2.0,6.0,100,0.00,,CLR,0.00,VWS V14.01,2013-09-27 10:34:00,
2013-09-27 06:35:00,65.0,65.0,29.68,NE,42,5.0,8.0,100,0.00,,CLR,0.00,VWS V14.01,2013-09-27 10:35:00,
2013-09-27 06:36:00,65.0,65.0,29.68,NNW,348,5.0,5.0,100,0.00,,CLR,0.00,VWS V14.01,2013-09-27 10:36:00,
2013-09-27 06:37:00,65.0,65.0,29.68,NE,49,5.0,7.0,100,0.00,,CLR,0.00,VWS V14.01,2013-09-27 10:37:00,
2013-09-27 06:38:00,65.0,65.0,29.73,NNE,32,3.0,6.0,100,0.00,,CLR,0.00,VWS V14.01,2013-09-27 10:38:00,
2013-09-27 06:39:00,65.0,65.0,29.73,NNW,340,6.0,10.0,100,0.00,,CLR,0.00,VWS V14.01,2013-09-27 10:39:00,
2013-09-27 06:40:00,65.0,65.0,29.73,NNE,32,3.0,6.0,100,0.00,,CLR,0.00,VWS V14.01,2013-09-27 10:40:00,
2013-09-27 06:41:00,64.8,64.8,29.68,North,355,5.0,6.0,100,0.00,,CLR,0.00,VWS V14.01,2013-09-27 10:41:00,
2013-09-27 06:42:00,64.8,64.8,29.68,NE,40,4.0,6.0,100,0.00,,CLR,0.00,VWS V14.01,2013-09-27 10:42:00,
2013-09-27 06:43:00,64.8,64.8,29.64,North,349,2.0,5.0,100,0.00,,CLR,0.00,VWS V14.01,2013-09-27 10:43:00,
2013-09-27 06:44:00,64.8,64.8,29.68,North,360,3.0,6.0,100,0.00,,CLR,0.00,VWS V14.01,2013-09-27 10:44:00,
2013-09-27 06:45:00,64.8,64.8,29.64,NNW,337,6.0,6.0,100,0.00,,CLR,0.00,VWS V14.01,2013-09-27 10:45:00,
2013-09-27 06:46:00,64.8,64.8,29.64,NNW,328,7.0,7.0,100,0.00,,CLR,0.00,VWS V14.01,2013-09-27 10:46:00,
2013-09-27 06:47:00,64.8,64.8,29.64,NNE,25,6.0,7.0,100,0.00,,CLR,0.00,VWS V14.01,2013-09-27 10:47:00,
2013-09-27 06:48:00,64.7,64.7,29.73,North,11,3.0,6.0,100,0.00,,CLR,0.00,VWS V14.01,2013-09-27 10:48:00,
2013-09-27 06:49:00,64.7,64.7,29.73,NNE,24,3.0,11.0,100,0.00,,CLR,0.00,VWS V14.01,2013-09-27 10:49:00,
2013-09-27 06:50:00,64.7,64.7,29.73,NW,323,5.0,6.0,100,0.00,,CLR,0.00,VWS V14.01,2013-09-27 10:50:00,
2013-09-27 06:51:00,64.7,64.7,29.73,North,360,4.0,7.0,100,0.00,,CLR,0.00,VWS V14.01,2013-09-27 10:51:00,
2013-09-27 06:52:00,64.7,64.7,29.73,North,11,4.0,7.0,100,0.00,,CLR,0.00,VWS V14.01,2013-09-27 10:52:00,
2013-09-27 06:53:00,64.7,64.7,29.89,North,355,4.0,5.0,100,0.00,,CLR,0.00,VWS V14.01,2013-09-27 10:53:00,
2013-09-27 06:54:00,64.7,64.7,29.89,NNW,339,3.0,5.0,100,0.00,,CLR,0.00,VWS V14.01,2013-09-27 10:54:00,
2013-09-27 06:55:00,64.7,64.7,29.89,NNE,32,5.0,5.0,100,0.00,,CLR,0.00,VWS V14.01,2013-09-27 10:55:00,
2013-09-27 06:56:00,64.7,64.7,29.89,North,355,5.0,6.0,100,0.00,,CLR,0.00,VWS V14.01,2013-09-27 10:56:00,
2013-09-27 06:57:00,64.5,64.5,29.89,NNW,329,5.0,6.0,100,0.00,,CLR,0.00,VWS V14.01,2013-09-27 10:57:00,
2013-09-27 06:58:00,64.5,64.5,29.95,NNW,342,5.0,5.0,100,0.00,,CLR,0.00,VWS V14.01,2013-09-27 10:58:00,
2013-09-27 06:59:00,64.5,64.5,29.95,NNE,22,3.0,5.0,100,0.00,,CLR,0.00,VWS V14.01,2013-09-27 10:59:00,
2013-09-27 07:00:00,64.5,64.5,29.95,North,5,4.0,5.0,100,0.00,,CLR,0.00,VWS V14.01,2013-09-27 11:00:00,
2013-09-27 07:01:00,64.5,64.5,29.95,NNW,340,3.0,4.0,100,0.00,,CLR,0.00,VWS V14.01,2013-09-27 11:01:00,
2013-09-27 07:02:00,64.5,64.5,29.95,North,360,2.0,5.0,100,0.00,,CLR,0.00,VWS V14.01,2013-09-27 11:02:00,
2013-09-27 07:03:00,64.5,64.5,29.95,North,5,4.0,5.0,100,0.00,,CLR,0.00,VWS V14.01,2013-09-27 11:03:00,
2013-09-27 07:04:00,64.5,64.5,29.95,NNW,343,5.0,5.0,100,0.00,,CLR,0.00,VWS V14.01,2013-09-27 11:04:00,
2013-09-27 07:05:00,64.5,64.5,29.95,NNE,12,3.0,5.0,100,0.00,,CLR,0.00,VWS V14.01,2013-09-27 11:05:00,
2013-09-27 07:06:00,64.3,64.3,29.95,NE,35,4.0,4.0,100,0.00,,CLR,0.00,VWS V14.01,2013-09-27 11:06:00,
2013-09-27 07:07:00,64.3,64.3,29.95,NNE,13,3.0,4.0,100,0.00,,CLR,0.00,VWS V14.01,2013-09-27 11:07:00,
2013-09-27 07:08:00,64.3,64.3,29.95,North,355,4.0,4.0,100,0.00,,CLR,0.00,VWS V14.01,2013-09-27 11:08:00,
2013-09-27 07:09:00,64.3,64.3,29.95,NNW,329,2.0,7.0,100,0.00,,CLR,0.00,VWS V14.01,2013-09-27 11:09:00,
2013-09-27 07:10:00,64.3,64.3,29.95,NNE,28,4.0,4.0,100,0.00,,CLR,0.00,VWS V14.01,2013-09-27 11:10:00,
2013-09-27 07:11:00,64.3,64.3,29.88,NNW,338,4.0,4.0,100,0.00,,CLR,0.00,VWS V14.01,2013-09-27 11:11:00,
2013-09-27 07:12:00,64.3,64.3,29.88,NNW,343,4.0,7.0,100,0.00,,CLR,0.00,VWS V14.01,2013-09-27 11:12:00,
2013-09-27 07:13:00,64.3,64.3,29.73,North,355,4.0,5.0,100,0.00,,CLR,0.00,VWS V14.01,2013-09-27 11:13:00,
2013-09-27 07:14:00,64.3,64.3,29.88,NNW,342,4.0,4.0,100,0.00,,CLR,0.00,VWS V14.01,2013-09-27 11:14:00,
2013-09-27 07:15:00,64.3,64.3,29.73,NNE,16,3.0,5.0,100,0.00,,CLR,0.00,VWS V14.01,2013-09-27 11:15:00,
2013-09-27 07:16:00,64.3,64.3,29.73,ENE,61,2.0,5.0,100,0.00,,CLR,0.00,VWS V14.01,2013-09-27 11:16:00,
2013-09-27 07:17:00,64.3,64.3,29.73,ENE,59,2.0,4.0,100,0.00,,CLR,0.00,VWS V14.01,2013-09-27 11:17:00,
2013-09-27 07:18:00,64.3,64.3,29.77,NE,37,4.0,4.0,100,0.00,,CLR,0.00,VWS V14.01,2013-09-27 11:18:00,
2013-09-27 07:19:00,64.3,64.3,29.77,North,5,4.0,5.0,100,0.00,,CLR,0.00,VWS V14.01,2013-09-27 11:19:00,
2013-09-27 07:20:00,64.3,64.3,29.77,NE,37,2.0,4.0,100,0.00,,CLR,0.00,VWS V14.01,2013-09-27 11:20:00,
2013-09-27 07:21:00,64.3,64.3,29.77,NNE,32,2.0,4.0,100,0.00,,CLR,0.00,VWS V14.01,2013-09-27 11:21:00,
2013-09-27 07:22:00,64.3,64.3,29.85,NW,321,4.0,5.0,100,0.00,,CLR,0.00,VWS V14.01,2013-09-27 11:22:00,
2013-09-27 07:23:00,64.3,64.3,29.85,NNE,27,3.0,5.0,100,0.00,,CLR,0.00,VWS V14.01,2013-09-27 11:23:00,
2013-09-27 07:24:00,64.3,64.3,29.85,NNW,340,5.0,5.0,100,0.00,,CLR,0.00,VWS V14.01,2013-09-27 11:24:00,
2013-09-27 07:25:00,64.3,64.3,29.85,NW,325,5.0,5.0,100,0.00,,CLR,0.00,VWS V14.01,2013-09-27 11:25:00,
2013-09-27 07:26:00,64.3,64.3,29.85,NE,41,4.0,5.0,100,0.00,,CLR,0.00,VWS V14.01,2013-09-27 11:26:00,
2013-09-27 07:27:00,64.3,64.3,29.85,NNW,327,4.0,9.0,100,0.00,,CLR,0.00,VWS V14.01,2013-09-27 11:27:00,
2013-09-27 07:28:00,64.3,64.3,29.85,North,360,4.0,6.0,100,0.00,,CLR,0.00,VWS V14.01,2013-09-27 11:28:00,
2013-09-27 07:29:00,64.3,64.3,29.85,North,360,3.0,6.0,100,0.00,,CLR,0.00,VWS V14.01,2013-09-27 11:29:00,
2013-09-27 07:30:00,64.3,64.3,29.85,North,355,3.0,6.0,100,0.00,,CLR,0.00,VWS V14.01,2013-09-27 11:30:00,
2013-09-27 07:31:00,64.3,64.3,29.68,NE,40,3.0,7.0,100,0.00,,CLR,0.00,VWS V14.01,2013-09-27 11:31:00,
2013-09-27 07:32:00,64.3,64.3,29.67,NNE,32,2.0,10.0,100,0.00,,CLR,0.00,VWS V14.01,2013-09-27 11:32:00,
2013-09-27 07:33:00,64.3,64.3,29.70,NNW,346,2.0,7.0,100,0.00,,CLR,0.00,VWS V14.01,2013-09-27 11:33:00,
2013-09-27 07:34:00,64.3,64.3,29.70,NW,305,5.0,5.0,100,0.00,,CLR,0.00,VWS V14.01,2013-09-27 11:34:00,
2013-09-27 07:35:00,64.3,64.3,29.70,NW,315,1.0,7.0,100,0.00,,CLR,0.00,VWS V14.01,2013-09-27 11:35:00,
2013-09-27 07:36:00,64.5,64.5,29.70,NNW,336,6.0,7.0,100,0.00,,CLR,0.00,VWS V14.01,2013-09-27 11:36:00,
2013-09-27 07:37:00,64.5,64.5,29.67,NW,323,5.0,6.0,100,0.00,,CLR,0.00,VWS V14.01,2013-09-27 11:37:00,
2013-09-27 07:38:00,64.5,64.5,29.67,North,5,5.0,6.0,100,0.00,,CLR,0.00,VWS V14.01,2013-09-27 11:38:00,
2013-09-27 07:39:00,64.5,64.5,29.67,NNW,327,6.0,6.0,100,0.00,,CLR,0.00,VWS V14.01,2013-09-27 11:39:00,
2013-09-27 07:40:00,64.5,64.5,29.67,NNE,25,6.0,6.0,100,0.00,,CLR,0.00,VWS V14.01,2013-09-27 11:40:00,
2013-09-27 07:41:00,64.5,64.5,29.67,NNE,26,5.0,7.0,100,0.00,,CLR,0.00,VWS V14.01,2013-09-27 11:41:00,
2013-09-27 07:42:00,64.5,64.5,29.67,ENE,58,9.0,10.0,100,0.00,,CLR,0.00,VWS V14.01,2013-09-27 11:42:00,
2013-09-27 07:43:00,64.5,64.5,29.75,North,355,7.0,7.0,100,0.00,,CLR,0.00,VWS V14.01,2013-09-27 11:43:00,
2013-09-27 07:44:00,64.5,64.5,29.75,NE,34,3.0,7.0,100,0.00,,CLR,0.00,VWS V14.01,2013-09-27 11:44:00,
2013-09-27 07:45:00,64.5,64.5,29.75,North,5,4.0,7.0,100,0.00,,CLR,0.00,VWS V14.01,2013-09-27 11:45:00,
2013-09-27 07:46:00,64.5,64.5,29.75,NNW,331,10.0,10.0,100,0.00,,CLR,0.00,VWS V14.01,2013-09-27 11:46:00,
2013-09-27 07:47:00,64.5,64.5,29.75,North,360,7.0,10.0,100,0.00,,CLR,0.00,VWS V14.01,2013-09-27 11:47:00,
2013-09-27 07:48:00,64.5,64.5,29.80,North,5,11.0,11.0,100,0.00,,CLR,0.00,VWS V14.01,2013-09-27 11:48:00,
2013-09-27 07:49:00,64.5,64.5,29.80,NE,53,4.0,9.0,100,0.00,,CLR,0.00,VWS V14.01,2013-09-27 11:49:00,
2013-09-27 07:50:00,64.5,64.5,29.80,NW,308,5.0,11.0,100,0.00,,CLR,0.00,VWS V14.01,2013-09-27 11:50:00,
2013-09-27 07:51:00,64.5,64.5,29.80,NNE,14,7.0,7.0,100,0.00,,CLR,0.00,VWS V14.01,2013-09-27 11:51:00,
2013-09-27 07:52:00,64.5,64.5,29.93,North,355,3.0,7.0,100,0.00,,CLR,0.00,VWS V14.01,2013-09-27 11:52:00,
2013-09-27 07:53:00,64.7,64.7,29.93,North,355,10.0,10.0,100,0.00,,CLR,0.00,VWS V14.01,2013-09-27 11:53:00,
2013-09-27 07:54:00,64.7,64.7,29.93,ENE,57,4.0,9.0,100,0.00,,CLR,0.00,VWS V14.01,2013-09-27 11:54:00,
2013-09-27 07:55:00,64.7,64.7,29.93,NNE,18,6.0,10.0,100,0.00,,CLR,0.00,VWS V14.01,2013-09-27 11:55:00,
2013-09-27 07:56:00,64.7,64.7,29.93,NNE,19,3.0,7.0,100,0.00,,CLR,0.00,VWS V14.01,2013-09-27 11:56:00,
2013-09-27 07:57:00,64.7,64.7,29.93,North,355,6.0,9.0,100,0.00,,CLR,0.00,VWS V14.01,2013-09-27 11:57:00,
2013-09-27 07:58:00,64.7,64.7,29.93,NNE,13,6.0,7.0,100,0.00,,CLR,0.00,VWS V14.01,2013-09-27 11:58:00,
2013-09-27 07:59:00,64.7,64.7,29.93,North,355,6.0,12.0,100,0.00,,CLR,0.00,VWS V14.01,2013-09-27 11:59:00,
2013-09-27 08:00:00,64.7,64.7,29.93,NW,320,13.0,13.0,100,0.00,,CLR,0.00,VWS V14.01,2013-09-27 12:00:00,
2013-09-27 08:01:00,64.7,64.7,29.93,North,355,3.0,13.0,100,0.00,,CLR,0.00,VWS V14.01,2013-09-27 12:01:00,
2013-09-27 08:02:00,64.7,64.7,29.93,NW,323,8.0,8.0,100,0.00,,CLR,0.00,VWS V14.01,2013-09-27 12:02:00,
2013-09-27 08:03:00,64.7,64.7,29.64,NNE,18,7.0,14.0,100,0.00,,CLR,0.00,VWS V14.01,2013-09-27 12:03:00,
2013-09-27 08:04:00,64.7,64.7,29.64,North,360,6.0,11.0,100,0.00,,CLR,0.00,VWS V14.01,2013-09-27 12:04:00,
2013-09-27 08:05:00,64.7,64.7,29.64,NNW,345,10.0,14.0,100,0.00,,CLR,0.00,VWS V14.01,2013-09-27 12:05:00,
2013-09-27 08:06:00,64.7,64.7,29.64,North,349,7.0,10.0,100,0.00,,CLR,0.00,VWS V14.01,2013-09-27 12:06:00,
2013-09-27 08:07:00,64.7,64.7,29.64,NNW,347,3.0,7.0,100,0.00,,CLR,0.00,VWS V14.01,2013-09-27 12:07:00,
2013-09-27 08:08:00,64.7,64.7,29.79,NW,311,12.0,12.0,100,0.00,,CLR,0.00,VWS V14.01,2013-09-27 12:08:00,
2013-09-27 08:09:00,64.7,64.7,29.79,NNW,331,3.0,5.0,100,0.00,,CLR,0.00,VWS V14.01,2013-09-27 12:09:00,
2013-09-27 08:10:00,64.7,64.7,29.79,NE,42,6.0,12.0,100,0.00,,CLR,0.00,VWS V14.01,2013-09-27 12:10:00,
2013-09-27 08:11:00,64.7,64.7,29.79,NNW,332,10.0,10.0,100,0.00,,CLR,0.00,VWS V14.01,2013-09-27 12:11:00,
2013-09-27 08:12:00,64.7,64.7,29.83,NNW,340,9.0,10.0,100,0.00,,CLR,0.00,VWS V14.01,2013-09-27 12:12:00,
2013-09-27 08:13:00,64.8,64.8,29.79,NW,315,5.0,5.0,100,0.00,,CLR,0.00,VWS V14.01,2013-09-27 12:13:00,
2013-09-27 08:14:00,64.8,64.8,29.83,WNW,297,4.0,7.0,100,0.00,,CLR,0.00,VWS V14.01,2013-09-27 12:14:00,
2013-09-27 08:15:00,64.8,64.8,29.79,North,355,6.0,6.0,100,0.00,,CLR,0.00,VWS V14.01,2013-09-27 12:15:00,
2013-09-27 08:16:00,64.8,64.8,29.79,North,355,9.0,9.0,100,0.00,,CLR,0.00,VWS V14.01,2013-09-27 12:16:00,
2013-09-27 08:17:00,64.8,64.8,29.79,North,355,9.0,10.0,100,0.00,,CLR,0.00,VWS V14.01,2013-09-27 12:17:00,
2013-09-27 08:18:00,64.8,64.8,29.80,North,9,6.0,6.0,100,0.00,,CLR,0.00,VWS V14.01,2013-09-27 12:18:00,
2013-09-27 08:19:00,64.8,64.8,29.80,NNE,30,3.0,6.0,100,0.00,,CLR,0.00,VWS V14.01,2013-09-27 12:19:00,
2013-09-27 08:20:00,65.0,65.0,29.80,NW,305,3.0,6.0,100,0.00,,CLR,0.00,VWS V14.01,2013-09-27 12:20:00,
2013-09-27 08:21:00,65.0,65.0,29.80,NE,42,4.0,7.0,100,0.00,,CLR,0.00,VWS V14.01,2013-09-27 12:21:00,
2013-09-27 08:22:00,65.0,65.0,29.80,North,9,4.0,6.0,100,0.00,,CLR,0.00,VWS V14.01,2013-09-27 12:22:00,
2013-09-27 08:23:00,65.0,65.0,29.80,NNE,18,6.0,11.0,100,0.00,,CLR,0.00,VWS V14.01,2013-09-27 12:23:00,
2013-09-27 08:24:00,65.0,65.0,29.80,NNW,329,6.0,11.0,100,0.00,,CLR,0.00,VWS V14.01,2013-09-27 12:24:00,
2013-09-27 08:25:00,65.0,65.0,29.80,NNE,17,4.0,11.0,100,0.00,,CLR,0.00,VWS V14.01,2013-09-27 12:25:00,
2013-09-27 08:26:00,65.2,65.2,29.80,NNW,348,1.0,4.0,100,0.00,,CLR,0.00,VWS V14.01,2013-09-27 12:26:00,
2013-09-27 08:27:00,65.2,65.2,29.80,NE,34,8.0,8.0,100,0.00,,CLR,0.00,VWS V14.01,2013-09-27 12:27:00,
2013-09-27 08:28:00,65.2,65.2,29.98,NNW,342,6.0,11.0,100,0.00,,CLR,0.00,VWS V14.01,2013-09-27 12:28:00,
2013-09-27 08:29:00,65.2,65.2,29.98,NNW,346,7.0,7.0,100,0.00,,CLR,0.00,VWS V14.01,2013-09-27 12:29:00,
2013-09-27 08:30:00,65.2,65.2,29.98,NNW,348,7.0,11.0,100,0.00,,CLR,0.00,VWS V14.01,2013-09-27 12:30:00,
2013-09-27 08:31:00,65.2,64.9,29.79,NNW,344,5.0,7.0,99,0.00,,CLR,0.00,VWS V14.01,2013-09-27 12:31:00,
2013-09-27 08:32:00,65.2,64.9,29.79,North,5,5.0,5.0,99,0.00,,CLR,0.00,VWS V14.01,2013-09-27 12:32:00,
2013-09-27 08:33:00,65.3,65.0,29.79,NE,47,6.0,9.0,99,0.00,,CLR,0.00,VWS V14.01,2013-09-27 12:33:00,
2013-09-27 08:34:00,65.2,64.9,29.79,NNW,332,9.0,9.0,99,0.00,,CLR,0.00,VWS V14.01,2013-09-27 12:34:00,
2013-09-27 08:35:00,65.3,65.0,29.79,NW,321,7.0,9.0,99,0.00,,CLR,0.00,VWS V14.01,2013-09-27 12:35:00,
2013-09-27 08:36:00,65.3,65.0,29.79,NE,49,6.0,12.0,99,0.00,,CLR,0.00,VWS V14.01,2013-09-27 12:36:00,
2013-09-27 08:37:00,65.3,65.0,29.79,NE,40,5.0,9.0,99,0.00,,CLR,0.00,VWS V14.01,2013-09-27 12:37:00,
2013-09-27 08:38:00,65.5,65.2,29.79,NE,38,6.0,6.0,99,0.00,,CLR,0.00,VWS V14.01,2013-09-27 12:38:00,
2013-09-27 08:39:00,65.3,65.0,29.79,North,360,5.0,10.0,99,0.00,,CLR,0.00,VWS V14.01,2013-09-27 12:39:00,
2013-09-27 08:40:00,65.5,65.2,29.79,NNW,333,6.0,6.0,99,0.00,,CLR,0.00,VWS V14.01,2013-09-27 12:40:00,
2013-09-27 08:41:00,65.5,65.5,29.79,NE,42,3.0,6.0,100,0.00,,CLR,0.00,VWS V14.01,2013-09-27 12:41:00,
2013-09-27 08:42:00,65.5,65.2,29.79,NNW,342,12.0,12.0,99,0.00,,CLR,0.00,VWS V14.01,2013-09-27 12:42:00,
2013-09-27 08:43:00,65.6,65.3,29.64,NW,311,12.0,12.0,99,0.00,,CLR,0.00,VWS V14.01,2013-09-27 12:43:00,
2013-09-27 08:44:00,65.6,65.3,29.64,NNE,19,2.0,6.0,99,0.00,,CLR,0.00,VWS V14.01,2013-09-27 12:44:00,
2013-09-27 08:45:00,65.6,65.3,29.64,North,10,9.0,12.0,99,0.00,,CLR,0.00,VWS V14.01,2013-09-27 12:45:00,
2013-09-27 08:46:00,65.6,65.3,29.62,ENE,69,5.0,10.0,99,0.00,,CLR,0.00,VWS V14.01,2013-09-27 12:46:00,
2013-09-27 08:47:00,65.8,65.5,29.62,NNW,341,6.0,9.0,99,0.00,,CLR,0.00,VWS V14.01,2013-09-27 12:47:00,
2013-09-27 08:48:00,65.8,65.5,29.64,WNW,289,9.0,16.0,99,0.00,,CLR,0.00,VWS V14.01,2013-09-27 12:48:00,
2013-09-27 08:49:00,65.8,65.5,29.64,NNW,333,16.0,16.0,99,0.00,,CLR,0.00,VWS V14.01,2013-09-27 12:49:00,
2013-09-27 08:50:00,65.8,65.5,29.64,North,5,6.0,16.0,99,0.00,,CLR,0.00,VWS V14.01,2013-09-27 12:50:00,
2013-09-27 08:51:00,65.8,65.5,29.64,NE,53,4.0,13.0,99,0.00,,CLR,0.00,VWS V14.01,2013-09-27 12:51:00,
2013-09-27 08:52:00,65.8,65.5,29.64,NNE,32,3.0,11.0,99,0.00,,CLR,0.00,VWS V14.01,2013-09-27 12:52:00,
2013-09-27 08:53:00,66.0,65.7,29.44,ENE,65,7.0,7.0,99,0.00,,CLR,0.00,VWS V14.01,2013-09-27 12:53:00,
2013-09-27 08:54:00,66.0,65.7,29.44,NNW,336,7.0,7.0,99,0.00,,CLR,0.00,VWS V14.01,2013-09-27 12:54:00,
2013-09-27 08:55:00,66.0,65.7,29.44,NNW,335,6.0,9.0,99,0.00,,CLR,0.00,VWS V14.01,2013-09-27 12:55:00,
2013-09-27 08:56:00,66.0,65.4,29.50,North,350,4.0,9.0,98,0.00,,CLR,0.00,VWS V14.01,2013-09-27 12:56:00,
2013-09-27 08:57:00,66.0,65.4,29.50,NE,44,6.0,6.0,98,0.00,,CLR,0.00,VWS V14.01,2013-09-27 12:57:00,
2013-09-27 08:58:00,66.0,65.4,29.65,NW,310,6.0,11.0,98,0.00,,CLR,0.00,VWS V14.01,2013-09-27 12:58:00,
2013-09-27 08:59:00,66.0,65.4,29.65,NNE,16,11.0,12.0,98,0.00,,CLR,0.00,VWS V14.01,2013-09-27 12:59:00,
2013-09-27 09:00:00,66.0,65.4,29.65,NNW,344,7.0,11.0,98,0.00,,CLR,0.00,VWS V14.01,2013-09-27 13:00:00,
2013-09-27 09:01:00,66.0,65.4,29.65,NW,321,7.0,7.0,98,0.00,,CLR,0.00,VWS V14.01,2013-09-27 13:01:00,
2013-09-27 09:02:00,66.0,65.4,29.65,NE,36,4.0,10.0,98,0.00,,CLR,0.00,VWS V14.01,2013-09-27 13:02:00,
2013-09-27 09:03:00,66.1,65.5,29.65,NNW,344,4.0,7.0,98,0.00,,CLR,0.00,VWS V14.01,2013-09-27 13:03:00,
2013-09-27 09:04:00,66.1,65.5,29.65,NE,44,7.0,7.0,98,0.00,,CLR,0.00,VWS V14.01,2013-09-27 13:04:00,
2013-09-27 09:05:00,66.1,65.5,29.66,North,10,4.0,7.0,98,0.00,,CLR,0.00,VWS V14.01,2013-09-27 13:05:00,
2013-09-27 09:06:00,66.3,66.0,29.66,North,5,11.0,11.0,99,0.00,,CLR,0.00,VWS V14.01,2013-09-27 13:06:00,
2013-09-27 09:07:00,66.3,65.7,29.66,NNE,25,2.0,11.0,98,0.00,,CLR,0.00,VWS V14.01,2013-09-27 13:07:00,
2013-09-27 09:08:00,66.4,65.8,29.53,NE,46,5.0,9.0,98,0.00,,CLR,0.00,VWS V14.01,2013-09-27 13:08:00,
2013-09-27 09:09:00,66.4,65.8,29.53,NNW,334,7.0,11.0,98,0.00,,CLR,0.00,VWS V14.01,2013-09-27 13:09:00,
2013-09-27 09:10:00,66.4,65.8,29.53,NE,51,5.0,9.0,98,0.00,,CLR,0.00,VWS V14.01,2013-09-27 13:10:00,
2013-09-27 09:11:00,66.4,65.8,29.53,North,5,4.0,6.0,98,0.00,,CLR,0.00,VWS V14.01,2013-09-27 13:11:00,
2013-09-27 09:12:00,66.6,66.0,29.53,NE,42,5.0,10.0,98,0.00,,CLR,0.00,VWS V14.01,2013-09-27 13:12:00,
2013-09-27 09:13:00,66.8,66.2,29.29,NNW,338,5.0,5.0,98,0.00,,CLR,0.00,VWS V14.01,2013-09-27 13:13:00,
2013-09-27 09:14:00,66.6,66.0,29.29,ENE,61,4.0,10.0,98,0.00,,CLR,0.00,VWS V14.01,2013-09-27 13:14:00,
2013-09-27 09:15:00,66.8,66.2,29.29,NNW,347,6.0,6.0,98,0.00,,CLR,0.00,VWS V14.01,2013-09-27 13:15:00,
2013-09-27 09:16:00,66.8,66.2,29.29,North,355,5.0,6.0,98,0.00,,CLR,0.00,VWS V14.01,2013-09-27 13:16:00,
2013-09-27 09:17:00,66.9,66.3,29.29,North,349,4.0,10.0,98,0.00,,CLR,0.00,VWS V14.01,2013-09-27 13:17:00,
2013-09-27 09:18:00,66.9,66.0,29.29,NNW,332,8.0,8.0,97,0.00,,CLR,0.00,VWS V14.01,2013-09-27 13:18:00,
2013-09-27 09:19:00,66.9,66.3,29.29,NNW,344,3.0,6.0,98,0.00,,CLR,0.00,VWS V14.01,2013-09-27 13:19:00,
2013-09-27 09:20:00,66.9,66.0,29.29,NW,311,5.0,8.0,97,0.00,,CLR,0.00,VWS V14.01,2013-09-27 13:20:00,
2013-09-27 09:21:00,67.1,66.2,29.29,NW,310,9.0,10.0,97,0.00,,CLR,0.00,VWS V14.01,2013-09-27 13:21:00,
2013-09-27 09:22:00,67.1,66.2,28.89,NNE,28,7.0,10.0,97,0.00,,CLR,0.00,VWS V14.01,2013-09-27 13:22:00,
2013-09-27 09:23:00,67.3,66.4,28.92,North,355,3.0,5.0,97,0.00,,CLR,0.00,VWS V14.01,2013-09-27 13:23:00,
2013-09-27 09:24:00,67.1,66.2,28.92,WNW,296,5.0,5.0,97,0.00,,CLR,0.00,VWS V14.01,2013-09-27 13:24:00,
2013-09-27 09:25:00,67.3,66.4,28.92,North,355,2.0,5.0,97,0.00,,CLR,0.00,VWS V14.01,2013-09-27 13:25:00,
2013-09-27 09:26:00,67.3,66.7,28.92,NNE,13,3.0,9.0,98,0.00,,CLR,0.00,VWS V14.01,2013-09-27 13:26:00,
2013-09-27 09:27:00,67.4,66.5,28.92,NNW,336,5.0,8.0,97,0.00,,CLR,0.00,VWS V14.01,2013-09-27 13:27:00,
2013-09-27 09:28:00,67.6,66.7,28.92,NNW,329,6.0,9.0,97,0.00,,CLR,0.00,VWS V14.01,2013-09-27 13:28:00,
2013-09-27 09:29:00,67.4,66.5,28.92,NW,309,9.0,9.0,97,0.00,,CLR,0.00,VWS V14.01,2013-09-27 13:29:00,
2013-09-27 09:30:00,67.6,66.7,28.92,WNW,302,9.0,9.0,97,0.00,,CLR,0.00,VWS V14.01,2013-09-27 13:30:00,
2013-09-27 09:31:00,67.6,66.7,28.92,NW,317,10.0,10.0,97,0.00,,CLR,0.00,VWS V14.01,2013-09-27 13:31:00,
2013-09-27 09:32:00,67.6,66.7,28.92,NNE,16,3.0,10.0,97,0.00,,CLR,0.00,VWS V14.01,2013-09-27 13:32:00,
2013-09-27 09:33:00,67.8,66.9,28.98,North,5,3.0,7.0,97,0.00,,CLR,0.00,VWS V14.01,2013-09-27 13:33:00,
2013-09-27 09:34:00,67.8,66.9,28.99,North,350,4.0,6.0,97,0.00,,CLR,0.00,VWS V14.01,2013-09-27 13:34:00,
2013-09-27 09:35:00,67.9,67.0,28.98,NNE,23,2.0,7.0,97,0.00,,CLR,0.00,VWS V14.01,2013-09-27 13:35:00,
2013-09-27 09:36:00,67.9,67.0,28.98,NE,36,4.0,5.0,97,0.00,,CLR,0.00,VWS V14.01,2013-09-27 13:36:00,
2013-09-27 09:37:00,68.1,66.9,28.98,NNE,26,5.0,12.0,96,0.00,,CLR,0.00,VWS V14.01,2013-09-27 13:37:00,
2013-09-27 09:38:00,68.1,66.9,28.98,NNE,12,7.0,7.0,96,0.00,,CLR,0.00,VWS V14.01,2013-09-27 13:38:00,
2013-09-27 09:39:00,68.1,66.9,28.98,NNW,340,2.0,9.0,96,0.00,,CLR,0.00,VWS V14.01,2013-09-27 13:39:00,
2013-09-27 09:40:00,68.1,66.9,28.98,NNE,26,4.0,7.0,96,0.00,,CLR,0.00,VWS V14.01,2013-09-27 13:40:00,
2013-09-27 09:41:00,68.3,67.1,28.98,NNE,29,4.0,11.0,96,0.00,,CLR,0.00,VWS V14.01,2013-09-27 13:41:00,
2013-09-27 09:42:00,68.3,67.1,28.98,WNW,297,13.0,13.0,96,0.00,,CLR,0.00,VWS V14.01,2013-09-27 13:42:00,
2013-09-27 09:43:00,68.3,67.1,28.98,North,355,4.0,9.0,96,0.00,,CLR,0.00,VWS V14.01,2013-09-27 13:43:00,
2013-09-27 09:44:00,68.3,67.1,28.98,NNW,338,7.0,8.0,96,0.00,,CLR,0.00,VWS V14.01,2013-09-27 13:44:00,
2013-09-27 09:45:00,68.4,67.2,28.98,NE,36,3.0,9.0,96,0.00,,CLR,0.00,VWS V14.01,2013-09-27 13:45:00,
2013-09-27 09:46:00,68.4,67.2,28.98,North,9,10.0,10.0,96,0.00,,CLR,0.00,VWS V14.01,2013-09-27 13:46:00,
2013-09-27 09:47:00,68.4,67.2,28.98,North,5,4.0,10.0,96,0.00,,CLR,0.00,VWS V14.01,2013-09-27 13:47:00,
2013-09-27 09:48:00,68.6,67.4,28.83,North,360,11.0,11.0,96,0.00,,CLR,0.00,VWS V14.01,2013-09-27 13:48:00,
2013-09-27 09:49:00,68.6,67.4,28.83,North,355,9.0,13.0,96,0.00,,CLR,0.00,VWS V14.01,2013-09-27 13:49:00,
2013-09-27 09:50:00,68.6,67.1,28.83,NNE,28,4.0,11.0,95,0.00,,CLR,0.00,VWS V14.01,2013-09-27 13:50:00,
2013-09-27 09:51:00,68.6,67.1,28.83,NNE,12,7.0,8.0,95,0.00,,CLR,0.00,VWS V14.01,2013-09-27 13:51:00,
2013-09-27 09:52:00,68.6,67.1,28.79,NW,318,7.0,11.0,95,0.00,,CLR,0.00,VWS V14.01,2013-09-27 13:52:00,
2013-09-27 09:53:00,68.8,67.6,28.81,NE,34,4.0,4.0,96,0.00,,CLR,0.00,VWS V14.01,2013-09-27 13:53:00,
2013-09-27 09:54:00,68.8,67.6,28.81,ENE,58,2.0,6.0,96,0.00,,CLR,0.00,VWS V14.01,2013-09-27 13:54:00,
2013-09-27 09:55:00,68.9,67.7,28.81,WNW,298,6.0,6.0,96,0.00,,CLR,0.00,VWS V14.01,2013-09-27 13:55:00,
2013-09-27 09:56:00,69.1,67.9,28.81,NNW,332,12.0,12.0,96,0.00,,CLR,0.00,VWS V14.01,2013-09-27 13:56:00,
2013-09-27 09:57:00,69.1,67.6,28.81,NW,321,7.0,12.0,95,0.00,,CLR,0.00,VWS V14.01,2013-09-27 13:57:00,
2013-09-27 09:58:00,69.3,67.8,28.81,NE,35,3.0,7.0,95,0.00,,CLR,0.00,VWS V14.01,2013-09-27 13:58:00,
2013-09-27 09:59:00,69.3,67.8,28.81,NNE,19,5.0,10.0,95,0.00,,CLR,0.00,VWS V14.01,2013-09-27 13:59:00,
2013-09-27 10:00:00,69.3,67.8,28.81,North,5,4.0,9.0,95,0.00,,CLR,0.00,VWS V14.01,2013-09-27 14:00:00,
2013-09-27 10:01:00,69.4,67.9,28.81,NNW,343,4.0,10.0,95,0.00,,CLR,0.00,VWS V14.01,2013-09-27 14:01:00,
2013-09-27 10:02:00,69.4,67.9,28.81,North,360,5.0,7.0,95,0.00,,CLR,0.00,VWS V14.01,2013-09-27 14:02:00,
2013-09-27 10:03:00,69.6,68.1,28.82,North,360,6.0,6.0,95,0.00,,CLR,0.00,VWS V14.01,2013-09-27 14:03:00,
2013-09-27 10:04:00,69.4,67.6,28.82,NNE,27,3.0,7.0,94,0.00,,CLR,0.00,VWS V14.01,2013-09-27 14:04:00,
2013-09-27 10:05:00,69.6,68.1,28.82,ENE,67,5.0,12.0,95,0.00,,CLR,0.00,VWS V14.01,2013-09-27 14:05:00,
2013-09-27 10:06:00,69.6,67.8,28.82,NE,56,6.0,12.0,94,0.00,,CLR,0.00,VWS V14.01,2013-09-27 14:06:00,
2013-09-27 10:07:00,69.6,67.8,28.82,NW,317,9.0,11.0,94,0.00,,CLR,0.00,VWS V14.01,2013-09-27 14:07:00,
2013-09-27 10:08:00,69.6,67.5,28.82,NNE,22,4.0,6.0,93,0.00,,CLR,0.00,VWS V14.01,2013-09-27 14:08:00,
2013-09-27 10:09:00,69.6,67.5,28.82,NNW,336,6.0,13.0,93,0.00,,CLR,0.00,VWS V14.01,2013-09-27 14:09:00,
2013-09-27 10:10:00,69.6,67.5,28.82,NE,44,4.0,12.0,93,0.00,,CLR,0.00,VWS V14.01,2013-09-27 14:10:00,
2013-09-27 10:11:00,69.6,67.5,28.82,NNW,328,4.0,4.0,93,0.00,,CLR,0.00,VWS V14.01,2013-09-27 14:11:00,
2013-09-27 10:12:00,69.6,67.8,28.82,NNW,341,5.0,7.0,94,0.00,,CLR,0.00,VWS V14.01,2013-09-27 14:12:00,
2013-09-27 10:13:00,69.8,67.7,28.84,North,11,7.0,9.0,93,0.00,,CLR,0.00,VWS V14.01,2013-09-27 14:13:00,
2013-09-27 10:14:00,69.8,67.7,28.84,NE,53,9.0,9.0,93,0.00,,CLR,0.00,VWS V14.01,2013-09-27 14:14:00,
2013-09-27 10:15:00,69.8,67.7,28.84,NNE,33,5.0,9.0,93,0.00,,CLR,0.00,VWS V14.01,2013-09-27 14:15:00,
2013-09-27 10:16:00,69.8,67.7,28.82,NNE,16,10.0,10.0,93,0.00,,CLR,0.00,VWS V14.01,2013-09-27 14:16:00,
2013-09-27 10:17:00,69.9,67.8,28.82,North,355,5.0,10.0,93,0.00,,CLR,0.00,VWS V14.01,2013-09-27 14:17:00,
2013-09-27 10:18:00,70.1,68.0,28.82,North,5,7.0,7.0,93,0.00,,CLR,0.00,VWS V14.01,2013-09-27 14:18:00,
2013-09-27 10:19:00,70.1,68.0,28.82,NNE,14,7.0,7.0,93,0.00,,CLR,0.00,VWS V14.01,2013-09-27 14:19:00,
2013-09-27 10:20:00,70.1,68.0,28.82,East,88,3.0,7.0,93,0.00,,CLR,0.00,VWS V14.01,2013-09-27 14:20:00,
2013-09-27 10:21:00,70.3,68.2,28.82,NE,50,7.0,11.0,93,0.00,,CLR,0.00,VWS V14.01,2013-09-27 14:21:00,
2013-09-27 10:22:00,70.3,67.9,28.82,North,5,4.0,13.0,92,0.00,,CLR,0.00,VWS V14.01,2013-09-27 14:22:00,
2013-09-27 10:23:00,70.3,68.2,28.77,NE,41,6.0,6.0,93,0.00,,CLR,0.00,VWS V14.01,2013-09-27 14:23:00,
2013-09-27 10:24:00,70.3,68.2,28.82,NW,304,6.0,7.0,93,0.00,,CLR,0.00,VWS V14.01,2013-09-27 14:24:00,
2013-09-27 10:25:00,70.3,68.2,28.77,NE,42,2.0,6.0,93,0.00,,CLR,0.00,VWS V14.01,2013-09-27 14:25:00,
2013-09-27 10:26:00,70.4,68.3,28.77,NE,42,5.0,8.0,93,0.00,,CLR,0.00,VWS V14.01,2013-09-27 14:26:00,
2013-09-27 10:27:00,70.4,68.0,28.77,NNE,22,5.0,6.0,92,0.00,,CLR,0.00,VWS V14.01,2013-09-27 14:27:00,
2013-09-27 10:28:00,70.4,68.0,28.77,NNE,22,9.0,9.0,92,0.00,,CLR,0.00,VWS V14.01,2013-09-27 14:28:00,
2013-09-27 10:29:00,70.4,68.0,28.77,WNW,299,4.0,13.0,92,0.00,,CLR,0.00,VWS V14.01,2013-09-27 14:29:00,
2013-09-27 10:30:00,70.4,68.0,28.77,North,349,6.0,9.0,92,0.00,,CLR,0.00,VWS V14.01,2013-09-27 14:30:00,
2013-09-27 10:31:00,70.4,68.0,28.77,NW,311,6.0,7.0,92,0.00,,CLR,0.00,VWS V14.01,2013-09-27 14:31:00,
2013-09-27 10:32:00,70.4,68.0,28.77,NW,306,4.0,6.0,92,0.00,,CLR,0.00,VWS V14.01,2013-09-27 14:32:00,
2013-09-27 10:33:00,70.4,68.0,28.82,East,86,3.0,12.0,92,0.00,,CLR,0.00,VWS V14.01,2013-09-27 14:33:00,
2013-09-27 10:34:00,70.4,68.0,28.82,NE,40,5.0,9.0,92,0.00,,CLR,0.00,VWS V14.01,2013-09-27 14:34:00,
2013-09-27 10:35:00,70.4,68.0,28.82,NNE,13,4.0,12.0,92,0.00,,CLR,0.00,VWS V14.01,2013-09-27 14:35:00,
2013-09-27 10:36:00,70.4,68.3,28.76,NE,44,3.0,6.0,93,0.00,,CLR,0.00,VWS V14.01,2013-09-27 14:36:00,
2013-09-27 10:37:00,70.4,68.0,28.76,NNE,20,2.0,11.0,92,0.00,,CLR,0.00,VWS V14.01,2013-09-27 14:37:00,
2013-09-27 10:38:00,70.8,68.4,28.76,NW,313,7.0,12.0,92,0.00,,CLR,0.00,VWS V14.01,2013-09-27 14:38:00,
2013-09-27 10:39:00,70.8,68.4,28.76,North,355,12.0,12.0,92,0.00,,CLR,0.00,VWS V14.01,2013-09-27 14:39:00,
2013-09-27 10:40:00,70.8,68.4,28.76,North,5,5.0,12.0,92,0.00,,CLR,0.00,VWS V14.01,2013-09-27 14:40:00,
2013-09-27 10:41:00,70.8,68.4,28.76,NW,326,6.0,10.0,92,0.00,,CLR,0.00,VWS V14.01,2013-09-27 14:41:00,
2013-09-27 10:42:00,70.8,68.1,28.76,NNW,337,6.0,11.0,91,0.00,,CLR,0.00,VWS V14.01,2013-09-27 14:42:00,
2013-09-27 10:43:00,71.1,68.7,28.84,NE,34,4.0,6.0,92,0.00,,CLR,0.00,VWS V14.01,2013-09-27 14:43:00,
2013-09-27 10:44:00,70.9,68.5,28.84,NE,56,6.0,7.0,92,0.00,,CLR,0.00,VWS V14.01,2013-09-27 14:44:00,
2013-09-27 10:45:00,71.1,68.3,28.84,NW,326,5.0,6.0,91,0.00,,CLR,0.00,VWS V14.01,2013-09-27 14:45:00,
2013-09-27 10:46:00,71.1,68.3,28.84,ENE,57,2.0,10.0,91,0.00,,CLR,0.00,VWS V14.01,2013-09-27 14:46:00,
2013-09-27 10:47:00,71.3,68.9,28.82,NNE,15,10.0,12.0,92,0.00,,CLR,0.00,VWS V14.01,2013-09-27 14:47:00,
2013-09-27 10:48:00,71.3,68.5,28.82,WNW,294,7.0,7.0,91,0.00,,CLR,0.00,VWS V14.01,2013-09-27 14:48:00,
2013-09-27 10:49:00,71.1,68.0,28.82,ENE,59,3.0,9.0,90,0.00,,CLR,0.00,VWS V14.01,2013-09-27 14:49:00,
2013-09-27 10:50:00,71.3,68.5,28.82,NE,40,1.0,7.0,91,0.00,,CLR,0.00,VWS V14.01,2013-09-27 14:50:00,
2013-09-27 10:51:00,71.3,68.5,28.82,North,355,2.0,5.0,91,0.00,,CLR,0.00,VWS V14.01,2013-09-27 14:51:00,
2013-09-27 10:52:00,71.5,68.7,28.82,NNW,342,5.0,5.0,91,0.00,,CLR,0.00,VWS V14.01,2013-09-27 14:52:00,
2013-09-27 10:53:00,71.6,68.8,28.82,North,360,3.0,5.0,91,0.00,,CLR,0.00,VWS V14.01,2013-09-27 14:53:00,
2013-09-27 10:54:00,71.6,68.8,28.82,ENE,60,5.0,7.0,91,0.00,,CLR,0.00,VWS V14.01,2013-09-27 14:54:00,
2013-09-27 10:55:00,71.6,68.8,28.82,NW,315,9.0,9.0,91,0.00,,CLR,0.00,VWS V14.01,2013-09-27 14:55:00,
2013-09-27 10:56:00,71.6,68.5,28.82,NNW,328,11.0,11.0,90,0.00,,CLR,0.00,VWS V14.01,2013-09-27 14:56:00,
2013-09-27 10:57:00,71.6,68.5,28.82,North,350,5.0,13.0,90,0.00,,CLR,0.00,VWS V14.01,2013-09-27 14:57:00,
2013-09-27 10:58:00,71.8,68.7,28.82,North,360,4.0,5.0,90,0.00,,CLR,0.00,VWS V14.01,2013-09-27 14:58:00,
2013-09-27 10:59:00,71.8,68.7,28.82,NW,322,5.0,7.0,90,0.00,,CLR,0.00,VWS V14.01,2013-09-27 14:59:00,
2013-09-27 11:00:00,71.8,68.7,28.82,North,5,10.0,12.0,90,0.00,,CLR,0.00,VWS V14.01,2013-09-27 15:00:00,
2013-09-27 11:01:00,71.8,68.7,28.82,NNE,17,6.0,13.0,90,0.00,,CLR,0.00,VWS V14.01,2013-09-27 15:01:00,
2013-09-27 11:02:00,71.8,68.4,28.82,NNE,22,6.0,7.0,89,0.00,,CLR,0.00,VWS V14.01,2013-09-27 15:02:00,
2013-09-27 11:03:00,71.8,68.7,28.82,NNW,337,7.0,7.0,90,0.00,,CLR,0.00,VWS V14.01,2013-09-27 15:03:00,
2013-09-27 11:04:00,71.8,68.7,28.82,NNE,30,6.0,10.0,90,0.00,,CLR,0.00,VWS V14.01,2013-09-27 15:04:00,
2013-09-27 11:05:00,71.8,68.7,28.82,North,355,8.0,8.0,90,0.00,,CLR,0.00,VWS V14.01,2013-09-27 15:05:00,
2013-09-27 11:06:00,72.0,68.9,28.82,North,360,4.0,8.0,90,0.00,,CLR,0.00,VWS V14.01,2013-09-27 15:06:00,
2013-09-27 11:07:00,72.0,68.9,28.82,NNW,342,4.0,6.0,90,0.00,,CLR,0.00,VWS V14.01,2013-09-27 15:07:00,
2013-09-27 11:08:00,72.0,68.9,28.65,NW,315,6.0,7.0,90,0.00,,CLR,0.00,VWS V14.01,2013-09-27 15:08:00,
2013-09-27 11:09:00,72.0,68.9,28.65,NE,38,7.0,9.0,90,0.00,,CLR,0.00,VWS V14.01,2013-09-27 15:09:00,
2013-09-27 11:10:00,72.1,69.0,28.65,North,355,2.0,12.0,90,0.00,,CLR,0.00,VWS V14.01,2013-09-27 15:10:00,
2013-09-27 11:11:00,72.1,69.0,28.66,NNE,28,8.0,8.0,90,0.00,,CLR,0.00,VWS V14.01,2013-09-27 15:11:00,
2013-09-27 11:12:00,72.1,68.7,28.66,NNW,336,7.0,11.0,89,0.00,,CLR,0.00,VWS V14.01,2013-09-27 15:12:00,
2013-09-27 11:13:00,72.1,69.7,28.66,North,360,11.0,11.0,92,0.00,,CLR,0.00,VWS V14.01,2013-09-27 15:13:00,
2013-09-27 11:14:00,72.1,69.7,28.66,NW,313,6.0,11.0,92,0.00,,CLR,0.00,VWS V14.01,2013-09-27 15:14:00,
2013-09-27 11:15:00,72.1,68.7,28.66,North,5,5.0,11.0,89,0.00,,CLR,0.00,VWS V14.01,2013-09-27 15:15:00,
2013-09-27 11:16:00,72.1,68.7,28.66,NNE,32,5.0,10.0,89,0.00,,CLR,0.00,VWS V14.01,2013-09-27 15:16:00,
2013-09-27 11:17:00,72.1,68.7,28.66,NNW,327,5.0,5.0,89,0.00,,CLR,0.00,VWS V14.01,2013-09-27 15:17:00,
2013-09-27 11:18:00,72.5,69.1,28.66,NNE,19,4.0,6.0,89,0.00,,CLR,0.00,VWS V14.01,2013-09-27 15:18:00,
2013-09-27 11:19:00,72.3,68.9,28.66,NNW,348,6.0,6.0,89,0.00,,CLR,0.00,VWS V14.01,2013-09-27 15:19:00,
2013-09-27 11:20:00,72.5,69.1,28.66,NW,309,12.0,12.0,89,0.00,,CLR,0.00,VWS V14.01,2013-09-27 15:20:00,
2013-09-27 11:21:00,72.5,69.1,28.66,NNW,342,4.0,12.0,89,0.00,,CLR,0.00,VWS V14.01,2013-09-27 15:21:00,
2013-09-27 11:22:00,72.5,69.1,28.54,North,355,5.0,7.0,89,0.00,,CLR,0.00,VWS V14.01,2013-09-27 15:22:00,
2013-09-27 11:23:00,72.7,69.3,28.54,NNW,336,8.0,12.0,89,0.00,,CLR,0.00,VWS V14.01,2013-09-27 15:23:00,
2013-09-27 11:24:00,72.5,69.1,28.54,NE,42,12.0,12.0,89,0.00,,CLR,0.00,VWS V14.01,2013-09-27 15:24:00,
2013-09-27 11:25:00,72.7,68.9,28.54,NE,38,6.0,12.0,88,0.00,,CLR,0.00,VWS V14.01,2013-09-27 15:25:00,
2013-09-27 11:26:00,72.7,68.9,28.54,ENE,68,10.0,11.0,88,0.00,,CLR,0.00,VWS V14.01,2013-09-27 15:26:00,
2013-09-27 11:27:00,72.7,68.9,28.54,NE,42,5.0,10.0,88,0.00,,CLR,0.00,VWS V14.01,2013-09-27 15:27:00,
2013-09-27 11:28:00,72.7,68.9,28.54,NE,44,6.0,7.0,88,0.00,,CLR,0.00,VWS V14.01,2013-09-27 15:28:00,
2013-09-27 11:29:00,72.7,68.9,28.54,NNE,27,7.0,7.0,88,0.00,,CLR,0.00,VWS V14.01,2013-09-27 15:29:00,
2013-09-27 11:30:00,72.7,68.9,28.54,NE,56,7.0,7.0,88,0.00,,CLR,0.00,VWS V14.01,2013-09-27 15:30:00,
2013-09-27 11:31:00,72.8,69.0,28.54,NNW,327,4.0,7.0,88,0.00,,CLR,0.00,VWS V14.01,2013-09-27 15:31:00,
2013-09-27 11:32:00,73.0,69.2,28.54,NE,44,4.0,9.0,88,0.00,,CLR,0.00,VWS V14.01,2013-09-27 15:32:00,
2013-09-27 11:33:00,73.0,69.2,28.54,North,355,7.0,7.0,88,0.00,,CLR,0.00,VWS V14.01,2013-09-27 15:33:00,
2013-09-27 11:34:00,73.0,69.2,28.54,NNE,15,5.0,12.0,88,0.00,,CLR,0.00,VWS V14.01,2013-09-27 15:34:00,
2013-09-27 11:35:00,73.0,68.9,28.54,NE,42,3.0,7.0,87,0.00,,CLR,0.00,VWS V14.01,2013-09-27 15:35:00,
2013-09-27 11:38:00,73.0,68.9,28.54,North,360,4.0,6.0,87,0.00,,CLR,0.00,VWS V14.01,2013-09-27 15:38:00,
2013-09-27 11:40:00,73.0,68.9,28.54,NNW,332,10.0,10.0,87,0.00,,CLR,0.00,VWS V14.01,2013-09-27 15:40:00,
2013-09-27 11:41:00,73.2,69.1,28.54,NNW,341,10.0,12.0,87,0.00,,CLR,0.00,VWS V14.01,2013-09-27 15:41:00,
2013-09-27 11:42:00,73.2,69.1,28.54,East,92,3.0,10.0,87,0.00,,CLR,0.00,VWS V14.01,2013-09-27 15:42:00,
2013-09-27 11:43:00,73.3,69.2,28.54,ENE,66,5.0,5.0,87,0.00,,CLR,0.00,VWS V14.01,2013-09-27 15:43:00,
2013-09-27 11:44:00,73.3,69.2,28.54,NW,323,4.0,12.0,87,0.00,,CLR,0.00,VWS V14.01,2013-09-27 15:44:00,
2013-09-27 11:45:00,73.3,69.2,28.54,ENE,59,7.0,7.0,87,0.00,,CLR,0.00,VWS V14.01,2013-09-27 15:45:00,
2013-09-27 11:46:00,73.5,69.4,28.54,NNE,24,2.0,7.0,87,0.00,,CLR,0.00,VWS V14.01,2013-09-27 15:46:00,
2013-09-27 11:47:00,73.7,69.6,28.54,NNW,331,13.0,13.0,87,0.00,,CLR,0.00,VWS V14.01,2013-09-27 15:47:00,
2013-09-27 11:48:00,73.9,69.8,28.66,NNW,340,4.0,6.0,87,0.00,,CLR,0.00,VWS V14.01,2013-09-27 15:48:00,
2013-09-27 11:49:00,73.9,69.8,28.54,ENE,59,4.0,10.0,87,0.00,,CLR,0.00,VWS V14.01,2013-09-27 15:49:00,
2013-09-27 11:50:00,74.0,69.9,28.66,ENE,59,4.0,6.0,87,0.00,,CLR,0.00,VWS V14.01,2013-09-27 15:50:00,
2013-09-27 11:51:00,74.0,69.6,28.66,NE,41,5.0,10.0,86,0.00,,CLR,0.00,VWS V14.01,2013-09-27 15:51:00,
2013-09-27 11:52:00,74.0,69.6,28.66,ENE,64,5.0,12.0,86,0.00,,CLR,0.00,VWS V14.01,2013-09-27 15:52:00,
2013-09-27 11:53:00,74.0,69.2,28.66,ENE,63,8.0,9.0,85,0.00,,CLR,0.00,VWS V14.01,2013-09-27 15:53:00,
2013-09-27 11:54:00,74.0,69.2,28.66,ENE,59,9.0,9.0,85,0.00,,CLR,0.00,VWS V14.01,2013-09-27 15:54:00,
2013-09-27 11:55:00,74.0,69.2,28.66,North,350,7.0,9.0,85,0.00,,CLR,0.00,VWS V14.01,2013-09-27 15:55:00,
2013-09-27 11:56:00,74.0,69.6,28.66,NNW,342,7.0,7.0,86,0.00,,CLR,0.00,VWS V14.01,2013-09-27 15:56:00,
2013-09-27 11:57:00,73.9,69.4,28.66,NE,55,2.0,8.0,86,0.00,,CLR,0.00,VWS V14.01,2013-09-27 15:57:00,
2013-09-27 11:58:00,74.0,69.6,28.66,NE,38,4.0,5.0,86,0.00,,CLR,0.00,VWS V14.01,2013-09-27 15:58:00,
2013-09-27 11:59:00,74.0,69.6,28.66,North,355,5.0,10.0,86,0.00,,CLR,0.00,VWS V14.01,2013-09-27 15:59:00,
2013-09-27 12:00:00,74.2,69.8,28.66,North,5,5.0,5.0,86,0.00,,CLR,0.00,VWS V14.01,2013-09-27 16:00:00,
2013-09-27 12:01:00,74.2,69.8,28.66,ENE,61,5.0,7.0,86,0.00,,CLR,0.00,VWS V14.01,2013-09-27 16:01:00,
2013-09-27 12:02:00,74.4,69.9,28.66,NE,56,5.0,9.0,86,0.00,,CLR,0.00,VWS V14.01,2013-09-27 16:02:00,
2013-09-27 12:03:00,74.4,69.6,28.68,NNE,22,5.0,6.0,85,0.00,,CLR,0.00,VWS V14.01,2013-09-27 16:03:00,
2013-09-27 12:04:00,74.4,69.6,28.68,ENE,74,6.0,10.0,85,0.00,,CLR,0.00,VWS V14.01,2013-09-27 16:04:00,
2013-09-27 12:05:00,74.4,69.6,28.68,NNE,18,13.0,13.0,85,0.00,,CLR,0.00,VWS V14.01,2013-09-27 16:05:00,
2013-09-27 12:06:00,74.4,69.6,28.68,North,355,9.0,13.0,85,0.00,,CLR,0.00,VWS V14.01,2013-09-27 16:06:00,
2013-09-27 12:07:00,74.4,69.6,28.68,NE,49,7.0,11.0,85,0.00,,CLR,0.00,VWS V14.01,2013-09-27 16:07:00,
2013-09-27 12:08:00,74.4,69.6,28.67,NNW,340,6.0,9.0,85,0.00,,CLR,0.00,VWS V14.01,2013-09-27 16:08:00,
2013-09-27 12:09:00,74.4,69.6,28.68,NNE,24,9.0,11.0,85,0.00,,CLR,0.00,VWS V14.01,2013-09-27 16:09:00,
2013-09-27 12:10:00,74.4,69.6,28.67,NNE,22,10.0,10.0,85,0.00,,CLR,0.00,VWS V14.01,2013-09-27 16:10:00,
2013-09-27 12:11:00,74.4,69.6,28.60,NNW,346,8.0,10.0,85,0.00,,CLR,0.00,VWS V14.01,2013-09-27 16:11:00,
2013-09-27 12:12:00,74.2,69.4,28.60,NNE,15,8.0,10.0,85,0.00,,CLR,0.00,VWS V14.01,2013-09-27 16:12:00,
2013-09-27 12:13:00,74.4,69.6,28.59,North,11,7.0,7.0,85,0.00,,CLR,0.00,VWS V14.01,2013-09-27 16:13:00,
2013-09-27 12:14:00,74.2,69.4,28.60,ENE,60,5.0,10.0,85,0.00,,CLR,0.00,VWS V14.01,2013-09-27 16:14:00,
2013-09-27 12:15:00,74.4,69.6,28.59,North,355,5.0,10.0,85,0.00,,CLR,0.00,VWS V14.01,2013-09-27 16:15:00,
2013-09-27 12:16:00,74.4,69.6,28.59,NE,53,4.0,10.0,85,0.00,,CLR,0.00,VWS V14.01,2013-09-27 16:16:00,
2013-09-27 12:17:00,74.4,69.6,28.59,NE,46,7.0,7.0,85,0.00,,CLR,0.00,VWS V14.01,2013-09-27 16:17:00,
2013-09-27 12:18:00,74.6,69.8,28.59,NE,37,5.0,11.0,85,0.00,,CLR,0.00,VWS V14.01,2013-09-27 16:18:00,
2013-09-27 12:19:00,74.6,69.8,28.59,ENE,71,6.0,6.0,85,0.00,,CLR,0.00,VWS V14.01,2013-09-27 16:19:00,
2013-09-27 12:21:00,74.6,69.8,28.59,NNE,22,4.0,6.0,85,0.00,,CLR,0.00,VWS V14.01,2013-09-27 16:21:00,
2013-09-27 12:22:00,74.7,69.9,28.70,NE,34,10.0,12.0,85,0.00,,CLR,0.00,VWS V14.01,2013-09-27 16:22:00,
2013-09-27 12:23:00,74.7,69.9,28.70,NW,311,10.0,10.0,85,0.00,,CLR,0.00,VWS V14.01,2013-09-27 16:23:00,
2013-09-27 12:24:00,74.7,69.9,28.70,NNW,327,5.0,7.0,85,0.00,,CLR,0.00,VWS V14.01,2013-09-27 16:24:00,
2013-09-27 12:25:00,74.7,69.6,28.70,NNW,333,6.0,13.0,84,0.00,,CLR,0.00,VWS V14.01,2013-09-27 16:25:00,
2013-09-27 12:26:00,74.7,69.6,28.70,North,5,9.0,9.0,84,0.00,,CLR,0.00,VWS V14.01,2013-09-27 16:26:00,
2013-09-27 12:27:00,74.7,69.6,28.70,NE,51,7.0,9.0,84,0.00,,CLR,0.00,VWS V14.01,2013-09-27 16:27:00,
2013-09-27 12:28:00,74.9,69.7,28.70,NW,311,8.0,8.0,84,0.00,,CLR,0.00,VWS V14.01,2013-09-27 16:28:00,
2013-09-27 12:29:00,74.9,69.7,28.70,NW,313,5.0,10.0,84,0.00,,CLR,0.00,VWS V14.01,2013-09-27 16:29:00,
2013-09-27 12:30:00,74.9,69.7,28.70,NW,325,5.0,8.0,84,0.00,,CLR,0.00,VWS V14.01,2013-09-27 16:30:00,
2013-09-27 12:31:00,74.9,69.7,28.70,NE,44,5.0,9.0,84,0.00,,CLR,0.00,VWS V14.01,2013-09-27 16:31:00,
2013-09-27 12:32:00,74.9,69.7,28.70,NE,55,6.0,7.0,84,0.00,,CLR,0.00,VWS V14.01,2013-09-27 16:32:00,
2013-09-27 12:33:00,75.3,70.1,28.70,East,86,3.0,3.0,84,0.00,,CLR,0.00,VWS V14.01,2013-09-27 16:33:00,
2013-09-27 12:34:00,75.1,69.9,28.70,ENE,73,3.0,4.0,84,0.00,,CLR,0.00,VWS V14.01,2013-09-27 16:34:00,
2013-09-27 12:35:00,75.4,70.2,28.70,NNE,23,3.0,11.0,84,0.00,,CLR,0.00,VWS V14.01,2013-09-27 16:35:00,
2013-09-27 12:36:00,75.6,70.4,28.70,NE,41,4.0,9.0,84,0.00,,CLR,0.00,VWS V14.01,2013-09-27 16:36:00,
2013-09-27 12:37:00,75.6,70.4,28.70,North,9,10.0,10.0,84,0.00,,CLR,0.00,VWS V14.01,2013-09-27 16:37:00,
2013-09-27 12:38:00,75.6,70.1,28.70,NE,42,5.0,6.0,83,0.00,,CLR,0.00,VWS V14.01,2013-09-27 16:38:00,
2013-09-27 12:39:00,75.6,70.1,28.70,North,5,6.0,6.0,83,0.00,,CLR,0.00,VWS V14.01,2013-09-27 16:39:00,
2013-09-27 12:40:00,75.8,70.3,28.70,NNE,26,11.0,11.0,83,0.00,,CLR,0.00,VWS V14.01,2013-09-27 16:40:00,
2013-09-27 12:41:00,75.8,70.3,28.70,ENE,70,3.0,11.0,83,0.00,,CLR,0.00,VWS V14.01,2013-09-27 16:41:00,
2013-09-27 12:42:00,75.8,70.3,28.70,NE,46,4.0,10.0,83,0.00,,CLR,0.00,VWS V14.01,2013-09-27 16:42:00,
2013-09-27 12:43:00,75.8,70.3,28.74,NNE,12,6.0,13.0,83,0.00,,CLR,0.00,VWS V14.01,2013-09-27 16:43:00,
2013-09-27 12:44:00,75.8,70.3,28.74,NNE,24,13.0,13.0,83,0.00,,CLR,0.00,VWS V14.01,2013-09-27 16:44:00,
2013-09-27 12:45:00,75.6,70.1,28.74,NE,43,8.0,13.0,83,0.00,,CLR,0.00,VWS V14.01,2013-09-27 16:45:00,
2013-09-27 12:46:00,75.6,69.7,28.74,ENE,58,5.0,10.0,82,0.00,,CLR,0.00,VWS V14.01,2013-09-27 16:46:00,
2013-09-27 12:47:00,75.4,69.9,28.78,NE,38,5.0,9.0,83,0.00,,CLR,0.00,VWS V14.01,2013-09-27 16:47:00,
2013-09-27 12:48:00,75.6,70.4,28.78,ENE,65,7.0,7.0,84,0.00,,CLR,0.00,VWS V14.01,2013-09-27 16:48:00,
2013-09-27 12:49:00,75.4,70.2,28.78,NE,42,3.0,7.0,84,0.00,,CLR,0.00,VWS V14.01,2013-09-27 16:49:00,
2013-09-27 12:50:00,75.6,70.1,28.78,NE,46,11.0,11.0,83,0.00,,CLR,0.00,VWS V14.01,2013-09-27 16:50:00,
2013-09-27 12:51:00,75.6,70.1,28.78,NE,44,3.0,11.0,83,0.00,,CLR,0.00,VWS V14.01,2013-09-27 16:51:00,
2013-09-27 12:52:00,75.6,70.1,28.78,ENE,63,2.0,8.0,83,0.00,,CLR,0.00,VWS V14.01,2013-09-27 16:52:00,
2013-09-27 12:53:00,76.0,70.8,28.78,ENE,60,5.0,6.0,84,0.00,,CLR,0.00,VWS V14.01,2013-09-27 16:53:00,
2013-09-27 12:54:00,75.8,70.6,28.78,ENE,62,6.0,6.0,84,0.00,,CLR,0.00,VWS V14.01,2013-09-27 16:54:00,
2013-09-27 12:55:00,76.0,70.8,28.78,NW,319,0.0,6.0,84,0.00,,CLR,0.00,VWS V14.01,2013-09-27 16:55:00,
2013-09-27 12:56:00,76.1,70.6,28.69,NE,44,9.0,10.0,83,0.00,,CLR,0.00,VWS V14.01,2013-09-27 16:56:00,
2013-09-27 12:57:00,76.1,70.6,28.69,North,351,3.0,9.0,83,0.00,,CLR,0.00,VWS V14.01,2013-09-27 16:57:00,
2013-09-27 12:58:00,76.1,70.6,28.61,WNW,300,9.0,9.0,83,0.00,,CLR,0.00,VWS V14.01,2013-09-27 16:58:00,
2013-09-27 12:59:00,76.1,70.6,28.61,ENE,61,7.0,7.0,83,0.00,,CLR,0.00,VWS V14.01,2013-09-27 16:59:00,
2013-09-27 13:00:00,76.0,70.1,28.61,NE,36,9.0,11.0,82,0.00,,CLR,0.00,VWS V14.01,2013-09-27 17:00:00,
2013-09-27 13:02:00,76.0,70.1,28.79,ENE,62,3.0,5.0,82,0.00,,CLR,0.00,VWS V14.01,2013-09-27 17:02:00,
2013-09-27 13:03:00,76.0,70.1,28.79,NE,35,12.0,12.0,82,0.00,,CLR,0.00,VWS V14.01,2013-09-27 17:03:00,
2013-09-27 13:04:00,76.0,70.1,28.79,NE,51,12.0,12.0,82,0.00,,CLR,0.00,VWS V14.01,2013-09-27 17:04:00,
2013-09-27 13:05:00,76.0,70.1,28.79,NE,45,10.0,12.0,82,0.00,,CLR,0.00,VWS V14.01,2013-09-27 17:05:00,
2013-09-27 13:06:00,75.8,69.9,28.79,NNE,27,11.0,16.0,82,0.00,,CLR,0.00,VWS V14.01,2013-09-27 17:06:00,
2013-09-27 13:07:00,75.6,69.7,28.79,NE,44,11.0,11.0,82,0.00,,CLR,0.00,VWS V14.01,2013-09-27 17:07:00,
2013-09-27 13:08:00,75.4,69.5,28.68,NE,34,6.0,9.0,82,0.00,,CLR,0.00,VWS V14.01,2013-09-27 17:08:00,
2013-09-27 13:09:00,75.4,69.5,28.68,NNW,342,9.0,13.0,82,0.00,,CLR,0.00,VWS V14.01,2013-09-27 17:09:00,
2013-09-27 13:10:00,75.3,69.8,28.68,North,360,5.0,10.0,83,0.00,,CLR,0.00,VWS V14.01,2013-09-27 17:10:00,
2013-09-27 13:11:00,75.3,69.8,28.68,ENE,62,12.0,12.0,83,0.00,,CLR,0.00,VWS V14.01,2013-09-27 17:11:00,
2013-09-27 13:12:00,75.4,69.9,28.68,East,81,8.0,12.0,83,0.00,,CLR,0.00,VWS V14.01,2013-09-27 17:12:00,
2013-09-27 13:13:00,75.4,69.9,28.68,North,5,6.0,6.0,83,0.00,,CLR,0.00,VWS V14.01,2013-09-27 17:13:00,
2013-09-27 13:14:00,75.4,69.9,28.68,NE,46,2.0,13.0,83,0.00,,CLR,0.00,VWS V14.01,2013-09-27 17:14:00,
2013-09-27 13:15:00,75.4,69.9,28.68,North,5,3.0,6.0,83,0.00,,CLR,0.00,VWS V14.01,2013-09-27 17:15:00,
2013-09-27 13:16:00,75.4,69.9,28.68,ENE,67,3.0,7.0,83,0.00,,CLR,0.00,VWS V14.01,2013-09-27 17:16:00,
2013-09-27 13:17:00,75.4,69.9,28.76,ENE,75,10.0,10.0,83,0.00,,CLR,0.00,VWS V14.01,2013-09-27 17:17:00,
2013-09-27 13:18:00,75.4,69.9,28.81,NE,48,3.0,6.0,83,0.00,,CLR,0.00,VWS V14.01,2013-09-27 17:18:00,
2013-09-27 13:19:00,75.3,69.8,28.81,NE,36,6.0,12.0,83,0.00,,CLR,0.00,VWS V14.01,2013-09-27 17:19:00,
2013-09-27 13:20:00,75.4,69.9,28.81,NNE,14,11.0,11.0,83,0.00,,CLR,0.00,VWS V14.01,2013-09-27 17:20:00,
2013-09-27 13:21:00,75.4,70.2,28.81,NNE,29,7.0,11.0,84,0.00,,CLR,0.00,VWS V14.01,2013-09-27 17:21:00,
2013-09-27 13:22:00,75.4,69.9,28.64,ENE,60,6.0,12.0,83,0.00,,CLR,0.00,VWS V14.01,2013-09-27 17:22:00,
2013-09-27 13:23:00,75.4,69.9,28.64,ENE,78,6.0,10.0,83,0.00,,CLR,0.00,VWS V14.01,2013-09-27 17:23:00,
2013-09-27 13:24:00,75.4,69.9,28.64,NE,41,10.0,10.0,83,0.00,,CLR,0.00,VWS V14.01,2013-09-27 17:24:00,
2013-09-27 13:25:00,75.4,69.9,28.64,ENE,59,3.0,10.0,83,0.00,,CLR,0.00,VWS V14.01,2013-09-27 17:25:00,
2013-09-27 13:26:00,75.4,69.9,28.74,NE,46,5.0,8.0,83,0.00,,CLR,0.00,VWS V14.01,2013-09-27 17:26:00,
2013-09-27 13:27:00,75.4,69.9,28.74,NE,46,5.0,8.0,83,0.00,,CLR,0.00,VWS V14.01,2013-09-27 17:27:00,
2013-09-27 13:28:00,75.4,69.9,28.69,ENE,60,7.0,12.0,83,0.00,,CLR,0.00,VWS V14.01,2013-09-27 17:28:00,
2013-09-27 13:29:00,75.4,69.9,28.69,North,11,3.0,7.0,83,0.00,,CLR,0.00,VWS V14.01,2013-09-27 17:29:00,
2013-09-27 13:30:00,75.4,69.9,28.74,NE,45,9.0,10.0,83,0.00,,CLR,0.00,VWS V14.01,2013-09-27 17:30:00,
2013-09-27 13:31:00,75.4,70.2,28.74,NE,47,4.0,9.0,84,0.00,,CLR,0.00,VWS V14.01,2013-09-27 17:31:00,
2013-09-27 13:32:00,75.4,70.2,28.74,NE,47,4.0,9.0,84,0.00,,CLR,0.00,VWS V14.01,2013-09-27 17:32:00,
2013-09-27 13:33:00,75.4,70.2,28.74,NE,55,7.0,7.0,84,0.00,,CLR,0.00,VWS V14.01,2013-09-27 17:33:00,
2013-09-27 13:34:00,75.6,70.1,28.76,NE,46,4.0,7.0,83,0.00,,CLR,0.00,VWS V14.01,2013-09-27 17:34:00,
2013-09-27 13:35:00,75.6,70.1,28.76,NNE,28,5.0,8.0,83,0.00,,CLR,0.00,VWS V14.01,2013-09-27 17:35:00,
2013-09-27 13:36:00,76.0,70.5,28.76,ENE,65,3.0,9.0,83,0.00,,FEW035,0.00,VWS V14.01,2013-09-27 17:36:00,
2013-09-27 13:37:00,76.0,70.5,28.76,ENE,65,3.0,9.0,83,0.00,,CLR,0.00,VWS V14.01,2013-09-27 17:37:00,
2013-09-27 13:38:00,76.0,70.5,28.76,NNE,29,4.0,7.0,83,0.00,,CLR,0.00,VWS V14.01,2013-09-27 17:38:00,
2013-09-27 13:39:00,76.1,70.6,28.76,NE,41,7.0,7.0,83,0.00,,CLR,0.00,VWS V14.01,2013-09-27 17:39:00,
2013-09-27 13:40:00,76.1,70.6,28.76,ENE,72,9.0,13.0,83,0.00,,CLR,0.00,VWS V14.01,2013-09-27 17:40:00,
2013-09-27 13:41:00,76.1,70.6,28.75,NE,34,9.0,12.0,83,0.00,,FEW035,0.00,VWS V14.01,2013-09-27 17:41:00,
2013-09-27 13:42:00,76.1,70.6,28.75,NE,34,9.0,12.0,83,0.00,,CLR,0.00,VWS V14.01,2013-09-27 17:42:00,
2013-09-27 13:43:00,76.0,70.1,28.75,ENE,67,6.0,13.0,82,0.00,,CLR,0.00,VWS V14.01,2013-09-27 17:43:00,
2013-09-27 13:44:00,75.8,69.9,28.63,NE,56,5.0,6.0,82,0.00,,CLR,0.00,VWS V14.01,2013-09-27 17:44:00,
2013-09-27 13:45:00,76.0,70.8,28.63,North,11,11.0,11.0,84,0.00,,CLR,0.00,VWS V14.01,2013-09-27 17:45:00,
2013-09-27 13:46:00,75.8,70.3,28.63,ENE,71,6.0,7.0,83,0.00,,FEW035,0.00,VWS V14.01,2013-09-27 17:46:00,
2013-09-27 13:47:00,75.8,70.3,28.63,ENE,71,6.0,7.0,83,0.00,,CLR,0.00,VWS V14.01,2013-09-27 17:47:00,
2013-09-27 13:48:00,76.0,70.8,28.63,ENE,59,2.0,6.0,84,0.00,,CLR,0.00,VWS V14.01,2013-09-27 17:48:00,
2013-09-27 13:49:00,76.1,70.9,28.63,ENE,67,4.0,6.0,84,0.00,,CLR,0.00,VWS V14.01,2013-09-27 17:49:00,
2013-09-27 13:50:00,76.1,70.9,28.63,ENE,57,10.0,10.0,84,0.00,,CLR,0.00,VWS V14.01,2013-09-27 17:50:00,
2013-09-27 13:51:00,76.3,70.8,28.63,NE,55,9.0,11.0,83,0.00,,FEW035,0.00,VWS V14.01,2013-09-27 17:51:00,
2013-09-27 13:52:00,76.3,70.8,28.63,ENE,73,7.0,11.0,83,0.00,,CLR,0.00,VWS V14.01,2013-09-27 17:52:00,
2013-09-27 13:53:00,76.1,70.6,28.63,NE,36,13.0,14.0,83,0.00,,CLR,0.00,VWS V14.01,2013-09-27 17:53:00,
2013-09-27 13:54:00,76.0,70.5,28.63,ENE,74,7.0,13.0,83,0.00,,CLR,0.00,VWS V14.01,2013-09-27 17:54:00,
2013-09-27 13:55:00,76.0,70.8,28.63,NNE,31,6.0,11.0,84,0.00,,CLR,0.00,VWS V14.01,2013-09-27 17:55:00,
2013-09-27 13:56:00,75.8,70.6,28.63,ENE,74,6.0,6.0,84,0.00,,FEW035,0.00,VWS V14.01,2013-09-27 17:56:00,
2013-09-27 13:57:00,75.8,70.6,28.63,ENE,74,6.0,6.0,84,0.00,,CLR,0.00,VWS V14.01,2013-09-27 17:57:00,
2013-09-27 13:58:00,75.8,70.6,28.63,NE,42,3.0,13.0,84,0.00,,CLR,0.00,VWS V14.01,2013-09-27 17:58:00,
2013-09-27 13:59:00,76.0,70.8,28.63,ENE,71,4.0,9.0,84,0.00,,CLR,0.00,VWS V14.01,2013-09-27 17:59:00,
2013-09-27 14:00:00,76.0,71.2,28.63,ENE,59,12.0,12.0,85,0.00,,CLR,0.00,VWS V14.01,2013-09-27 18:00:00,
2013-09-27 14:01:00,75.8,70.6,28.63,ENE,61,7.0,11.0,84,0.00,,FEW035,0.00,VWS V14.01,2013-09-27 18:01:00,
2013-09-27 14:02:00,75.8,70.6,28.63,ENE,61,7.0,11.0,84,0.00,,CLR,0.00,VWS V14.01,2013-09-27 18:02:00,
2013-09-27 14:03:00,75.6,70.4,28.63,ENE,57,5.0,11.0,84,0.00,,CLR,0.00,VWS V14.01,2013-09-27 18:03:00,
2013-09-27 14:04:00,75.8,70.6,28.63,ENE,69,12.0,12.0,84,0.00,,CLR,0.00,VWS V14.01,2013-09-27 18:04:00,
2013-09-27 14:05:00,75.8,70.6,28.63,NNW,327,6.0,12.0,84,0.00,,CLR,0.00,VWS V14.01,2013-09-27 18:05:00,
2013-09-27 14:06:00,75.8,70.6,28.95,ENE,60,5.0,11.0,84,0.00,,FEW035,0.00,VWS V14.01,2013-09-27 18:06:00,
2013-09-27 14:07:00,75.8,70.6,28.95,ENE,60,5.0,11.0,84,0.00,,CLR,0.00,VWS V14.01,2013-09-27 18:07:00,
2013-09-27 14:08:00,75.8,70.6,28.95,ENE,71,6.0,10.0,84,0.00,,CLR,0.00,VWS V14.01,2013-09-27 18:08:00,
2013-09-27 14:09:00,75.8,71.0,28.95,NE,51,2.0,10.0,85,0.00,,CLR,0.00,VWS V14.01,2013-09-27 18:09:00,
2013-09-27 14:10:00,76.0,71.2,28.96,ENE,57,1.0,7.0,85,0.00,,CLR,0.00,VWS V14.01,2013-09-27 18:10:00,
2013-09-27 14:11:00,76.1,71.3,28.96,ENE,65,7.0,7.0,85,0.00,,FEW035,0.00,VWS V14.01,2013-09-27 18:11:00,
2013-09-27 14:12:00,76.3,71.5,28.96,NE,49,4.0,7.0,85,0.00,,CLR,0.00,VWS V14.01,2013-09-27 18:12:00,
2013-09-27 14:13:00,76.3,71.1,28.96,ENE,66,9.0,13.0,84,0.00,,CLR,0.00,VWS V14.01,2013-09-27 18:13:00,
2013-09-27 14:14:00,76.0,70.5,28.96,ENE,67,4.0,15.0,83,0.00,,CLR,0.00,VWS V14.01,2013-09-27 18:14:00,
2013-09-27 14:15:00,76.0,70.5,28.96,ENE,61,15.0,15.0,83,0.00,,CLR,0.00,VWS V14.01,2013-09-27 18:15:00,
2013-09-27 14:16:00,75.8,70.6,28.96,ENE,58,11.0,12.0,84,0.00,,FEW035,0.00,VWS V14.01,2013-09-27 18:16:00,
2013-09-27 14:17:00,75.8,71.0,28.96,NE,55,10.0,12.0,85,0.00,,CLR,0.00,VWS V14.01,2013-09-27 18:17:00,
2013-09-27 14:18:00,75.8,71.0,28.96,NE,44,10.0,13.0,85,0.00,,CLR,0.00,VWS V14.01,2013-09-27 18:18:00,
2013-09-27 14:19:00,75.8,71.0,28.96,NE,38,9.0,13.0,85,0.00,,CLR,0.00,VWS V14.01,2013-09-27 18:19:00,
2013-09-27 14:20:00,75.8,70.6,28.96,NE,51,12.0,13.0,84,0.00,,CLR,0.00,VWS V14.01,2013-09-27 18:20:00,
2013-09-27 14:21:00,75.8,70.6,29.38,ENE,59,4.0,10.0,84,0.00,,FEW035,0.00,VWS V14.01,2013-09-27 18:21:00,
2013-09-27 14:22:00,75.8,71.0,29.38,NE,38,5.0,10.0,85,0.00,,CLR,0.00,VWS V14.01,2013-09-27 18:22:00,
2013-09-27 14:23:00,75.8,71.0,29.38,NE,50,6.0,11.0,85,0.00,,CLR,0.00,VWS V14.01,2013-09-27 18:23:00,
2013-09-27 14:24:00,75.8,70.6,29.38,NNE,19,1.0,7.0,84,0.00,,CLR,0.00,VWS V14.01,2013-09-27 18:24:00,
2013-09-27 14:25:00,75.8,71.0,29.38,NE,46,9.0,10.0,85,0.00,,CLR,0.00,VWS V14.01,2013-09-27 18:25:00,
2013-09-27 14:26:00,75.6,70.4,29.17,NE,44,14.0,14.0,84,0.00,,FEW035,0.00,VWS V14.01,2013-09-27 18:26:00,
2013-09-27 14:27:00,75.6,70.4,29.17,NE,44,14.0,14.0,84,0.00,,CLR,0.00,VWS V14.01,2013-09-27 18:27:00,
2013-09-27 14:28:00,75.4,70.2,29.17,NE,51,10.0,14.0,84,0.00,,CLR,0.00,VWS V14.01,2013-09-27 18:28:00,
2013-09-27 14:29:00,75.4,70.6,29.17,NE,37,14.0,14.0,85,0.00,,CLR,0.00,VWS V14.01,2013-09-27 18:29:00,
2013-09-27 14:30:00,75.6,70.8,29.17,NE,41,12.0,14.0,85,0.00,,CLR,0.00,VWS V14.01,2013-09-27 18:30:00,
2013-09-27 14:31:00,75.8,71.0,29.17,NE,40,12.0,12.0,85,0.00,,FEW035,0.00,VWS V14.01,2013-09-27 18:31:00,
2013-09-27 14:32:00,75.8,71.0,29.17,NE,40,12.0,12.0,85,0.00,,CLR,0.00,VWS V14.01,2013-09-27 18:32:00,
2013-09-27 14:33:00,75.8,71.0,29.17,NNW,340,4.0,12.0,85,0.00,,CLR,0.00,VWS V14.01,2013-09-27 18:33:00,
2013-09-27 14:34:00,76.0,71.2,29.17,ENE,76,6.0,10.0,85,0.00,,CLR,0.00,VWS V14.01,2013-09-27 18:34:00,
2013-09-27 14:35:00,76.0,70.8,29.17,ENE,65,12.0,13.0,84,0.00,,CLR,0.00,VWS V14.01,2013-09-27 18:35:00,
2013-09-27 14:36:00,75.8,70.6,29.17,NE,53,2.0,13.0,84,0.00,,CLR,0.00,VWS V14.01,2013-09-27 18:36:00,
2013-09-27 14:37:00,75.8,70.6,29.17,NE,53,2.0,13.0,84,0.00,,CLR,0.00,VWS V14.01,2013-09-27 18:37:00,
2013-09-27 14:38:00,76.0,71.2,29.17,ENE,64,4.0,6.0,85,0.00,,CLR,0.00,VWS V14.01,2013-09-27 18:38:00,
2013-09-27 14:39:00,76.0,70.1,29.17,East,88,10.0,12.0,82,0.00,,CLR,0.00,VWS V14.01,2013-09-27 18:39:00,
2013-09-27 14:40:00,76.1,71.3,29.17,North,5,5.0,10.0,85,0.00,,CLR,0.00,VWS V14.01,2013-09-27 18:40:00,
2013-09-27 14:41:00,76.3,71.1,29.09,NE,55,11.0,11.0,84,0.00,,CLR,0.00,VWS V14.01,2013-09-27 18:41:00,
2013-09-27 14:42:00,76.3,71.1,29.09,NE,55,11.0,11.0,84,0.00,,CLR,0.00,VWS V14.01,2013-09-27 18:42:00,
2013-09-27 14:43:00,76.3,71.1,29.09,NNE,33,6.0,11.0,84,0.00,,CLR,0.00,VWS V14.01,2013-09-27 18:43:00,
2013-09-27 14:44:00,76.3,71.5,29.09,NE,43,6.0,7.0,85,0.00,,CLR,0.00,VWS V14.01,2013-09-27 18:44:00,
2013-09-27 14:45:00,76.5,72.0,29.09,ENE,74,3.0,10.0,86,0.00,,CLR,0.00,VWS V14.01,2013-09-27 18:45:00,
2013-09-27 14:46:00,76.7,71.5,29.09,ENE,65,10.0,18.0,84,0.00,,CLR,0.00,VWS V14.01,2013-09-27 18:46:00,
2013-09-27 14:47:00,76.7,71.5,29.09,ENE,65,10.0,18.0,84,0.00,,CLR,0.00,VWS V14.01,2013-09-27 18:47:00,
2013-09-27 14:48:00,76.5,71.7,29.09,NE,56,14.0,14.0,85,0.00,,CLR,0.00,VWS V14.01,2013-09-27 18:48:00,
2013-09-27 14:49:00,76.5,71.7,29.09,NE,38,2.0,14.0,85,0.00,,CLR,0.00,VWS V14.01,2013-09-27 18:49:00,
2013-09-27 14:50:00,76.5,72.0,29.09,ENE,66,5.0,7.0,86,0.00,,CLR,0.00,VWS V14.01,2013-09-27 18:50:00,
2013-09-27 14:51:00,76.5,71.7,29.09,ENE,69,10.0,15.0,85,0.00,,CLR,0.00,VWS V14.01,2013-09-27 18:51:00,
2013-09-27 14:52:00,76.5,71.7,29.09,ENE,75,6.0,15.0,85,0.00,,CLR,0.00,VWS V14.01,2013-09-27 18:52:00,
2013-09-27 14:53:00,76.3,71.5,29.09,NE,50,12.0,13.0,85,0.00,,CLR,0.00,VWS V14.01,2013-09-27 18:53:00,
2013-09-27 14:55:00,76.3,71.8,29.09,NE,55,11.0,12.0,86,0.00,,CLR,0.00,VWS V14.01,2013-09-27 18:55:00,
2013-09-27 14:56:00,76.3,72.5,29.09,NE,39,13.0,16.0,88,0.00,,CLR,0.00,VWS V14.01,2013-09-27 18:56:00,
2013-09-27 14:57:00,76.3,72.5,29.09,NE,40,14.0,16.0,88,0.00,,CLR,0.00,VWS V14.01,2013-09-27 18:57:00,
2013-09-27 14:58:00,76.1,71.6,29.09,NE,48,11.0,14.0,86,0.00,,CLR,0.00,VWS V14.01,2013-09-27 18:58:00,
2013-09-27 14:59:00,76.3,72.2,29.09,ENE,78,6.0,11.0,87,0.00,,CLR,0.00,VWS V14.01,2013-09-27 18:59:00,
2013-09-27 15:00:00,76.3,72.2,29.09,ENE,77,6.0,7.0,87,0.00,,CLR,0.00,VWS V14.01,2013-09-27 19:00:00,
2013-09-27 15:01:00,76.5,72.3,29.09,ENE,69,7.0,9.0,87,0.00,,CLR,0.00,VWS V14.01,2013-09-27 19:01:00,
2013-09-27 15:02:00,76.5,72.3,29.09,ENE,69,7.0,9.0,87,0.00,,CLR,0.00,VWS V14.01,2013-09-27 19:02:00,
2013-09-27 15:03:00,76.5,72.3,29.09,NE,55,13.0,13.0,87,0.00,,CLR,0.00,VWS V14.01,2013-09-27 19:03:00,
2013-09-27 15:04:00,76.3,72.2,29.09,ENE,71,7.0,13.0,87,0.00,,CLR,0.00,VWS V14.01,2013-09-27 19:04:00,
2013-09-27 15:05:00,76.3,72.2,29.09,ENE,63,9.0,9.0,87,0.00,,CLR,0.00,VWS V14.01,2013-09-27 19:05:00,
2013-09-27 15:06:00,76.3,72.2,29.13,NE,46,10.0,14.0,87,0.00,,CLR,0.00,VWS V14.01,2013-09-27 19:06:00,
2013-09-27 15:07:00,76.3,72.2,29.13,ENE,67,11.0,14.0,87,0.00,,CLR,0.00,VWS V14.01,2013-09-27 19:07:00,
2013-09-27 15:08:00,76.3,72.2,29.13,NE,52,9.0,11.0,87,0.00,,CLR,0.00,VWS V14.01,2013-09-27 19:08:00,
2013-09-27 15:09:00,76.5,72.3,29.13,NNE,32,7.0,13.0,87,0.00,,CLR,0.00,VWS V14.01,2013-09-27 19:09:00,
2013-09-27 15:10:00,76.5,72.0,29.13,ENE,65,5.0,15.0,86,0.00,,CLR,0.00,VWS V14.01,2013-09-27 19:10:00,
2013-09-27 15:11:00,76.3,71.8,29.13,NE,52,15.0,15.0,86,0.00,,CLR,0.00,VWS V14.01,2013-09-27 19:11:00,
2013-09-27 15:12:00,76.3,71.5,29.13,ENE,71,11.0,15.0,85,0.00,,CLR,0.00,VWS V14.01,2013-09-27 19:12:00,
2013-09-27 15:13:00,76.1,71.6,29.13,NE,55,13.0,15.0,86,0.00,,CLR,0.00,VWS V14.01,2013-09-27 19:13:00,
2013-09-27 15:14:00,76.0,71.5,29.13,ENE,67,14.0,14.0,86,0.00,,CLR,0.00,VWS V14.01,2013-09-27 19:14:00,
2013-09-27 15:15:00,76.0,71.5,29.13,NE,49,9.0,14.0,86,0.00,,CLR,0.00,VWS V14.01,2013-09-27 19:15:00,
2013-09-27 15:16:00,76.1,71.6,29.13,NE,54,13.0,13.0,86,0.00,,CLR,0.00,VWS V14.01,2013-09-27 19:16:00,
2013-09-27 15:17:00,76.1,71.6,29.13,NE,50,8.0,13.0,86,0.00,,CLR,0.00,VWS V14.01,2013-09-27 19:17:00,
2013-09-27 15:18:00,76.3,71.8,29.13,ENE,71,9.0,10.0,86,0.00,,CLR,0.00,VWS V14.01,2013-09-27 19:18:00,
2013-09-27 15:19:00,76.3,71.8,29.13,NE,40,10.0,20.0,86,0.00,,CLR,0.00,VWS V14.01,2013-09-27 19:19:00,
2013-09-27 15:20:00,76.1,71.3,29.30,ENE,72,5.0,16.0,85,0.00,,CLR,0.00,VWS V14.01,2013-09-27 19:20:00,
2013-09-27 15:21:00,76.3,71.8,29.30,NE,44,4.0,12.0,86,0.00,,CLR,0.00,VWS V14.01,2013-09-27 19:21:00,
2013-09-27 15:22:00,76.3,71.8,29.30,NE,49,9.0,12.0,86,0.00,,CLR,0.00,VWS V14.01,2013-09-27 19:22:00,
2013-09-27 15:23:00,76.5,72.0,29.30,NNE,19,6.0,9.0,86,0.00,,CLR,0.00,VWS V14.01,2013-09-27 19:23:00,
2013-09-27 15:24:00,76.7,72.2,29.30,ENE,62,6.0,12.0,86,0.00,,CLR,0.00,VWS V14.01,2013-09-27 19:24:00,
2013-09-27 15:25:00,76.7,72.2,29.30,NE,45,7.0,16.0,86,0.00,,CLR,0.00,VWS V14.01,2013-09-27 19:25:00,
2013-09-27 15:26:00,76.7,72.2,29.30,East,90,5.0,7.0,86,0.00,,CLR,0.00,VWS V14.01,2013-09-27 19:26:00,
2013-09-27 15:27:00,76.7,72.2,29.30,ENE,57,4.0,7.0,86,0.00,,CLR,0.00,VWS V14.01,2013-09-27 19:27:00,
2013-09-27 15:28:00,76.8,72.6,29.30,NE,48,12.0,14.0,87,0.00,,CLR,0.00,VWS V14.01,2013-09-27 19:28:00,
2013-09-27 15:29:00,76.7,71.9,29.30,NE,46,12.0,14.0,85,0.00,,CLR,0.00,VWS V14.01,2013-09-27 19:29:00,
2013-09-27 15:30:00,76.5,71.7,29.30,ENE,67,9.0,17.0,85,0.00,,CLR,0.00,VWS V14.01,2013-09-27 19:30:00,
2013-09-27 15:31:00,76.5,72.0,29.30,ENE,62,16.0,16.0,86,0.00,,CLR,0.00,VWS V14.01,2013-09-27 19:31:00,
2013-09-27 15:32:00,76.5,72.0,29.30,NE,54,13.0,16.0,86,0.00,,CLR,0.00,VWS V14.01,2013-09-27 19:32:00,
2013-09-27 15:33:00,76.5,72.0,29.30,NE,45,12.0,14.0,86,0.00,,CLR,0.00,VWS V14.01,2013-09-27 19:33:00,
2013-09-27 15:34:00,76.5,72.0,28.90,NE,56,13.0,14.0,86,0.00,,CLR,0.00,VWS V14.01,2013-09-27 19:34:00,
2013-09-27 15:35:00,76.3,71.8,28.90,NE,36,12.0,13.0,86,0.00,,CLR,0.00,VWS V14.01,2013-09-27 19:35:00,
2013-09-27 15:36:00,76.3,71.5,28.90,NE,46,15.0,15.0,85,0.00,,FEW039,0.00,VWS V14.01,2013-09-27 19:36:00,
2013-09-27 15:37:00,76.3,71.5,28.90,NE,46,15.0,15.0,85,0.00,,CLR,0.00,VWS V14.01,2013-09-27 19:37:00,
2013-09-27 15:38:00,76.3,71.5,28.90,East,82,10.0,15.0,85,0.00,,CLR,0.00,VWS V14.01,2013-09-27 19:38:00,
2013-09-27 15:39:00,76.1,71.3,28.90,NE,45,12.0,17.0,85,0.00,,CLR,0.00,VWS V14.01,2013-09-27 19:39:00,
2013-09-27 15:40:00,76.1,71.6,28.90,ENE,69,10.0,14.0,86,0.00,,CLR,0.00,VWS V14.01,2013-09-27 19:40:00,
2013-09-27 15:41:00,76.1,71.6,28.90,NE,42,11.0,13.0,86,0.00,,FEW039,0.00,VWS V14.01,2013-09-27 19:41:00,
2013-09-27 15:42:00,76.1,71.6,28.90,ENE,70,14.0,14.0,86,0.00,,CLR,0.00,VWS V14.01,2013-09-27 19:42:00,
2013-09-27 15:43:00,76.1,71.6,28.90,NE,46,11.0,15.0,86,0.00,,CLR,0.00,VWS V14.01,2013-09-27 19:43:00,
2013-09-27 15:44:00,76.1,71.6,28.90,ENE,67,12.0,16.0,86,0.00,,CLR,0.00,VWS V14.01,2013-09-27 19:44:00,
2013-09-27 15:45:00,76.1,71.3,28.90,NE,50,13.0,13.0,85,0.00,,CLR,0.00,VWS V14.01,2013-09-27 19:45:00,
2013-09-27 15:46:00,76.1,71.9,28.90,ENE,61,17.0,17.0,87,0.00,,FEW039,0.00,VWS V14.01,2013-09-27 19:46:00,
2013-09-27 15:47:00,76.1,71.9,28.90,ENE,66,14.0,17.0,87,0.00,,CLR,0.00,VWS V14.01,2013-09-27 19:47:00,
2013-09-27 15:48:00,76.3,71.8,28.90,NE,49,12.0,15.0,86,0.00,,CLR,0.00,VWS V14.01,2013-09-27 19:48:00,
2013-09-27 15:49:00,76.3,71.8,28.90,ENE,71,14.0,14.0,86,0.00,,CLR,0.00,VWS V14.01,2013-09-27 19:49:00,
2013-09-27 15:50:00,76.3,71.8,28.90,ENE,64,15.0,15.0,86,0.00,,CLR,0.00,VWS V14.01,2013-09-27 19:50:00,
2013-09-27 15:51:00,76.3,71.8,28.90,ENE,61,13.0,17.0,86,0.00,,FEW039,0.00,VWS V14.01,2013-09-27 19:51:00,
2013-09-27 15:52:00,76.3,71.8,28.90,NE,51,15.0,17.0,86,0.00,,CLR,0.00,VWS V14.01,2013-09-27 19:52:00,
2013-09-27 15:53:00,76.3,71.5,28.90,NE,55,10.0,15.0,85,0.00,,CLR,0.00,VWS V14.01,2013-09-27 19:53:00,
2013-09-27 15:54:00,76.3,71.5,28.90,NE,53,17.0,17.0,85,0.00,,CLR,0.00,VWS V14.01,2013-09-27 19:54:00,
2013-09-27 15:55:00,76.3,71.1,28.90,NE,56,10.0,19.0,84,0.00,,CLR,0.00,VWS V14.01,2013-09-27 19:55:00,
2013-09-27 15:56:00,76.3,71.5,28.90,NE,55,11.0,14.0,85,0.00,,FEW039,0.00,VWS V14.01,2013-09-27 19:56:00,
2013-09-27 15:57:00,76.3,71.5,28.90,ENE,70,12.0,14.0,85,0.00,,CLR,0.00,VWS V14.01,2013-09-27 19:57:00,
2013-09-27 15:58:00,76.3,71.8,28.46,ENE,71,10.0,15.0,86,0.00,,CLR,0.00,VWS V14.01,2013-09-27 19:58:00,
2013-09-27 15:59:00,76.5,72.0,28.46,NE,39,8.0,12.0,86,0.00,,CLR,0.00,VWS V14.01,2013-09-27 19:59:00,
2013-09-27 16:00:00,76.3,71.5,28.46,ENE,65,13.0,15.0,85,0.00,,CLR,0.00,VWS V14.01,2013-09-27 20:00:00,
2013-09-27 16:01:00,76.3,71.5,28.46,East,99,3.0,10.0,85,0.00,,FEW039,0.00,VWS V14.01,2013-09-27 20:01:00,
2013-09-27 16:02:00,76.3,71.8,28.46,NNE,32,11.0,11.0,86,0.00,,CLR,0.00,VWS V14.01,2013-09-27 20:02:00,
2013-09-27 16:03:00,76.5,72.0,28.46,NE,49,12.0,17.0,86,0.00,,CLR,0.00,VWS V14.01,2013-09-27 20:03:00,
2013-09-27 16:04:00,76.5,72.0,28.46,ENE,71,10.0,12.0,86,0.00,,CLR,0.00,VWS V14.01,2013-09-27 20:04:00,
2013-09-27 16:05:00,76.7,72.2,28.46,ENE,61,15.0,15.0,86,0.00,,CLR,0.00,VWS V14.01,2013-09-27 20:05:00,
2013-09-27 16:06:00,76.7,71.9,28.46,ENE,61,10.0,16.0,85,0.00,,FEW039,0.00,VWS V14.01,2013-09-27 20:06:00,
2013-09-27 16:07:00,76.7,71.9,28.46,ENE,67,7.0,16.0,85,0.00,,CLR,0.00,VWS V14.01,2013-09-27 20:07:00,
2013-09-27 16:08:00,76.7,71.9,28.46,East,82,11.0,14.0,85,0.00,,CLR,0.00,VWS V14.01,2013-09-27 20:08:00,
2013-09-27 16:09:00,76.7,71.9,28.46,NE,55,12.0,14.0,85,0.00,,CLR,0.00,VWS V14.01,2013-09-27 20:09:00,
2013-09-27 16:10:00,76.8,71.9,28.46,ENE,71,11.0,13.0,85,0.00,,CLR,0.00,VWS V14.01,2013-09-27 20:10:00,
2013-09-27 16:11:00,76.8,71.9,28.46,ENE,57,12.0,12.0,85,0.00,,FEW039,0.00,VWS V14.01,2013-09-27 20:11:00,
2013-09-27 16:12:00,76.8,71.9,28.46,NE,52,15.0,15.0,85,0.00,,CLR,0.00,VWS V14.01,2013-09-27 20:12:00,
2013-09-27 16:13:00,76.8,71.6,28.46,ENE,70,11.0,15.0,84,0.00,,CLR,0.00,VWS V14.01,2013-09-27 20:13:00,
2013-09-27 16:14:00,76.7,71.5,28.46,ENE,65,18.0,18.0,84,0.00,,CLR,0.00,VWS V14.01,2013-09-27 20:14:00,
2013-09-27 16:15:00,76.5,71.3,28.46,ENE,57,13.0,18.0,84,0.00,,CLR,0.00,VWS V14.01,2013-09-27 20:15:00,
2013-09-27 16:16:00,76.3,70.8,28.46,ENE,74,13.0,18.0,83,0.00,,FEW039,0.00,VWS V14.01,2013-09-27 20:16:00,
2013-09-27 16:17:00,76.3,70.8,28.46,ENE,78,10.0,18.0,83,0.00,,CLR,0.00,VWS V14.01,2013-09-27 20:17:00,
2013-09-27 16:18:00,76.3,71.1,28.46,ENE,62,10.0,13.0,84,0.00,,CLR,0.00,VWS V14.01,2013-09-27 20:18:00,
2013-09-27 16:19:00,76.3,71.5,28.46,NE,38,11.0,12.0,85,0.00,,CLR,0.00,VWS V14.01,2013-09-27 20:19:00,
2013-09-27 16:20:00,76.3,71.1,28.09,NE,42,14.0,15.0,84,0.00,,CLR,0.00,VWS V14.01,2013-09-27 20:20:00,
2013-09-27 16:21:00,76.3,71.5,28.09,NE,53,12.0,15.0,85,0.00,,FEW039,0.00,VWS V14.01,2013-09-27 20:21:00,
2013-09-27 16:22:00,76.3,71.5,28.09,ENE,61,12.0,15.0,85,0.00,,CLR,0.00,VWS V14.01,2013-09-27 20:22:00,
2013-09-27 16:23:00,76.3,71.1,28.09,NE,51,15.0,16.0,84,0.00,,CLR,0.00,VWS V14.01,2013-09-27 20:23:00,
2013-09-27 16:24:00,76.1,70.9,28.09,ENE,65,11.0,15.0,84,0.00,,CLR,0.00,VWS V14.01,2013-09-27 20:24:00,
2013-09-27 16:25:00,76.3,71.5,28.09,ENE,61,4.0,12.0,85,0.00,,FEW039,0.00,VWS V14.01,2013-09-27 20:25:00,
2013-09-27 16:26:00,76.1,71.3,28.09,ENE,59,12.0,15.0,85,0.00,,CLR,0.00,VWS V14.01,2013-09-27 20:26:00,
2013-09-27 16:27:00,76.3,71.5,28.09,ENE,65,3.0,12.0,85,0.00,,CLR,0.00,VWS V14.01,2013-09-27 20:27:00,
2013-09-27 16:28:00,76.5,71.7,28.09,ENE,77,7.0,7.0,85,0.00,,CLR,0.00,VWS V14.01,2013-09-27 20:28:00,
2013-09-27 16:29:00,76.5,71.7,28.09,East,86,10.0,12.0,85,0.00,,CLR,0.00,VWS V14.01,2013-09-27 20:29:00,
2013-09-27 16:30:00,76.7,71.5,27.46,ENE,61,5.0,8.0,84,0.00,,FEW039,0.00,VWS V14.01,2013-09-27 20:30:00,
2013-09-27 16:31:00,76.5,71.3,28.09,NE,54,7.0,12.0,84,0.00,,CLR,0.00,VWS V14.01,2013-09-27 20:31:00,
2013-09-27 16:32:00,76.7,71.5,27.46,ENE,61,8.0,8.0,84,0.00,,CLR,0.00,VWS V14.01,2013-09-27 20:32:00,
2013-09-27 16:33:00,76.8,71.6,27.46,ENE,63,5.0,8.0,84,0.00,,CLR,0.00,VWS V14.01,2013-09-27 20:33:00,
2013-09-27 16:34:00,76.8,71.6,27.46,NE,34,5.0,15.0,84,0.00,,CLR,0.00,VWS V14.01,2013-09-27 20:34:00,
2013-09-27 16:35:00,76.8,71.2,27.46,NNE,28,16.0,16.0,83,0.00,,SCT041,0.00,VWS V14.01,2013-09-27 20:35:00,
2013-09-27 16:36:00,76.8,71.2,27.46,ENE,65,16.0,16.0,83,0.00,,CLR,0.00,VWS V14.01,2013-09-27 20:36:00,
2013-09-27 16:37:00,76.7,71.2,27.46,NE,44,9.0,16.0,83,0.00,,CLR,0.00,VWS V14.01,2013-09-27 20:37:00,
2013-09-27 16:38:00,76.7,71.2,27.46,ENE,63,12.0,13.0,83,0.00,,CLR,0.00,VWS V14.01,2013-09-27 20:38:00,
2013-09-27 16:39:00,76.5,71.0,27.46,ENE,64,17.0,17.0,83,0.00,,CLR,0.00,VWS V14.01,2013-09-27 20:39:00,
2013-09-27 16:40:00,76.3,70.4,27.62,ENE,69,10.0,18.0,82,0.00,,SCT041,0.00,VWS V14.01,2013-09-27 20:40:00,
2013-09-27 16:41:00,76.3,70.4,27.62,ENE,70,18.0,18.0,82,0.00,,CLR,0.00,VWS V14.01,2013-09-27 20:41:00,
2013-09-27 16:42:00,76.3,70.8,27.62,ENE,61,5.0,18.0,83,0.00,,CLR,0.00,VWS V14.01,2013-09-27 20:42:00,
2013-09-27 16:43:00,76.3,70.8,27.62,ENE,67,9.0,14.0,83,0.00,,CLR,0.00,VWS V14.01,2013-09-27 20:43:00,
2013-09-27 16:44:00,76.5,71.3,27.70,ENE,76,12.0,17.0,84,0.00,,CLR,0.00,VWS V14.01,2013-09-27 20:44:00,
2013-09-27 16:45:00,76.5,71.3,27.70,ENE,63,11.0,17.0,84,0.00,,SCT041,0.00,VWS V14.01,2013-09-27 20:45:00,
2013-09-27 16:46:00,76.5,71.3,27.70,NE,55,17.0,17.0,84,0.00,,CLR,0.00,VWS V14.01,2013-09-27 20:46:00,
2013-09-27 16:47:00,76.5,71.0,27.70,ENE,67,9.0,17.0,83,0.00,,CLR,0.00,VWS V14.01,2013-09-27 20:47:00,
2013-09-27 16:48:00,76.5,71.0,27.70,NE,34,17.0,17.0,83,0.00,,CLR,0.00,VWS V14.01,2013-09-27 20:48:00,
2013-09-27 16:49:00,76.5,71.0,27.70,ENE,63,13.0,17.0,83,0.00,,CLR,0.00,VWS V14.01,2013-09-27 20:49:00,
2013-09-27 16:50:00,76.5,70.6,27.70,NE,46,8.0,12.0,82,0.00,,SCT041,0.00,VWS V14.01,2013-09-27 20:50:00,
2013-09-27 16:51:00,76.5,70.6,27.70,NE,49,7.0,17.0,82,0.00,,CLR,0.00,VWS V14.01,2013-09-27 20:51:00,
2013-09-27 16:52:00,76.5,70.6,27.70,NE,46,11.0,12.0,82,0.00,,CLR,0.00,VWS V14.01,2013-09-27 20:52:00,
2013-09-27 16:53:00,76.5,71.0,27.70,NE,56,12.0,14.0,83,0.00,,CLR,0.00,VWS V14.01,2013-09-27 20:53:00,
2013-09-27 16:54:00,76.3,70.8,27.70,NE,49,15.0,15.0,83,0.00,,CLR,0.00,VWS V14.01,2013-09-27 20:54:00,
2013-09-27 16:55:00,76.5,71.0,27.70,ENE,62,12.0,17.0,83,0.00,,SCT041,0.00,VWS V14.01,2013-09-27 20:55:00,
2013-09-27 16:56:00,76.5,71.0,27.70,ENE,65,16.0,16.0,83,0.00,,CLR,0.00,VWS V14.01,2013-09-27 20:56:00,
2013-09-27 16:57:00,76.5,71.0,27.70,ENE,57,15.0,17.0,83,0.00,,CLR,0.00,VWS V14.01,2013-09-27 20:57:00,
2013-09-27 16:58:00,76.5,71.0,27.70,NE,55,12.0,15.0,83,0.00,,CLR,0.00,VWS V14.01,2013-09-27 20:58:00,
2013-09-27 16:59:00,76.5,71.0,27.89,NNE,22,7.0,12.0,83,0.00,,CLR,0.00,VWS V14.01,2013-09-27 20:59:00,
2013-09-27 17:00:00,76.5,70.6,27.89,NE,42,15.0,16.0,82,0.00,,SCT041,0.00,VWS V14.01,2013-09-27 21:00:00,
2013-09-27 17:01:00,76.5,71.0,27.89,ENE,58,14.0,14.0,83,0.00,,CLR,0.00,VWS V14.01,2013-09-27 21:01:00,
2013-09-27 17:02:00,76.3,70.4,27.89,NE,38,6.0,18.0,82,0.00,,CLR,0.00,VWS V14.01,2013-09-27 21:02:00,
2013-09-27 17:03:00,76.3,70.8,27.89,NE,41,16.0,16.0,83,0.00,,CLR,0.00,VWS V14.01,2013-09-27 21:03:00,
2013-09-27 17:04:00,76.3,70.8,27.89,ENE,64,10.0,16.0,83,0.00,,CLR,0.00,VWS V14.01,2013-09-27 21:04:00,
2013-09-27 17:05:00,76.3,70.8,27.89,NE,53,10.0,12.0,83,0.00,,SCT041,0.00,VWS V14.01,2013-09-27 21:05:00,
2013-09-27 17:06:00,76.3,70.8,27.89,ENE,61,12.0,12.0,83,0.00,,CLR,0.00,VWS V14.01,2013-09-27 21:06:00,
2013-09-27 17:07:00,76.3,70.8,27.89,ENE,67,13.0,13.0,83,0.00,,CLR,0.00,VWS V14.01,2013-09-27 21:07:00,
2013-09-27 17:08:00,76.5,71.0,27.89,NE,51,14.0,14.0,83,0.00,,CLR,0.00,VWS V14.01,2013-09-27 21:08:00,
2013-09-27 17:09:00,76.5,71.0,27.89,ENE,61,12.0,14.0,83,0.00,,CLR,0.00,VWS V14.01,2013-09-27 21:09:00,
2013-09-27 17:10:00,76.5,70.6,27.89,NE,43,5.0,9.0,82,0.00,,SCT041,0.00,VWS V14.01,2013-09-27 21:10:00,
2013-09-27 17:11:00,76.5,70.6,27.89,ENE,65,7.0,15.0,82,0.00,,CLR,0.00,VWS V14.01,2013-09-27 21:11:00,
2013-09-27 17:12:00,76.5,70.6,27.89,NE,40,11.0,11.0,82,0.00,,CLR,0.00,VWS V14.01,2013-09-27 21:12:00,
2013-09-27 17:13:00,76.5,70.6,27.89,ENE,61,9.0,11.0,82,0.00,,CLR,0.00,VWS V14.01,2013-09-27 21:13:00,
2013-09-27 17:14:00,76.3,70.4,27.89,NE,55,13.0,17.0,82,0.00,,CLR,0.00,VWS V14.01,2013-09-27 21:14:00,
2013-09-27 17:15:00,76.3,70.4,27.89,ENE,62,5.0,12.0,82,0.00,,SCT041,0.00,VWS V14.01,2013-09-27 21:15:00,
2013-09-27 17:16:00,76.3,70.4,27.89,NE,47,12.0,17.0,82,0.00,,CLR,0.00,VWS V14.01,2013-09-27 21:16:00,
2013-09-27 17:17:00,76.3,70.4,27.89,ENE,57,12.0,12.0,82,0.00,,CLR,0.00,VWS V14.01,2013-09-27 21:17:00,
2013-09-27 17:18:00,76.3,70.8,27.89,ENE,69,10.0,15.0,83,0.00,,CLR,0.00,VWS V14.01,2013-09-27 21:18:00,
2013-09-27 17:19:00,76.3,70.8,27.89,ENE,61,9.0,12.0,83,0.00,,CLR,0.00,VWS V14.01,2013-09-27 21:19:00,
2013-09-27 17:20:00,76.1,70.2,27.89,NE,42,10.0,14.0,82,0.00,,SCT041,0.00,VWS V14.01,2013-09-27 21:20:00,
2013-09-27 17:21:00,76.1,70.2,27.89,ENE,62,14.0,19.0,82,0.00,,CLR,0.00,VWS V14.01,2013-09-27 21:21:00,
2013-09-27 17:22:00,76.1,70.2,27.89,ENE,58,12.0,14.0,82,0.00,,CLR,0.00,VWS V14.01,2013-09-27 21:22:00,
2013-09-27 17:23:00,76.1,70.2,27.89,NE,38,17.0,18.0,82,0.00,,CLR,0.00,VWS V14.01,2013-09-27 21:23:00,
2013-09-27 17:24:00,76.0,70.1,27.89,ENE,57,11.0,17.0,82,0.00,,CLR,0.00,VWS V14.01,2013-09-27 21:24:00,
2013-09-27 17:25:00,76.0,69.8,27.89,NE,51,12.0,12.0,81,0.00,,SCT041,0.00,VWS V14.01,2013-09-27 21:25:00,
2013-09-27 17:26:00,76.0,70.1,27.89,ENE,65,12.0,16.0,82,0.00,,CLR,0.00,VWS V14.01,2013-09-27 21:26:00,
2013-09-27 17:27:00,76.0,69.8,27.89,NE,53,16.0,16.0,81,0.00,,CLR,0.00,VWS V14.01,2013-09-27 21:27:00,
2013-09-27 17:28:00,76.0,69.8,27.89,ENE,66,13.0,16.0,81,0.00,,CLR,0.00,VWS V14.01,2013-09-27 21:28:00,
2013-09-27 17:29:00,76.0,70.1,27.89,ENE,62,10.0,17.0,82,0.00,,CLR,0.00,VWS V14.01,2013-09-27 21:29:00,
2013-09-27 17:30:00,76.0,70.1,27.56,ENE,65,13.0,17.0,82,0.00,,SCT041,0.00,VWS V14.01,2013-09-27 21:30:00,
2013-09-27 17:31:00,76.0,70.1,27.56,ENE,73,7.0,7.0,82,0.00,,CLR,0.00,VWS V14.01,2013-09-27 21:31:00,
2013-09-27 17:32:00,76.0,70.1,27.56,NNE,32,14.0,17.0,82,0.00,,CLR,0.00,VWS V14.01,2013-09-27 21:32:00,
2013-09-27 17:33:00,76.0,70.1,27.56,ENE,76,13.0,15.0,82,0.00,,CLR,0.00,VWS V14.01,2013-09-27 21:33:00,
2013-09-27 17:34:00,76.0,70.5,27.56,ENE,67,10.0,13.0,83,0.00,,CLR,0.00,VWS V14.01,2013-09-27 21:34:00,
2013-09-27 17:35:00,76.0,70.5,27.56,NE,45,4.0,12.0,83,0.00,,SCT041,0.00,VWS V14.01,2013-09-27 21:35:00,
2013-09-27 17:36:00,76.0,70.5,27.56,ENE,67,6.0,11.0,83,0.00,,CLR,0.00,VWS V14.01,2013-09-27 21:36:00,
2013-09-27 17:37:00,76.0,70.5,27.56,ENE,62,13.0,13.0,83,0.00,,CLR,0.00,VWS V14.01,2013-09-27 21:37:00,
2013-09-27 17:38:00,76.0,70.5,27.56,NNE,28,12.0,16.0,83,0.00,,CLR,0.00,VWS V14.01,2013-09-27 21:38:00,
2013-09-27 17:39:00,76.0,70.5,27.56,NE,55,5.0,13.0,83,0.00,,CLR,0.00,VWS V14.01,2013-09-27 21:39:00,
2013-09-27 17:40:00,76.0,70.5,27.56,NE,40,13.0,20.0,83,0.00,,SCT041,0.00,VWS V14.01,2013-09-27 21:40:00,
2013-09-27 17:41:00,76.0,70.5,27.56,NE,51,20.0,20.0,83,0.00,,CLR,0.00,VWS V14.01,2013-09-27 21:41:00,
2013-09-27 17:42:00,76.0,70.1,27.56,NNE,31,7.0,20.0,82,0.00,,CLR,0.00,VWS V14.01,2013-09-27 21:42:00,
2013-09-27 17:43:00,76.0,70.1,27.56,NE,53,5.0,11.0,82,0.00,,CLR,0.00,VWS V14.01,2013-09-27 21:43:00,
2013-09-27 17:44:00,76.0,70.5,27.56,NE,52,14.0,14.0,83,0.00,,CLR,0.00,VWS V14.01,2013-09-27 21:44:00,
2013-09-27 17:45:00,76.0,70.5,27.56,NE,46,15.0,15.0,83,0.00,,SCT041,0.00,VWS V14.01,2013-09-27 21:45:00,
2013-09-27 17:46:00,76.0,70.5,27.56,NE,53,10.0,13.0,83,0.00,,CLR,0.00,VWS V14.01,2013-09-27 21:46:00,
2013-09-27 17:47:00,76.0,70.5,27.56,NE,44,12.0,15.0,83,0.00,,CLR,0.00,VWS V14.01,2013-09-27 21:47:00,
2013-09-27 17:48:00,75.8,70.3,27.56,East,87,9.0,12.0,83,0.00,,CLR,0.00,VWS V14.01,2013-09-27 21:48:00,
2013-09-27 17:49:00,75.8,70.3,27.56,ENE,70,10.0,14.0,83,0.00,,CLR,0.00,VWS V14.01,2013-09-27 21:49:00,
2013-09-27 17:50:00,75.8,70.3,27.56,ENE,62,11.0,18.0,83,0.00,,SCT041,0.00,VWS V14.01,2013-09-27 21:50:00,
2013-09-27 17:51:00,75.8,70.3,27.56,NE,37,17.0,17.0,83,0.00,,CLR,0.00,VWS V14.01,2013-09-27 21:51:00,
2013-09-27 17:52:00,75.8,70.3,27.56,NNE,30,11.0,18.0,83,0.00,,CLR,0.00,VWS V14.01,2013-09-27 21:52:00,
2013-09-27 17:53:00,75.8,70.3,27.56,NE,49,9.0,19.0,83,0.00,,CLR,0.00,VWS V14.01,2013-09-27 21:53:00,
2013-09-27 17:54:00,75.8,70.3,27.56,ENE,71,10.0,14.0,83,0.00,,CLR,0.00,VWS V14.01,2013-09-27 21:54:00,
2013-09-27 17:55:00,75.8,70.3,27.56,ENE,59,6.0,16.0,83,0.00,,SCT041,0.00,VWS V14.01,2013-09-27 21:55:00,
2013-09-27 17:56:00,75.8,70.3,27.56,ENE,70,16.0,16.0,83,0.00,,CLR,0.00,VWS V14.01,2013-09-27 21:56:00,
2013-09-27 17:57:00,75.8,70.3,27.56,ENE,78,4.0,16.0,83,0.00,,CLR,0.00,VWS V14.01,2013-09-27 21:57:00,
2013-09-27 17:58:00,75.8,70.3,27.56,ENE,61,4.0,7.0,83,0.00,,CLR,0.00,VWS V14.01,2013-09-27 21:58:00,
2013-09-27 17:59:00,75.8,70.3,27.56,NE,56,7.0,15.0,83,0.00,,CLR,0.00,VWS V14.01,2013-09-27 21:59:00,
2013-09-27 18:00:00,75.6,69.7,27.56,ENE,57,10.0,12.0,82,0.00,,SCT041,0.00,VWS V14.01,2013-09-27 22:00:00,
2013-09-27 18:01:00,75.8,70.3,27.56,NE,47,10.0,17.0,83,0.00,,CLR,0.00,VWS V14.01,2013-09-27 22:01:00,
2013-09-27 18:02:00,75.6,69.7,27.56,ENE,67,14.0,14.0,82,0.00,,CLR,0.00,VWS V14.01,2013-09-27 22:02:00,
2013-09-27 18:03:00,75.6,70.1,27.56,NE,39,11.0,15.0,83,0.00,,CLR,0.00,VWS V14.01,2013-09-27 22:03:00,
2013-09-27 18:04:00,75.6,70.1,27.56,NE,42,14.0,14.0,83,0.00,,CLR,0.00,VWS V14.01,2013-09-27 22:04:00,
2013-09-27 18:05:00,75.6,70.1,27.56,NE,48,12.0,12.0,83,0.00,,SCT041,0.00,VWS V14.01,2013-09-27 22:05:00,
2013-09-27 18:06:00,75.6,70.1,27.56,NE,37,9.0,15.0,83,0.00,,CLR,0.00,VWS V14.01,2013-09-27 22:06:00,
2013-09-27 18:07:00,75.6,70.1,27.56,NE,51,10.0,12.0,83,0.00,,CLR,0.00,VWS V14.01,2013-09-27 22:07:00,
2013-09-27 18:08:00,75.4,69.9,27.56,ENE,65,16.0,16.0,83,0.00,,CLR,0.00,VWS V14.01,2013-09-27 22:08:00,
2013-09-27 18:09:00,75.4,69.9,27.56,NE,40,15.0,16.0,83,0.00,,CLR,0.00,VWS V14.01,2013-09-27 22:09:00,
2013-09-27 18:10:00,75.4,69.9,27.56,NE,55,9.0,11.0,83,0.00,,SCT041,0.00,VWS V14.01,2013-09-27 22:10:00,
2013-09-27 18:11:00,75.4,69.9,27.56,ENE,68,11.0,13.0,83,0.00,,CLR,0.00,VWS V14.01,2013-09-27 22:11:00,
2013-09-27 18:12:00,75.4,69.9,27.56,NE,53,9.0,11.0,83,0.00,,CLR,0.00,VWS V14.01,2013-09-27 22:12:00,
2013-09-27 18:13:00,75.6,70.1,27.56,ENE,71,10.0,15.0,83,0.00,,CLR,0.00,VWS V14.01,2013-09-27 22:13:00,
2013-09-27 18:14:00,75.4,69.9,27.56,NE,45,13.0,13.0,83,0.00,,CLR,0.00,VWS V14.01,2013-09-27 22:14:00,
2013-09-27 18:15:00,75.4,69.9,27.56,ENE,60,12.0,14.0,83,0.00,,SCT041,0.00,VWS V14.01,2013-09-27 22:15:00,
2013-09-27 18:16:00,75.4,69.9,27.56,ENE,60,5.0,14.0,83,0.00,,CLR,0.00,VWS V14.01,2013-09-27 22:16:00,
2013-09-27 18:17:00,75.4,69.9,27.56,ENE,74,13.0,14.0,83,0.00,,CLR,0.00,VWS V14.01,2013-09-27 22:17:00,
2013-09-27 18:18:00,75.4,69.9,27.56,ENE,73,9.0,13.0,83,0.00,,CLR,0.00,VWS V14.01,2013-09-27 22:18:00,
2013-09-27 18:19:00,75.4,69.9,27.56,NNE,33,9.0,9.0,83,0.00,,CLR,0.00,VWS V14.01,2013-09-27 22:19:00,
2013-09-27 18:20:00,75.4,69.9,27.56,ENE,68,13.0,14.0,83,0.00,,SCT041,0.00,VWS V14.01,2013-09-27 22:20:00,
2013-09-27 18:21:00,75.4,69.9,27.56,NNW,346,12.0,12.0,83,0.00,,CLR,0.00,VWS V14.01,2013-09-27 22:21:00,
2013-09-27 18:23:00,75.4,69.9,27.56,NE,52,11.0,14.0,83,0.00,,CLR,0.00,VWS V14.01,2013-09-27 22:23:00,
2013-09-27 18:24:00,75.4,69.9,27.56,NE,52,8.0,14.0,83,0.00,,CLR,0.00,VWS V14.01,2013-09-27 22:24:00,
2013-09-27 18:25:00,75.3,69.8,27.56,NNE,12,7.0,12.0,83,0.00,,SCT041,0.00,VWS V14.01,2013-09-27 22:25:00,
2013-09-27 18:26:00,75.3,69.8,27.56,NE,49,12.0,13.0,83,0.00,,CLR,0.00,VWS V14.01,2013-09-27 22:26:00,
2013-09-27 18:27:00,75.3,69.8,27.56,ENE,72,12.0,12.0,83,0.00,,CLR,0.00,VWS V14.01,2013-09-27 22:27:00,
2013-09-27 18:28:00,75.3,69.8,27.56,NE,41,7.0,12.0,83,0.00,,CLR,0.00,VWS V14.01,2013-09-27 22:28:00,
2013-09-27 18:29:00,75.3,69.8,27.56,ENE,71,13.0,13.0,83,0.00,,CLR,0.00,VWS V14.01,2013-09-27 22:29:00,
2013-09-27 18:30:00,75.3,69.8,27.56,NNE,30,5.0,10.0,83,0.00,,SCT041,0.00,VWS V14.01,2013-09-27 22:30:00,
2013-09-27 18:31:00,75.3,69.8,27.56,ENE,60,9.0,13.0,83,0.00,,CLR,0.00,VWS V14.01,2013-09-27 22:31:00,
2013-09-27 18:32:00,75.3,69.8,27.56,NE,36,13.0,14.0,83,0.00,,CLR,0.00,VWS V14.01,2013-09-27 22:32:00,
2013-09-27 18:33:00,75.3,69.8,27.56,NE,44,7.0,13.0,83,0.00,,CLR,0.00,VWS V14.01,2013-09-27 22:33:00,
2013-09-27 18:34:00,75.1,69.6,27.17,ENE,64,8.0,13.0,83,0.00,,CLR,0.00,VWS V14.01,2013-09-27 22:34:00,
2013-09-27 18:35:00,75.1,69.6,27.17,ENE,65,5.0,9.0,83,0.00,,FEW044,0.00,VWS V14.01,2013-09-27 22:35:00,
2013-09-27 18:36:00,75.1,69.6,27.17,NE,54,6.0,13.0,83,0.00,,CLR,0.00,VWS V14.01,2013-09-27 22:36:00,
2013-09-27 18:37:00,75.1,69.6,27.17,NE,55,4.0,9.0,83,0.00,,CLR,0.00,VWS V14.01,2013-09-27 22:37:00,
2013-09-27 18:38:00,75.1,69.6,27.17,ENE,62,4.0,11.0,83,0.00,,CLR,0.00,VWS V14.01,2013-09-27 22:38:00,
2013-09-27 18:39:00,75.1,69.6,27.17,NE,55,14.0,14.0,83,0.00,,CLR,0.00,VWS V14.01,2013-09-27 22:39:00,
2013-09-27 18:40:00,75.1,69.6,27.17,ENE,64,5.0,6.0,83,0.00,,FEW044,0.00,VWS V14.01,2013-09-27 22:40:00,
2013-09-27 18:41:00,75.1,69.6,27.17,NNE,32,4.0,16.0,83,0.00,,CLR,0.00,VWS V14.01,2013-09-27 22:41:00,
2013-09-27 18:42:00,75.1,69.6,27.17,NE,42,5.0,6.0,83,0.00,,CLR,0.00,VWS V14.01,2013-09-27 22:42:00,
2013-09-27 18:43:00,75.1,69.6,27.17,NE,38,5.0,9.0,83,0.00,,CLR,0.00,VWS V14.01,2013-09-27 22:43:00,
2013-09-27 18:44:00,75.1,69.6,27.17,ENE,68,10.0,12.0,83,0.00,,CLR,0.00,VWS V14.01,2013-09-27 22:44:00,
2013-09-27 18:45:00,74.9,69.4,27.17,NE,54,7.0,11.0,83,0.00,,FEW044,0.00,VWS V14.01,2013-09-27 22:45:00,
2013-09-27 18:46:00,75.1,69.6,27.17,ENE,57,7.0,14.0,83,0.00,,CLR,0.00,VWS V14.01,2013-09-27 22:46:00,
2013-09-27 18:47:00,74.9,69.4,27.17,ENE,64,5.0,11.0,83,0.00,,CLR,0.00,VWS V14.01,2013-09-27 22:47:00,
2013-09-27 18:48:00,74.9,69.4,27.17,ENE,59,12.0,12.0,83,0.00,,CLR,0.00,VWS V14.01,2013-09-27 22:48:00,
2013-09-27 18:49:00,74.9,69.7,27.17,NNE,25,6.0,12.0,84,0.00,,CLR,0.00,VWS V14.01,2013-09-27 22:49:00,
2013-09-27 18:50:00,74.9,69.7,26.35,NE,51,8.0,8.0,84,0.00,,FEW044,0.00,VWS V14.01,2013-09-27 22:50:00,
2013-09-27 18:51:00,74.9,69.7,26.35,ENE,57,5.0,10.0,84,0.00,,CLR,0.00,VWS V14.01,2013-09-27 22:51:00,
2013-09-27 18:52:00,74.9,69.7,26.35,NE,54,5.0,8.0,84,0.00,,CLR,0.00,VWS V14.01,2013-09-27 22:52:00,
2013-09-27 18:53:00,74.9,69.7,26.35,ENE,71,11.0,11.0,84,0.00,,CLR,0.00,VWS V14.01,2013-09-27 22:53:00,
2013-09-27 18:54:00,74.9,69.7,26.35,NE,43,11.0,11.0,84,0.00,,CLR,0.00,VWS V14.01,2013-09-27 22:54:00,
2013-09-27 18:55:00,74.9,70.1,26.35,NNE,33,14.0,14.0,85,0.00,,FEW044,0.00,VWS V14.01,2013-09-27 22:55:00,
2013-09-27 18:56:00,74.9,70.1,26.35,ENE,61,4.0,10.0,85,0.00,,CLR,0.00,VWS V14.01,2013-09-27 22:56:00,
2013-09-27 18:57:00,74.7,69.9,26.35,NE,39,6.0,14.0,85,0.00,,CLR,0.00,VWS V14.01,2013-09-27 22:57:00,
2013-09-27 18:58:00,74.7,69.9,26.35,NE,49,3.0,10.0,85,0.00,,CLR,0.00,VWS V14.01,2013-09-27 22:58:00,
2013-09-27 18:59:00,74.7,69.9,26.35,ENE,61,16.0,16.0,85,0.00,,CLR,0.00,VWS V14.01,2013-09-27 22:59:00,
2013-09-27 19:00:00,74.6,69.8,26.35,NE,49,10.0,14.0,85,0.00,,FEW044,0.00,VWS V14.01,2013-09-27 23:00:00,
2013-09-27 19:01:00,74.6,69.8,26.35,NE,40,14.0,14.0,85,0.00,,CLR,0.00,VWS V14.01,2013-09-27 23:01:00,
2013-09-27 19:02:00,74.6,69.8,26.35,ENE,64,10.0,14.0,85,0.00,,CLR,0.00,VWS V14.01,2013-09-27 23:02:00,
2013-09-27 19:03:00,74.6,69.8,26.35,NE,40,9.0,11.0,85,0.00,,CLR,0.00,VWS V14.01,2013-09-27 23:03:00,
2013-09-27 19:04:00,74.6,69.8,26.35,ENE,67,12.0,12.0,85,0.00,,CLR,0.00,VWS V14.01,2013-09-27 23:04:00,
2013-09-27 19:05:00,74.6,70.1,26.35,NE,53,5.0,5.0,86,0.00,,FEW044,0.00,VWS V14.01,2013-09-27 23:05:00,
2013-09-27 19:06:00,74.6,70.1,26.35,NNE,28,5.0,10.0,86,0.00,,CLR,0.00,VWS V14.01,2013-09-27 23:06:00,
2013-09-27 19:07:00,74.6,70.1,26.35,NE,41,8.0,8.0,86,0.00,,CLR,0.00,VWS V14.01,2013-09-27 23:07:00,
2013-09-27 19:08:00,74.6,70.1,26.35,NE,41,6.0,10.0,86,0.00,,CLR,0.00,VWS V14.01,2013-09-27 23:08:00,
2013-09-27 19:09:00,74.6,70.1,26.35,NE,42,10.0,10.0,86,0.00,,CLR,0.00,VWS V14.01,2013-09-27 23:09:00,
2013-09-27 19:10:00,74.4,69.9,29.15,ENE,76,6.0,11.0,86,0.00,,FEW044,0.00,VWS V14.01,2013-09-27 23:10:00,
2013-09-27 19:11:00,74.4,69.9,29.15,ENE,70,10.0,11.0,86,0.00,,CLR,0.00,VWS V14.01,2013-09-27 23:11:00,
2013-09-27 19:12:00,74.4,69.6,29.15,ENE,63,12.0,12.0,85,0.00,,CLR,0.00,VWS V14.01,2013-09-27 23:12:00,
2013-09-27 19:13:00,74.4,69.6,29.15,ENE,61,11.0,17.0,85,0.00,,CLR,0.00,VWS V14.01,2013-09-27 23:13:00,
2013-09-27 19:14:00,74.6,69.8,29.15,NE,40,6.0,11.0,85,0.00,,CLR,0.00,VWS V14.01,2013-09-27 23:14:00,
2013-09-27 19:15:00,74.4,69.6,29.31,NE,51,11.0,11.0,85,0.00,,FEW044,0.00,VWS V14.01,2013-09-27 23:15:00,
2013-09-27 19:16:00,74.4,69.6,29.31,ENE,65,10.0,10.0,85,0.00,,CLR,0.00,VWS V14.01,2013-09-27 23:16:00,
2013-09-27 19:17:00,74.4,69.6,29.31,NE,51,6.0,11.0,85,0.00,,CLR,0.00,VWS V14.01,2013-09-27 23:17:00,
2013-09-27 19:18:00,74.4,69.6,29.31,ENE,67,16.0,16.0,85,0.00,,CLR,0.00,VWS V14.01,2013-09-27 23:18:00,
2013-09-27 19:19:00,74.4,69.2,29.31,ENE,61,4.0,16.0,84,0.00,,CLR,0.00,VWS V14.01,2013-09-27 23:19:00,
2013-09-27 19:20:00,74.4,69.6,29.31,NE,46,5.0,9.0,85,0.00,,FEW044,0.00,VWS V14.01,2013-09-27 23:20:00,
2013-09-27 19:21:00,74.4,69.2,29.31,NE,46,9.0,17.0,84,0.00,,CLR,0.00,VWS V14.01,2013-09-27 23:21:00,
2013-09-27 19:22:00,74.4,69.6,29.31,ENE,67,4.0,13.0,85,0.00,,CLR,0.00,VWS V14.01,2013-09-27 23:22:00,
2013-09-27 19:23:00,74.4,69.6,29.31,NE,51,14.0,14.0,85,0.00,,CLR,0.00,VWS V14.01,2013-09-27 23:23:00,
2013-09-27 19:24:00,74.4,69.6,29.31,NNE,32,5.0,14.0,85,0.00,,CLR,0.00,VWS V14.01,2013-09-27 23:24:00,
2013-09-27 19:25:00,74.4,69.6,29.31,NE,55,9.0,9.0,85,0.00,,FEW044,0.00,VWS V14.01,2013-09-27 23:25:00,
2013-09-27 19:26:00,74.4,69.6,29.31,NE,55,6.0,16.0,85,0.00,,CLR,0.00,VWS V14.01,2013-09-27 23:26:00,
2013-09-27 19:27:00,74.4,69.6,29.31,NE,54,3.0,9.0,85,0.00,,CLR,0.00,VWS V14.01,2013-09-27 23:27:00,
2013-09-27 19:28:00,74.4,69.9,29.31,ENE,73,6.0,10.0,86,0.00,,CLR,0.00,VWS V14.01,2013-09-27 23:28:00,
2013-09-27 19:29:00,74.4,69.9,29.31,NE,47,7.0,9.0,86,0.00,,CLR,0.00,VWS V14.01,2013-09-27 23:29:00,
2013-09-27 19:30:00,74.4,70.3,28.18,ENE,61,9.0,9.0,87,0.00,,FEW044,0.00,VWS V14.01,2013-09-27 23:30:00,
2013-09-27 19:31:00,74.4,69.9,28.18,NE,54,6.0,9.0,86,0.00,,CLR,0.00,VWS V14.01,2013-09-27 23:31:00,
2013-09-27 19:32:00,74.4,70.3,28.18,NE,36,3.0,9.0,87,0.00,,CLR,0.00,VWS V14.01,2013-09-27 23:32:00,
2013-09-27 19:33:00,74.4,70.3,28.18,NE,56,11.0,11.0,87,0.00,,CLR,0.00,VWS V14.01,2013-09-27 23:33:00,
2013-09-27 19:34:00,74.4,70.3,28.18,NE,40,16.0,16.0,87,0.00,,CLR,0.00,VWS V14.01,2013-09-27 23:34:00,
2013-09-27 19:35:00,74.2,70.1,28.18,NE,44,5.0,6.0,87,0.00,,CLR,0.00,VWS V14.01,2013-09-27 23:35:00,
2013-09-27 19:36:00,74.4,70.3,28.18,East,90,6.0,9.0,87,0.00,,CLR,0.00,VWS V14.01,2013-09-27 23:36:00,
2013-09-27 19:37:00,74.2,70.1,28.18,ENE,69,11.0,11.0,87,0.00,,CLR,0.00,VWS V14.01,2013-09-27 23:37:00,
2013-09-27 19:38:00,74.2,70.1,28.18,East,91,8.0,13.0,87,0.00,,CLR,0.00,VWS V14.01,2013-09-27 23:38:00,
2013-09-27 19:39:00,74.2,70.1,28.18,NE,46,10.0,13.0,87,0.00,,CLR,0.00,VWS V14.01,2013-09-27 23:39:00,
2013-09-27 19:40:00,74.2,70.1,28.18,NE,38,11.0,11.0,87,0.00,,CLR,0.00,VWS V14.01,2013-09-27 23:40:00,
2013-09-27 19:41:00,74.2,70.1,28.18,NNE,32,10.0,12.0,87,0.00,,CLR,0.00,VWS V14.01,2013-09-27 23:41:00,
2013-09-27 19:42:00,74.2,70.1,28.18,NE,46,6.0,11.0,87,0.00,,CLR,0.00,VWS V14.01,2013-09-27 23:42:00,
2013-09-27 19:43:00,74.2,70.4,28.18,ENE,63,5.0,10.0,88,0.00,,CLR,0.00,VWS V14.01,2013-09-27 23:43:00,
2013-09-27 19:44:00,74.2,70.4,28.18,NE,49,5.0,6.0,88,0.00,,CLR,0.00,VWS V14.01,2013-09-27 23:44:00,
2013-09-27 19:45:00,74.2,70.4,28.18,NE,52,2.0,13.0,88,0.00,,CLR,0.00,VWS V14.01,2013-09-27 23:45:00,
2013-09-27 19:46:00,74.2,70.4,28.18,ENE,62,13.0,13.0,88,0.00,,CLR,0.00,VWS V14.01,2013-09-27 23:46:00,
2013-09-27 19:47:00,74.2,70.4,28.18,ENE,69,7.0,13.0,88,0.00,,CLR,0.00,VWS V14.01,2013-09-27 23:47:00,
2013-09-27 19:48:00,74.2,70.4,28.18,NE,36,6.0,12.0,88,0.00,,CLR,0.00,VWS V14.01,2013-09-27 23:48:00,
2013-09-27 19:49:00,74.2,70.4,28.18,ENE,61,5.0,11.0,88,0.00,,CLR,0.00,VWS V14.01,2013-09-27 23:49:00,
2013-09-27 19:50:00,74.0,70.2,28.55,NE,46,13.0,13.0,88,0.00,,CLR,0.00,VWS V14.01,2013-09-27 23:50:00,
2013-09-27 19:51:00,74.0,70.2,28.54,NE,45,13.0,13.0,88,0.00,,CLR,0.00,VWS V14.01,2013-09-27 23:51:00,
2013-09-27 19:52:00,74.0,70.2,28.55,NNE,24,5.0,13.0,88,0.00,,CLR,0.00,VWS V14.01,2013-09-27 23:52:00,
2013-09-27 19:53:00,74.0,70.2,28.55,NNE,17,13.0,13.0,88,0.00,,CLR,0.00,VWS V14.01,2013-09-27 23:53:00,
2013-09-27 19:54:00,74.0,70.2,28.55,NE,46,9.0,13.0,88,0.00,,CLR,0.00,VWS V14.01,2013-09-27 23:54:00,
2013-09-27 19:55:00,74.0,70.2,28.51,NE,49,9.0,10.0,88,0.00,,CLR,0.00,VWS V14.01,2013-09-27 23:55:00,
2013-09-27 19:56:00,74.0,70.2,28.55,ENE,57,10.0,15.0,88,0.00,,CLR,0.00,VWS V14.01,2013-09-27 23:56:00,
2013-09-27 19:57:00,74.2,70.4,28.51,ENE,60,10.0,11.0,88,0.00,,CLR,0.00,VWS V14.01,2013-09-27 23:57:00,
2013-09-27 19:58:00,74.2,70.4,28.51,NNE,26,11.0,15.0,88,0.00,,CLR,0.00,VWS V14.01,2013-09-27 23:58:00,
2013-09-27 19:59:00,74.2,70.4,28.51,NE,51,11.0,13.0,88,0.00,,CLR,0.00,VWS V14.01,2013-09-27 23:59:00,
2013-09-27 20:00:00,74.2,70.4,28.51,NE,39,7.0,16.0,88,0.00,,CLR,0.00,VWS V14.01,2013-09-28 00:00:00,
2013-09-27 20:01:00,74.2,70.4,28.51,NE,54,16.0,16.0,88,0.00,,CLR,0.00,VWS V14.01,2013-09-28 00:01:00,
2013-09-27 20:02:00,74.0,70.2,28.69,ENE,57,6.0,16.0,88,0.00,,CLR,0.00,VWS V14.01,2013-09-28 00:02:00,
2013-09-27 20:03:00,74.0,70.2,28.69,NE,36,10.0,15.0,88,0.00,,CLR,0.00,VWS V14.01,2013-09-28 00:03:00,
2013-09-27 20:04:00,74.0,70.2,28.69,NE,55,4.0,10.0,88,0.00,,CLR,0.00,VWS V14.01,2013-09-28 00:04:00,
2013-09-27 20:05:00,74.0,70.2,28.69,NE,38,5.0,13.0,88,0.00,,CLR,0.00,VWS V14.01,2013-09-28 00:05:00,
2013-09-27 20:06:00,74.0,70.2,28.69,ENE,66,13.0,13.0,88,0.00,,CLR,0.00,VWS V14.01,2013-09-28 00:06:00,
2013-09-27 20:07:00,74.0,70.2,28.69,NE,34,17.0,17.0,88,0.00,,CLR,0.00,VWS V14.01,2013-09-28 00:07:00,
2013-09-27 20:08:00,74.0,70.2,28.65,NE,49,4.0,17.0,88,0.00,,CLR,0.00,VWS V14.01,2013-09-28 00:08:00,
2013-09-27 20:09:00,74.0,70.2,28.65,NE,38,5.0,12.0,88,0.00,,CLR,0.00,VWS V14.01,2013-09-28 00:09:00,
2013-09-27 20:10:00,74.0,70.2,28.65,ENE,67,3.0,9.0,88,0.00,,CLR,0.00,VWS V14.01,2013-09-28 00:10:00,
2013-09-27 20:11:00,74.0,70.2,28.65,NE,51,4.0,12.0,88,0.00,,CLR,0.00,VWS V14.01,2013-09-28 00:11:00,
2013-09-27 20:12:00,74.0,70.2,28.65,NE,42,4.0,9.0,88,0.00,,CLR,0.00,VWS V14.01,2013-09-28 00:12:00,
2013-09-27 20:13:00,74.0,70.2,28.65,NE,46,12.0,12.0,88,0.00,,CLR,0.00,VWS V14.01,2013-09-28 00:13:00,
2013-09-27 20:14:00,74.0,70.2,28.59,NNE,30,5.0,12.0,88,0.00,,CLR,0.00,VWS V14.01,2013-09-28 00:14:00,
2013-09-27 20:15:00,74.0,70.2,28.59,ENE,64,13.0,13.0,88,0.00,,CLR,0.00,VWS V14.01,2013-09-28 00:15:00,
2013-09-27 20:16:00,74.0,70.2,28.59,ENE,60,6.0,14.0,88,0.00,,CLR,0.00,VWS V14.01,2013-09-28 00:16:00,
2013-09-27 20:17:00,74.0,70.2,28.59,NE,38,11.0,13.0,88,0.00,,CLR,0.00,VWS V14.01,2013-09-28 00:17:00,
2013-09-27 20:18:00,74.0,70.2,28.59,NE,44,4.0,11.0,88,0.00,,CLR,0.00,VWS V14.01,2013-09-28 00:18:00,
2013-09-27 20:19:00,74.0,70.2,28.59,ENE,71,11.0,17.0,88,0.00,,CLR,0.00,VWS V14.01,2013-09-28 00:19:00,
2013-09-27 20:20:00,74.0,70.2,28.59,NE,53,9.0,14.0,88,0.00,,CLR,0.00,VWS V14.01,2013-09-28 00:20:00,
2013-09-27 20:21:00,74.0,70.2,28.59,ENE,65,7.0,7.0,88,0.00,,CLR,0.00,VWS V14.01,2013-09-28 00:21:00,
2013-09-27 20:22:00,74.0,70.2,28.59,ENE,76,9.0,14.0,88,0.00,,CLR,0.00,VWS V14.01,2013-09-28 00:22:00,
2013-09-27 20:23:00,74.0,70.2,28.59,NNE,32,13.0,13.0,88,0.00,,CLR,0.00,VWS V14.01,2013-09-28 00:23:00,
2013-09-27 20:24:00,74.0,70.2,28.54,ENE,63,4.0,13.0,88,0.00,,CLR,0.00,VWS V14.01,2013-09-28 00:24:00,
2013-09-27 20:25:00,74.0,70.2,28.54,NNE,27,4.0,9.0,88,0.00,,CLR,0.00,VWS V14.01,2013-09-28 00:25:00,
2013-09-27 20:26:00,74.0,70.2,28.54,ENE,78,9.0,10.0,88,0.00,,CLR,0.00,VWS V14.01,2013-09-28 00:26:00,
2013-09-27 20:27:00,74.0,70.2,28.54,NNE,19,5.0,9.0,88,0.00,,CLR,0.00,VWS V14.01,2013-09-28 00:27:00,
2013-09-27 20:28:00,74.0,70.2,28.54,ENE,63,5.0,7.0,88,0.00,,CLR,0.00,VWS V14.01,2013-09-28 00:28:00,
2013-09-27 20:29:00,74.0,70.2,28.54,NE,49,2.0,7.0,88,0.00,,CLR,0.00,VWS V14.01,2013-09-28 00:29:00,
2013-09-27 20:30:00,74.0,70.2,28.59,ENE,57,10.0,13.0,88,0.00,,CLR,0.00,VWS V14.01,2013-09-28 00:30:00,
2013-09-27 20:31:00,74.0,70.2,28.59,ENE,63,12.0,13.0,88,0.00,,CLR,0.00,VWS V14.01,2013-09-28 00:31:00,
2013-09-27 20:32:00,74.0,70.2,28.59,NNE,30,11.0,13.0,88,0.00,,CLR,0.00,VWS V14.01,2013-09-28 00:32:00,
2013-09-27 20:33:00,74.0,69.9,28.59,NE,50,8.0,11.0,87,0.00,,CLR,0.00,VWS V14.01,2013-09-28 00:33:00,
2013-09-27 20:34:00,74.0,69.9,28.59,NNE,31,9.0,13.0,87,0.00,,CLR,0.00,VWS V14.01,2013-09-28 00:34:00,
2013-09-27 20:35:00,74.0,69.9,28.59,NE,53,5.0,5.0,87,0.00,,CLR,0.00,VWS V14.01,2013-09-28 00:35:00,
2013-09-27 20:36:00,74.0,69.9,28.59,NE,40,4.0,10.0,87,0.00,,CLR,0.00,VWS V14.01,2013-09-28 00:36:00,
2013-09-27 20:37:00,74.2,70.4,28.59,ENE,66,6.0,6.0,88,0.00,,CLR,0.00,VWS V14.01,2013-09-28 00:37:00,
2013-09-27 20:38:00,74.2,70.4,28.90,ENE,63,5.0,6.0,88,0.00,,CLR,0.00,VWS V14.01,2013-09-28 00:38:00,
2013-09-27 20:39:00,74.2,70.4,28.90,NE,38,11.0,11.0,88,0.00,,CLR,0.00,VWS V14.01,2013-09-28 00:39:00,
2013-09-27 20:40:00,74.2,70.4,28.90,NE,35,9.0,13.0,88,0.00,,CLR,0.00,VWS V14.01,2013-09-28 00:40:00,
2013-09-27 20:41:00,74.2,70.4,28.90,ENE,63,7.0,11.0,88,0.00,,CLR,0.00,VWS V14.01,2013-09-28 00:41:00,
2013-09-27 20:42:00,74.2,70.4,28.90,NNE,14,11.0,13.0,88,0.00,,CLR,0.00,VWS V14.01,2013-09-28 00:42:00,
2013-09-27 20:43:00,74.2,70.4,28.90,NNE,33,9.0,16.0,88,0.00,,CLR,0.00,VWS V14.01,2013-09-28 00:43:00,
2013-09-27 20:44:00,74.2,70.4,28.90,ENE,57,8.0,12.0,88,0.00,,CLR,0.00,VWS V14.01,2013-09-28 00:44:00,
2013-09-27 20:45:00,74.2,70.4,28.90,NNE,13,16.0,16.0,88,0.00,,CLR,0.00,VWS V14.01,2013-09-28 00:45:00,
2013-09-27 20:46:00,74.2,70.4,28.90,NNE,20,9.0,9.0,88,0.00,,CLR,0.00,VWS V14.01,2013-09-28 00:46:00,
2013-09-27 20:47:00,74.2,70.4,28.90,NE,39,10.0,16.0,88,0.00,,CLR,0.00,VWS V14.01,2013-09-28 00:47:00,
2013-09-27 20:48:00,74.2,70.4,28.94,NE,56,14.0,14.0,88,0.00,,CLR,0.00,VWS V14.01,2013-09-28 00:48:00,
2013-09-27 20:49:00,74.2,70.4,28.95,North,5,7.0,14.0,88,0.00,,CLR,0.00,VWS V14.01,2013-09-28 00:49:00,
2013-09-27 20:50:00,74.4,70.6,28.95,ENE,58,5.0,6.0,88,0.00,,CLR,0.00,VWS V14.01,2013-09-28 00:50:00,
2013-09-27 20:51:00,74.2,70.4,28.95,NE,55,6.0,12.0,88,0.00,,CLR,0.00,VWS V14.01,2013-09-28 00:51:00,
2013-09-27 20:52:00,74.4,70.6,28.95,NNE,24,5.0,7.0,88,0.00,,CLR,0.00,VWS V14.01,2013-09-28 00:52:00,
2013-09-27 20:53:00,74.2,70.1,28.73,NE,53,9.0,11.0,87,0.00,,CLR,0.00,VWS V14.01,2013-09-28 00:53:00,
2013-09-27 20:54:00,74.2,70.1,28.73,ENE,60,8.0,10.0,87,0.00,,CLR,0.00,VWS V14.01,2013-09-28 00:54:00,
2013-09-27 20:55:00,74.2,70.1,28.73,NE,55,9.0,12.0,87,0.00,,CLR,0.00,VWS V14.01,2013-09-28 00:55:00,
2013-09-27 20:56:00,74.2,70.1,28.73,ENE,61,12.0,12.0,87,0.00,,CLR,0.00,VWS V14.01,2013-09-28 00:56:00,
2013-09-27 20:57:00,74.4,70.3,28.73,NE,49,5.0,12.0,87,0.00,,CLR,0.00,VWS V14.01,2013-09-28 00:57:00,
2013-09-27 20:58:00,74.4,70.3,28.73,NNE,29,6.0,9.0,87,0.00,,CLR,0.00,VWS V14.01,2013-09-28 00:58:00,
2013-09-27 20:59:00,74.4,70.3,28.73,NE,42,6.0,10.0,87,0.00,,CLR,0.00,VWS V14.01,2013-09-28 00:59:00,
2013-09-27 21:00:00,74.2,70.1,28.73,NNE,32,5.0,15.0,87,0.00,,CLR,0.00,VWS V14.01,2013-09-28 01:00:00,
2013-09-27 21:01:00,74.2,70.1,28.73,NE,44,15.0,15.0,87,0.00,,CLR,0.00,VWS V14.01,2013-09-28 01:01:00,
2013-09-27 21:02:00,74.2,70.1,28.73,NE,46,10.0,15.0,87,0.00,,CLR,0.00,VWS V14.01,2013-09-28 01:02:00,
2013-09-27 21:03:00,74.2,70.1,28.73,NE,54,6.0,11.0,87,0.00,,CLR,0.00,VWS V14.01,2013-09-28 01:03:00,
2013-09-27 21:04:00,74.2,70.1,28.73,NE,55,7.0,11.0,87,0.00,,CLR,0.00,VWS V14.01,2013-09-28 01:04:00,
2013-09-27 21:05:00,74.2,70.1,28.73,ENE,75,5.0,5.0,87,0.00,,CLR,0.00,VWS V14.01,2013-09-28 01:05:00,
2013-09-27 21:06:00,74.2,70.1,28.73,East,83,4.0,7.0,87,0.00,,CLR,0.00,VWS V14.01,2013-09-28 01:06:00,
2013-09-27 21:07:00,74.2,70.1,28.73,ENE,61,7.0,7.0,87,0.00,,CLR,0.00,VWS V14.01,2013-09-28 01:07:00,
2013-09-27 21:08:00,74.2,70.1,28.73,NNE,32,2.0,9.0,87,0.00,,CLR,0.00,VWS V14.01,2013-09-28 01:08:00,
2013-09-27 21:09:00,74.2,70.1,28.73,ENE,61,7.0,14.0,87,0.00,,CLR,0.00,VWS V14.01,2013-09-28 01:09:00,
2013-09-27 21:10:00,74.0,69.6,28.82,ENE,61,11.0,11.0,86,0.00,,CLR,0.00,VWS V14.01,2013-09-28 01:10:00,
2013-09-27 21:11:00,74.0,69.6,28.82,ENE,59,4.0,12.0,86,0.00,,CLR,0.00,VWS V14.01,2013-09-28 01:11:00,
2013-09-27 21:12:00,74.0,69.6,28.82,ENE,74,9.0,11.0,86,0.00,,CLR,0.00,VWS V14.01,2013-09-28 01:12:00,
2013-09-27 21:13:00,74.0,69.6,28.82,NE,36,7.0,12.0,86,0.00,,CLR,0.00,VWS V14.01,2013-09-28 01:13:00,
2013-09-27 21:14:00,74.0,69.6,28.82,NE,51,5.0,11.0,86,0.00,,CLR,0.00,VWS V14.01,2013-09-28 01:14:00,
2013-09-27 21:15:00,74.0,69.6,29.42,NE,39,14.0,14.0,86,0.00,,CLR,0.00,VWS V14.01,2013-09-28 01:15:00,
2013-09-27 21:16:00,74.0,69.6,29.42,ENE,63,7.0,10.0,86,0.00,,CLR,0.00,VWS V14.01,2013-09-28 01:16:00,
2013-09-27 21:17:00,74.0,69.6,29.42,NNE,24,11.0,14.0,86,0.00,,CLR,0.00,VWS V14.01,2013-09-28 01:17:00,
2013-09-27 21:18:00,74.0,69.6,29.42,NE,34,4.0,13.0,86,0.00,,CLR,0.00,VWS V14.01,2013-09-28 01:18:00,
2013-09-27 21:19:00,74.0,69.6,29.42,NE,43,12.0,12.0,86,0.00,,CLR,0.00,VWS V14.01,2013-09-28 01:19:00,
2013-09-27 21:20:00,74.0,69.6,29.42,East,84,4.0,6.0,86,0.00,,CLR,0.00,VWS V14.01,2013-09-28 01:20:00,
2013-09-27 21:21:00,74.0,69.6,29.42,NE,56,6.0,12.0,86,0.00,,CLR,0.00,VWS V14.01,2013-09-28 01:21:00,
2013-09-27 21:22:00,74.0,69.6,29.42,ENE,65,9.0,9.0,86,0.00,,CLR,0.00,VWS V14.01,2013-09-28 01:22:00,
2013-09-27 21:23:00,74.0,69.6,29.42,ENE,59,10.0,14.0,86,0.00,,CLR,0.00,VWS V14.01,2013-09-28 01:23:00,
2013-09-27 21:24:00,74.0,69.6,29.42,NE,52,7.0,14.0,86,0.00,,CLR,0.00,VWS V14.01,2013-09-28 01:24:00,
2013-09-27 21:25:00,74.0,69.6,29.42,NE,53,4.0,6.0,86,0.00,,CLR,0.00,VWS V14.01,2013-09-28 01:25:00,
2013-09-27 21:26:00,74.0,69.6,29.42,NE,36,6.0,7.0,86,0.00,,CLR,0.00,VWS V14.01,2013-09-28 01:26:00,
2013-09-27 21:27:00,74.0,69.6,29.15,ENE,61,5.0,7.0,86,0.00,,CLR,0.00,VWS V14.01,2013-09-28 01:27:00,
2013-09-27 21:28:00,74.0,69.6,29.15,ENE,64,6.0,9.0,86,0.00,,CLR,0.00,VWS V14.01,2013-09-28 01:28:00,
2013-09-27 21:29:00,74.0,69.6,29.15,NE,48,12.0,13.0,86,0.00,,CLR,0.00,VWS V14.01,2013-09-28 01:29:00,
2013-09-27 21:30:00,74.0,69.6,29.15,ENE,69,5.0,5.0,86,0.00,,CLR,0.00,VWS V14.01,2013-09-28 01:30:00,
2013-09-27 21:31:00,74.0,69.6,29.15,NE,54,3.0,6.0,86,0.00,,CLR,0.00,VWS V14.01,2013-09-28 01:31:00,
2013-09-27 21:32:00,74.0,69.6,29.15,NE,51,9.0,10.0,86,0.00,,CLR,0.00,VWS V14.01,2013-09-28 01:32:00,
2013-09-27 21:33:00,74.0,69.6,29.15,ENE,69,5.0,9.0,86,0.00,,CLR,0.00,VWS V14.01,2013-09-28 01:33:00,
2013-09-27 21:34:00,74.0,69.6,29.15,ENE,59,9.0,9.0,86,0.00,,CLR,0.00,VWS V14.01,2013-09-28 01:34:00,
2013-09-27 21:35:00,73.9,69.4,29.15,NE,36,14.0,14.0,86,0.00,,FEW048,0.00,VWS V14.01,2013-09-28 01:35:00,
2013-09-27 21:36:00,73.9,69.4,29.15,NE,53,10.0,14.0,86,0.00,,CLR,0.00,VWS V14.01,2013-09-28 01:36:00,
2013-09-27 21:37:00,73.9,69.4,29.15,ENE,60,12.0,15.0,86,0.00,,CLR,0.00,VWS V14.01,2013-09-28 01:37:00,
2013-09-27 21:38:00,73.9,69.4,29.15,NNE,33,5.0,13.0,86,0.00,,CLR,0.00,VWS V14.01,2013-09-28 01:38:00,
2013-09-27 21:39:00,73.9,69.1,29.46,NE,52,9.0,11.0,85,0.00,,CLR,0.00,VWS V14.01,2013-09-28 01:39:00,
2013-09-27 21:40:00,73.9,69.1,29.46,NE,42,12.0,12.0,85,0.00,,FEW048,0.00,VWS V14.01,2013-09-28 01:40:00,
2013-09-27 21:41:00,73.9,69.1,29.46,NE,53,11.0,11.0,85,0.00,,CLR,0.00,VWS V14.01,2013-09-28 01:41:00,
2013-09-27 21:42:00,73.9,69.1,29.46,NE,51,7.0,12.0,85,0.00,,CLR,0.00,VWS V14.01,2013-09-28 01:42:00,
2013-09-27 21:43:00,73.9,69.1,29.46,ENE,61,6.0,9.0,85,0.00,,CLR,0.00,VWS V14.01,2013-09-28 01:43:00,
2013-09-27 21:44:00,73.9,69.1,29.42,NE,51,11.0,11.0,85,0.00,,CLR,0.00,VWS V14.01,2013-09-28 01:44:00,
2013-09-27 21:45:00,73.9,69.1,29.42,East,82,10.0,10.0,85,0.00,,FEW048,0.00,VWS V14.01,2013-09-28 01:45:00,
2013-09-27 21:46:00,73.9,69.1,29.42,NE,51,7.0,10.0,85,0.00,,CLR,0.00,VWS V14.01,2013-09-28 01:46:00,
2013-09-27 21:47:00,73.9,69.1,29.42,ENE,69,10.0,10.0,85,0.00,,CLR,0.00,VWS V14.01,2013-09-28 01:47:00,
2013-09-27 21:48:00,73.9,69.1,29.42,ENE,71,5.0,10.0,85,0.00,,CLR,0.00,VWS V14.01,2013-09-28 01:48:00,
2013-09-27 21:49:00,73.9,69.1,29.42,NE,51,10.0,13.0,85,0.00,,CLR,0.00,VWS V14.01,2013-09-28 01:49:00,
2013-09-27 21:50:00,73.9,69.4,29.42,ENE,60,5.0,5.0,86,0.00,,FEW048,0.00,VWS V14.01,2013-09-28 01:50:00,
2013-09-27 21:51:00,73.9,69.4,29.42,NNW,347,5.0,13.0,86,0.00,,CLR,0.00,VWS V14.01,2013-09-28 01:51:00,
2013-09-27 21:52:00,73.9,69.4,29.42,East,79,2.0,5.0,86,0.00,,CLR,0.00,VWS V14.01,2013-09-28 01:52:00,
2013-09-27 21:53:00,73.9,69.4,29.42,NNE,22,3.0,6.0,86,0.00,,CLR,0.00,VWS V14.01,2013-09-28 01:53:00,
2013-09-27 21:54:00,73.9,69.4,29.32,NE,45,5.0,6.0,86,0.00,,CLR,0.00,VWS V14.01,2013-09-28 01:54:00,
2013-09-27 21:55:00,73.9,69.8,29.32,ENE,67,5.0,9.0,87,0.00,,FEW048,0.00,VWS V14.01,2013-09-28 01:55:00,
2013-09-27 21:56:00,73.9,69.8,29.32,NE,55,9.0,9.0,87,0.00,,CLR,0.00,VWS V14.01,2013-09-28 01:56:00,
2013-09-27 21:57:00,73.9,69.8,29.32,ENE,59,8.0,9.0,87,0.00,,CLR,0.00,VWS V14.01,2013-09-28 01:57:00,
2013-09-27 21:58:00,73.9,69.8,29.32,ENE,63,4.0,8.0,87,0.00,,CLR,0.00,VWS V14.01,2013-09-28 01:58:00,
2013-09-27 21:59:00,73.9,70.1,29.14,NW,312,3.0,8.0,88,0.00,,CLR,0.00,VWS V14.01,2013-09-28 01:59:00,
2013-09-27 22:00:00,73.9,70.1,29.14,ENE,63,12.0,12.0,88,0.00,,FEW048,0.00,VWS V14.01,2013-09-28 02:00:00,
2013-09-27 22:01:00,73.9,70.1,29.14,ENE,63,1.0,11.0,88,0.00,,CLR,0.00,VWS V14.01,2013-09-28 02:01:00,
2013-09-27 22:02:00,73.9,70.1,29.14,NE,41,4.0,12.0,88,0.00,,CLR,0.00,VWS V14.01,2013-09-28 02:02:00,
2013-09-27 22:03:00,73.9,70.5,29.14,NNE,30,4.0,7.0,89,0.00,,CLR,0.00,VWS V14.01,2013-09-28 02:03:00,
2013-09-27 22:04:00,73.9,70.5,29.14,NE,54,6.0,10.0,89,0.00,,CLR,0.00,VWS V14.01,2013-09-28 02:04:00,
2013-09-27 22:05:00,73.9,70.5,29.14,NE,49,3.0,3.0,89,0.00,,FEW048,0.00,VWS V14.01,2013-09-28 02:05:00,
2013-09-27 22:06:00,73.9,70.5,29.14,NE,49,0.0,7.0,89,0.00,,CLR,0.00,VWS V14.01,2013-09-28 02:06:00,
2013-09-27 22:07:00,73.9,70.5,29.14,NE,51,9.0,9.0,89,0.00,,CLR,0.00,VWS V14.01,2013-09-28 02:07:00,
2013-09-27 22:08:00,73.9,70.5,29.14,NNE,32,4.0,9.0,89,0.00,,CLR,0.00,VWS V14.01,2013-09-28 02:08:00,
2013-09-27 22:09:00,73.9,70.5,29.41,North,5,2.0,9.0,89,0.00,,CLR,0.00,VWS V14.01,2013-09-28 02:09:00,
2013-09-27 22:10:00,73.7,70.3,29.33,ENE,59,6.0,6.0,89,0.00,,FEW048,0.00,VWS V14.01,2013-09-28 02:10:00,
2013-09-27 22:11:00,73.9,70.5,29.41,ENE,64,2.0,4.0,89,0.00,,CLR,0.00,VWS V14.01,2013-09-28 02:11:00,
2013-09-27 22:12:00,73.7,70.3,29.33,NE,37,3.0,6.0,89,0.00,,CLR,0.00,VWS V14.01,2013-09-28 02:12:00,
2013-09-27 22:13:00,73.7,70.3,29.33,ENE,74,4.0,5.0,89,0.00,,CLR,0.00,VWS V14.01,2013-09-28 02:13:00,
2013-09-27 22:14:00,73.7,70.6,29.33,NE,46,6.0,6.0,90,0.00,,CLR,0.00,VWS V14.01,2013-09-28 02:14:00,
2013-09-27 22:15:00,73.5,70.4,29.33,NE,34,2.0,13.0,90,0.00,,FEW048,0.00,VWS V14.01,2013-09-28 02:15:00,
2013-09-27 22:16:00,73.5,70.4,29.33,NE,42,13.0,13.0,90,0.00,,CLR,0.00,VWS V14.01,2013-09-28 02:16:00,
2013-09-27 22:17:00,73.5,70.4,29.33,NE,44,9.0,13.0,90,0.00,,CLR,0.00,VWS V14.01,2013-09-28 02:17:00,
2013-09-27 22:18:00,73.5,70.4,29.33,NNW,335,5.0,9.0,90,0.00,,CLR,0.00,VWS V14.01,2013-09-28 02:18:00,
2013-09-27 22:19:00,73.5,70.4,29.33,ENE,59,3.0,6.0,90,0.00,,CLR,0.00,VWS V14.01,2013-09-28 02:19:00,
2013-09-27 22:20:00,73.3,70.2,29.33,NE,40,2.0,5.0,90,0.00,,FEW048,0.00,VWS V14.01,2013-09-28 02:20:00,
2013-09-27 22:21:00,73.3,70.2,29.33,NE,40,5.0,7.0,90,0.00,,CLR,0.00,VWS V14.01,2013-09-28 02:21:00,
2013-09-27 22:22:00,73.3,70.2,29.33,ENE,60,5.0,6.0,90,0.00,,CLR,0.00,VWS V14.01,2013-09-28 02:22:00,
2013-09-27 22:23:00,73.3,70.2,29.33,ENE,59,5.0,6.0,90,0.00,,CLR,0.00,VWS V14.01,2013-09-28 02:23:00,
2013-09-27 22:24:00,73.2,70.1,29.33,NE,39,6.0,9.0,90,0.00,,CLR,0.00,VWS V14.01,2013-09-28 02:24:00,
2013-09-27 22:25:00,73.2,70.1,29.33,NNE,31,11.0,11.0,90,0.00,,FEW048,0.00,VWS V14.01,2013-09-28 02:25:00,
2013-09-27 22:26:00,73.2,70.1,29.33,NE,37,6.0,7.0,90,0.00,,CLR,0.00,VWS V14.01,2013-09-28 02:26:00,
2013-09-27 22:27:00,73.2,70.1,29.33,NE,52,4.0,11.0,90,0.00,,CLR,0.00,VWS V14.01,2013-09-28 02:27:00,
2013-09-27 22:28:00,73.2,70.1,29.33,NNE,18,4.0,9.0,90,0.00,,CLR,0.00,VWS V14.01,2013-09-28 02:28:00,
2013-09-27 22:29:00,73.2,70.1,29.33,NE,47,8.0,12.0,90,0.00,,CLR,0.00,VWS V14.01,2013-09-28 02:29:00,
2013-09-27 22:30:00,73.0,69.9,29.33,North,355,7.0,7.0,90,0.00,,FEW048,0.00,VWS V14.01,2013-09-28 02:30:00,
2013-09-27 22:31:00,73.0,69.9,29.33,NNE,27,5.0,7.0,90,0.00,,CLR,0.00,VWS V14.01,2013-09-28 02:31:00,
2013-09-27 22:32:00,73.0,69.9,29.33,NNE,28,11.0,11.0,90,0.00,,CLR,0.00,VWS V14.01,2013-09-28 02:32:00,
2013-09-27 22:33:00,73.0,69.9,29.33,NE,40,10.0,11.0,90,0.00,,CLR,0.00,VWS V14.01,2013-09-28 02:33:00,
2013-09-27 22:34:00,73.0,69.9,29.33,NE,46,3.0,12.0,90,0.00,,CLR,0.00,VWS V14.01,2013-09-28 02:34:00,
2013-09-27 22:35:00,73.0,69.9,29.33,ENE,62,2.0,4.0,90,0.00,,CLR,0.00,VWS V14.01,2013-09-28 02:35:00,
2013-09-27 22:36:00,73.0,69.9,29.33,ENE,61,4.0,5.0,90,0.00,,CLR,0.00,VWS V14.01,2013-09-28 02:36:00,
2013-09-27 22:37:00,73.0,69.9,29.33,North,355,4.0,4.0,90,0.00,,CLR,0.00,VWS V14.01,2013-09-28 02:37:00,
2013-09-27 22:38:00,73.0,69.9,29.33,NE,40,7.0,7.0,90,0.00,,CLR,0.00,VWS V14.01,2013-09-28 02:38:00,
2013-09-27 22:39:00,72.8,69.7,29.33,NNE,32,3.0,7.0,90,0.00,,CLR,0.00,VWS V14.01,2013-09-28 02:39:00,
2013-09-27 22:40:00,72.8,69.7,29.33,ENE,57,3.0,5.0,90,0.00,,CLR,0.00,VWS V14.01,2013-09-28 02:40:00,
2013-09-27 22:41:00,72.8,69.7,29.33,North,360,3.0,5.0,90,0.00,,CLR,0.00,VWS V14.01,2013-09-28 02:41:00,
2013-09-27 22:42:00,72.8,69.7,29.33,NE,38,3.0,5.0,90,0.00,,CLR,0.00,VWS V14.01,2013-09-28 02:42:00,
2013-09-27 22:43:00,72.8,69.7,29.33,North,5,1.0,4.0,90,0.00,,CLR,0.00,VWS V14.01,2013-09-28 02:43:00,
2013-09-27 22:44:00,72.7,69.6,29.33,North,355,3.0,4.0,90,0.00,,CLR,0.00,VWS V14.01,2013-09-28 02:44:00,
2013-09-27 22:45:00,72.7,69.6,29.31,North,10,0.0,2.0,90,0.00,,CLR,0.00,VWS V14.01,2013-09-28 02:45:00,
2013-09-27 22:46:00,72.7,69.6,29.33,North,10,2.0,4.0,90,0.00,,CLR,0.00,VWS V14.01,2013-09-28 02:46:00,
2013-09-27 22:47:00,72.7,69.6,29.31,North,10,1.0,2.0,90,0.00,,CLR,0.00,VWS V14.01,2013-09-28 02:47:00,
2013-09-27 22:48:00,72.7,69.6,29.31,ENE,59,3.0,4.0,90,0.00,,CLR,0.00,VWS V14.01,2013-09-28 02:48:00,
2013-09-27 22:49:00,72.7,69.6,29.31,NE,36,3.0,5.0,90,0.00,,CLR,0.00,VWS V14.01,2013-09-28 02:49:00,
2013-09-27 22:50:00,72.5,69.7,29.31,ENE,61,6.0,6.0,91,0.00,,CLR,0.00,VWS V14.01,2013-09-28 02:50:00,
2013-09-27 22:51:00,72.5,69.4,29.31,North,11,3.0,4.0,90,0.00,,CLR,0.00,VWS V14.01,2013-09-28 02:51:00,
2013-09-27 22:52:00,72.5,69.7,29.31,NNE,17,4.0,6.0,91,0.00,,CLR,0.00,VWS V14.01,2013-09-28 02:52:00,
2013-09-27 22:53:00,72.3,69.5,29.31,NE,47,2.0,6.0,91,0.00,,CLR,0.00,VWS V14.01,2013-09-28 02:53:00,
2013-09-27 22:54:00,72.3,69.2,29.31,ENE,61,3.0,3.0,90,0.00,,CLR,0.00,VWS V14.01,2013-09-28 02:54:00,
2013-09-27 22:55:00,72.1,69.0,29.31,NE,53,4.0,4.0,90,0.00,,CLR,0.00,VWS V14.01,2013-09-28 02:55:00,
2013-09-27 22:56:00,72.1,69.0,29.31,NE,55,3.0,9.0,90,0.00,,CLR,0.00,VWS V14.01,2013-09-28 02:56:00,
2013-09-27 22:57:00,72.1,69.0,29.31,NNE,30,9.0,15.0,90,0.00,,CLR,0.00,VWS V14.01,2013-09-28 02:57:00,
2013-09-27 22:58:00,72.0,68.9,29.31,NE,40,11.0,14.0,90,0.00,,CLR,0.00,VWS V14.01,2013-09-28 02:58:00,
2013-09-27 22:59:00,72.0,68.9,29.35,ENE,59,4.0,11.0,90,0.00,,CLR,0.00,VWS V14.01,2013-09-28 02:59:00,
2013-09-27 23:00:00,71.8,68.7,29.35,NNW,348,6.0,6.0,90,0.00,,CLR,0.00,VWS V14.01,2013-09-28 03:00:00,
2013-09-27 23:01:00,72.0,68.9,29.35,NNE,19,6.0,10.0,90,0.00,,CLR,0.00,VWS V14.01,2013-09-28 03:01:00,
2013-09-27 23:02:00,71.8,68.7,29.35,NE,42,10.0,10.0,90,0.00,,CLR,0.00,VWS V14.01,2013-09-28 03:02:00,
2013-09-27 23:03:00,71.8,68.7,29.35,NE,44,6.0,10.0,90,0.00,,CLR,0.00,VWS V14.01,2013-09-28 03:03:00,
2013-09-27 23:04:00,71.8,68.7,29.35,North,351,5.0,6.0,90,0.00,,CLR,0.00,VWS V14.01,2013-09-28 03:04:00,
2013-09-27 23:05:00,71.8,68.7,29.35,NNE,28,1.0,2.0,90,0.00,,CLR,0.00,VWS V14.01,2013-09-28 03:05:00,
2013-09-27 23:06:00,71.8,68.7,29.35,NNE,26,2.0,5.0,90,0.00,,CLR,0.00,VWS V14.01,2013-09-28 03:06:00,
2013-09-27 23:07:00,71.8,68.7,29.35,NNW,342,4.0,11.0,90,0.00,,CLR,0.00,VWS V14.01,2013-09-28 03:07:00,
2013-09-27 23:08:00,71.8,68.7,29.35,North,5,7.0,7.0,90,0.00,,CLR,0.00,VWS V14.01,2013-09-28 03:08:00,
2013-09-27 23:09:00,71.6,68.5,29.35,NE,34,3.0,7.0,90,0.00,,CLR,0.00,VWS V14.01,2013-09-28 03:09:00,
2013-09-27 23:10:00,71.6,68.5,29.35,NE,39,4.0,4.0,90,0.00,,CLR,0.00,VWS V14.01,2013-09-28 03:10:00,
2013-09-27 23:11:00,71.6,68.5,29.35,NNE,24,4.0,4.0,90,0.00,,CLR,0.00,VWS V14.01,2013-09-28 03:11:00,
2013-09-27 23:12:00,71.6,68.5,29.35,NNE,13,4.0,4.0,90,0.00,,CLR,0.00,VWS V14.01,2013-09-28 03:12:00,
2013-09-27 23:13:00,71.6,68.5,29.39,ENE,71,11.0,11.0,90,0.00,,CLR,0.00,VWS V14.01,2013-09-28 03:13:00,
2013-09-27 23:14:00,71.5,68.4,29.39,NNW,333,5.0,11.0,90,0.00,,CLR,0.00,VWS V14.01,2013-09-28 03:14:00,
2013-09-27 23:15:00,71.5,68.4,29.39,NE,35,1.0,3.0,90,0.00,,CLR,0.00,VWS V14.01,2013-09-28 03:15:00,
2013-09-27 23:16:00,71.5,68.4,29.39,NNE,33,3.0,5.0,90,0.00,,CLR,0.00,VWS V14.01,2013-09-28 03:16:00,
2013-09-27 23:17:00,71.5,68.4,29.39,ENE,59,4.0,4.0,90,0.00,,CLR,0.00,VWS V14.01,2013-09-28 03:17:00,
2013-09-27 23:18:00,71.3,68.2,29.39,ENE,66,4.0,4.0,90,0.00,,CLR,0.00,VWS V14.01,2013-09-28 03:18:00,
2013-09-27 23:19:00,71.3,68.2,29.39,NNE,23,5.0,5.0,90,0.00,,CLR,0.00,VWS V14.01,2013-09-28 03:19:00,
2013-09-27 23:20:00,71.1,68.0,29.39,North,360,7.0,7.0,90,0.00,,CLR,0.00,VWS V14.01,2013-09-28 03:20:00,
2013-09-27 23:21:00,71.1,68.0,29.39,North,355,3.0,6.0,90,0.00,,CLR,0.00,VWS V14.01,2013-09-28 03:21:00,
2013-09-27 23:22:00,71.1,68.0,29.39,NE,49,5.0,7.0,90,0.00,,CLR,0.00,VWS V14.01,2013-09-28 03:22:00,
2013-09-27 23:23:00,71.1,68.0,29.39,NE,45,1.0,5.0,90,0.00,,CLR,0.00,VWS V14.01,2013-09-28 03:23:00,
2013-09-27 23:24:00,71.1,68.0,29.39,North,5,3.0,6.0,90,0.00,,CLR,0.00,VWS V14.01,2013-09-28 03:24:00,
2013-09-27 23:25:00,70.9,67.8,29.48,NE,46,9.0,9.0,90,0.00,,CLR,0.00,VWS V14.01,2013-09-28 03:25:00,
2013-09-27 23:26:00,70.9,67.8,29.48,NNE,32,5.0,5.0,90,0.00,,CLR,0.00,VWS V14.01,2013-09-28 03:26:00,
2013-09-27 23:27:00,70.9,67.5,29.48,NE,37,7.0,9.0,89,0.00,,CLR,0.00,VWS V14.01,2013-09-28 03:27:00,
2013-09-27 23:28:00,70.8,67.4,29.39,ENE,63,7.0,7.0,89,0.00,,CLR,0.00,VWS V14.01,2013-09-28 03:28:00,
2013-09-27 23:29:00,70.8,67.4,29.39,NNE,28,4.0,7.0,89,0.00,,CLR,0.00,VWS V14.01,2013-09-28 03:29:00,
2013-09-27 23:30:00,70.8,67.4,29.54,NNW,337,5.0,5.0,89,0.00,,CLR,0.00,VWS V14.01,2013-09-28 03:30:00,
2013-09-27 23:31:00,70.8,67.4,29.54,North,9,5.0,9.0,89,0.00,,CLR,0.00,VWS V14.01,2013-09-28 03:31:00,
2013-09-27 23:32:00,70.8,67.4,29.54,NNE,20,4.0,9.0,89,0.00,,CLR,0.00,VWS V14.01,2013-09-28 03:32:00,
2013-09-27 23:33:00,70.8,67.4,29.54,NNE,30,5.0,9.0,89,0.00,,CLR,0.00,VWS V14.01,2013-09-28 03:33:00,
2013-09-27 23:34:00,70.8,67.4,29.54,NNE,26,7.0,7.0,89,0.00,,CLR,0.00,VWS V14.01,2013-09-28 03:34:00,
2013-09-27 23:35:00,70.6,67.2,29.54,North,5,2.0,3.0,89,0.00,,CLR,0.00,VWS V14.01,2013-09-28 03:35:00,
2013-09-27 23:36:00,70.6,67.2,29.54,North,5,3.0,9.0,89,0.00,,CLR,0.00,VWS V14.01,2013-09-28 03:36:00,
2013-09-27 23:37:00,70.6,67.2,29.54,NE,39,7.0,7.0,89,0.00,,CLR,0.00,VWS V14.01,2013-09-28 03:37:00,
2013-09-27 23:38:00,70.6,67.2,29.54,North,5,2.0,9.0,89,0.00,,CLR,0.00,VWS V14.01,2013-09-28 03:38:00,
2013-09-27 23:39:00,70.6,66.9,29.54,ENE,60,4.0,6.0,88,0.00,,CLR,0.00,VWS V14.01,2013-09-28 03:39:00,
2013-09-27 23:40:00,70.4,66.7,29.54,NE,52,4.0,9.0,88,0.00,,CLR,0.00,VWS V14.01,2013-09-28 03:40:00,
2013-09-27 23:41:00,70.6,66.9,29.54,NE,52,9.0,9.0,88,0.00,,CLR,0.00,VWS V14.01,2013-09-28 03:41:00,
2013-09-27 23:42:00,70.4,66.7,29.54,NNE,19,5.0,9.0,88,0.00,,CLR,0.00,VWS V14.01,2013-09-28 03:42:00,
2013-09-27 23:43:00,70.4,66.7,29.54,NE,50,7.0,7.0,88,0.00,,CLR,0.00,VWS V14.01,2013-09-28 03:43:00,
2013-09-27 23:44:00,70.4,66.7,29.54,NE,50,5.0,9.0,88,0.00,,CLR,0.00,VWS V14.01,2013-09-28 03:44:00,
2013-09-27 23:45:00,70.3,66.6,29.54,NE,42,4.0,11.0,88,0.00,,CLR,0.00,VWS V14.01,2013-09-28 03:45:00,
2013-09-27 23:46:00,70.3,66.6,29.55,North,5,11.0,11.0,88,0.00,,CLR,0.00,VWS V14.01,2013-09-28 03:46:00,
2013-09-27 23:47:00,70.3,66.2,29.54,NE,47,11.0,11.0,87,0.00,,CLR,0.00,VWS V14.01,2013-09-28 03:47:00,
2013-09-27 23:48:00,70.3,66.2,29.54,NE,51,11.0,11.0,87,0.00,,CLR,0.00,VWS V14.01,2013-09-28 03:48:00,
2013-09-27 23:49:00,70.3,66.2,29.54,NE,37,2.0,11.0,87,0.00,,CLR,0.00,VWS V14.01,2013-09-28 03:49:00,
2013-09-27 23:50:00,70.3,66.2,29.54,NNE,30,4.0,4.0,87,0.00,,CLR,0.00,VWS V14.01,2013-09-28 03:50:00,
2013-09-27 23:51:00,70.3,66.2,29.54,ENE,57,2.0,9.0,87,0.00,,CLR,0.00,VWS V14.01,2013-09-28 03:51:00,
2013-09-27 23:52:00,70.3,66.2,29.54,NE,55,5.0,5.0,87,0.00,,CLR,0.00,VWS V14.01,2013-09-28 03:52:00,
2013-09-27 23:53:00,70.3,66.2,29.39,NE,45,5.0,6.0,87,0.00,,CLR,0.00,VWS V14.01,2013-09-28 03:53:00,
2013-09-27 23:54:00,70.3,66.2,29.39,North,355,1.0,5.0,87,0.00,,CLR,0.00,VWS V14.01,2013-09-28 03:54:00,
2013-09-27 23:55:00,70.1,66.1,29.39,NE,55,4.0,4.0,87,0.00,,CLR,0.00,VWS V14.01,2013-09-28 03:55:00,
2013-09-27 23:56:00,70.1,66.1,29.39,NE,55,2.0,5.0,87,0.00,,CLR,0.00,VWS V14.01,2013-09-28 03:56:00,
2013-09-27 23:57:00,70.1,66.1,29.39,NNE,31,4.0,7.0,87,0.00,,CLR,0.00,VWS V14.01,2013-09-28 03:57:00,
2013-09-27 23:58:00,70.1,66.1,29.39,NE,53,5.0,5.0,87,0.00,,CLR,0.00,VWS V14.01,2013-09-28 03:58:00,
2013-09-27 23:59:00,70.1,65.7,29.39,NNE,19,3.0,5.0,86,0.00,,CLR,0.00,VWS V14.01,2013-09-28 03:59:00,